<?xml version="1.0" encoding="UTF-8" standalone="no" ?>
<gpx xmlns="http://www.topografix.com/GPX/1/1" xmlns:xsi="http://www.w3.org/2001/XMLSchema-instance" xsi:schemaLocation="http://www.topografix.com/GPX/1/1 http://www.topografix.com/GPX/1/1/gpx.xsd" version="1.1" creator="VisuGPX - https://www.visugpx.com">
  <metadata>
    <name>curienne   coche bois noir</name>
    <desc><![CDATA[curienne   coche bois noir]]></desc>
  </metadata>
  <trk>
    <name><![CDATA[19-MARS-14 18:02:57]]></name>
    <trkseg>
      <trkpt lat="45.56455" lon="5.9394">
        <ele>290.46</ele>
        <time>2014-03-19T13:02:10Z</time>
      </trkpt>
      <trkpt lat="45.56455" lon="5.9394">
        <ele>291.42</ele>
        <time>2014-03-19T13:02:44Z</time>
      </trkpt>
      <trkpt lat="45.56455" lon="5.9394">
        <ele>291.42</ele>
        <time>2014-03-19T13:02:45Z</time>
      </trkpt>
      <trkpt lat="45.56455" lon="5.9394">
        <ele>291.9</ele>
        <time>2014-03-19T13:03:02Z</time>
      </trkpt>
      <trkpt lat="45.56451" lon="5.93944">
        <ele>292.38</ele>
        <time>2014-03-19T13:03:07Z</time>
      </trkpt>
      <trkpt lat="45.56451" lon="5.93935">
        <ele>292.38</ele>
        <time>2014-03-19T13:03:18Z</time>
      </trkpt>
      <trkpt lat="45.56448" lon="5.93937">
        <ele>292.38</ele>
        <time>2014-03-19T13:03:23Z</time>
      </trkpt>
      <trkpt lat="45.56426" lon="5.93951">
        <ele>292.38</ele>
        <time>2014-03-19T13:03:34Z</time>
      </trkpt>
      <trkpt lat="45.56408" lon="5.93943">
        <ele>292.86</ele>
        <time>2014-03-19T13:03:44Z</time>
      </trkpt>
      <trkpt lat="45.56368" lon="5.93979">
        <ele>292.86</ele>
        <time>2014-03-19T13:03:56Z</time>
      </trkpt>
      <trkpt lat="45.56324" lon="5.94033">
        <ele>293.34</ele>
        <time>2014-03-19T13:04:09Z</time>
      </trkpt>
      <trkpt lat="45.56321" lon="5.94038">
        <ele>293.82</ele>
        <time>2014-03-19T13:04:10Z</time>
      </trkpt>
      <trkpt lat="45.56302" lon="5.94056">
        <ele>293.34</ele>
        <time>2014-03-19T13:04:15Z</time>
      </trkpt>
      <trkpt lat="45.56297" lon="5.94058">
        <ele>293.34</ele>
        <time>2014-03-19T13:04:16Z</time>
      </trkpt>
      <trkpt lat="45.56292" lon="5.94059">
        <ele>292.86</ele>
        <time>2014-03-19T13:04:17Z</time>
      </trkpt>
      <trkpt lat="45.56288" lon="5.9406">
        <ele>292.86</ele>
        <time>2014-03-19T13:04:18Z</time>
      </trkpt>
      <trkpt lat="45.56283" lon="5.94061">
        <ele>293.34</ele>
        <time>2014-03-19T13:04:19Z</time>
      </trkpt>
      <trkpt lat="45.56262" lon="5.94068">
        <ele>292.86</ele>
        <time>2014-03-19T13:04:24Z</time>
      </trkpt>
      <trkpt lat="45.56214" lon="5.94067">
        <ele>293.34</ele>
        <time>2014-03-19T13:04:34Z</time>
      </trkpt>
      <trkpt lat="45.56209" lon="5.94065">
        <ele>293.34</ele>
        <time>2014-03-19T13:04:35Z</time>
      </trkpt>
      <trkpt lat="45.56204" lon="5.94061">
        <ele>293.34</ele>
        <time>2014-03-19T13:04:36Z</time>
      </trkpt>
      <trkpt lat="45.562" lon="5.94059">
        <ele>293.34</ele>
        <time>2014-03-19T13:04:37Z</time>
      </trkpt>
      <trkpt lat="45.56195" lon="5.9406">
        <ele>293.34</ele>
        <time>2014-03-19T13:04:38Z</time>
      </trkpt>
      <trkpt lat="45.56191" lon="5.94062">
        <ele>293.34</ele>
        <time>2014-03-19T13:04:39Z</time>
      </trkpt>
      <trkpt lat="45.56187" lon="5.94065">
        <ele>293.82</ele>
        <time>2014-03-19T13:04:40Z</time>
      </trkpt>
      <trkpt lat="45.56153" lon="5.94098">
        <ele>293.34</ele>
        <time>2014-03-19T13:04:49Z</time>
      </trkpt>
      <trkpt lat="45.56149" lon="5.94102">
        <ele>293.34</ele>
        <time>2014-03-19T13:04:50Z</time>
      </trkpt>
      <trkpt lat="45.56134" lon="5.94118">
        <ele>293.82</ele>
        <time>2014-03-19T13:04:54Z</time>
      </trkpt>
      <trkpt lat="45.56132" lon="5.94122">
        <ele>293.82</ele>
        <time>2014-03-19T13:04:55Z</time>
      </trkpt>
      <trkpt lat="45.56125" lon="5.94158">
        <ele>294.3</ele>
        <time>2014-03-19T13:05:04Z</time>
      </trkpt>
      <trkpt lat="45.56124" lon="5.94164">
        <ele>293.82</ele>
        <time>2014-03-19T13:05:05Z</time>
      </trkpt>
      <trkpt lat="45.56119" lon="5.94182">
        <ele>294.3</ele>
        <time>2014-03-19T13:05:13Z</time>
      </trkpt>
      <trkpt lat="45.5612" lon="5.94206">
        <ele>294.3</ele>
        <time>2014-03-19T13:05:19Z</time>
      </trkpt>
      <trkpt lat="45.56118" lon="5.9421">
        <ele>294.3</ele>
        <time>2014-03-19T13:05:20Z</time>
      </trkpt>
      <trkpt lat="45.56113" lon="5.94219">
        <ele>293.82</ele>
        <time>2014-03-19T13:05:22Z</time>
      </trkpt>
      <trkpt lat="45.56112" lon="5.94225">
        <ele>293.34</ele>
        <time>2014-03-19T13:05:23Z</time>
      </trkpt>
      <trkpt lat="45.56112" lon="5.94232">
        <ele>293.34</ele>
        <time>2014-03-19T13:05:24Z</time>
      </trkpt>
      <trkpt lat="45.56113" lon="5.94238">
        <ele>293.82</ele>
        <time>2014-03-19T13:05:25Z</time>
      </trkpt>
      <trkpt lat="45.56115" lon="5.94245">
        <ele>293.82</ele>
        <time>2014-03-19T13:05:26Z</time>
      </trkpt>
      <trkpt lat="45.56118" lon="5.94258">
        <ele>294.3</ele>
        <time>2014-03-19T13:05:28Z</time>
      </trkpt>
      <trkpt lat="45.56118" lon="5.94265">
        <ele>293.82</ele>
        <time>2014-03-19T13:05:29Z</time>
      </trkpt>
      <trkpt lat="45.56118" lon="5.94272">
        <ele>294.3</ele>
        <time>2014-03-19T13:05:30Z</time>
      </trkpt>
      <trkpt lat="45.56117" lon="5.94279">
        <ele>293.82</ele>
        <time>2014-03-19T13:05:31Z</time>
      </trkpt>
      <trkpt lat="45.56116" lon="5.94286">
        <ele>293.82</ele>
        <time>2014-03-19T13:05:32Z</time>
      </trkpt>
      <trkpt lat="45.56106" lon="5.94378">
        <ele>294.3</ele>
        <time>2014-03-19T13:05:45Z</time>
      </trkpt>
      <trkpt lat="45.56105" lon="5.94385">
        <ele>294.3</ele>
        <time>2014-03-19T13:05:46Z</time>
      </trkpt>
      <trkpt lat="45.56105" lon="5.94392">
        <ele>294.3</ele>
        <time>2014-03-19T13:05:47Z</time>
      </trkpt>
      <trkpt lat="45.56103" lon="5.94399">
        <ele>294.3</ele>
        <time>2014-03-19T13:05:48Z</time>
      </trkpt>
      <trkpt lat="45.56102" lon="5.94406">
        <ele>294.3</ele>
        <time>2014-03-19T13:05:49Z</time>
      </trkpt>
      <trkpt lat="45.5608" lon="5.94501">
        <ele>294.78</ele>
        <time>2014-03-19T13:06:04Z</time>
      </trkpt>
      <trkpt lat="45.56075" lon="5.94513">
        <ele>295.26</ele>
        <time>2014-03-19T13:06:06Z</time>
      </trkpt>
      <trkpt lat="45.56072" lon="5.94519">
        <ele>295.74</ele>
        <time>2014-03-19T13:06:07Z</time>
      </trkpt>
      <trkpt lat="45.56068" lon="5.94524">
        <ele>295.74</ele>
        <time>2014-03-19T13:06:08Z</time>
      </trkpt>
      <trkpt lat="45.56064" lon="5.94528">
        <ele>295.26</ele>
        <time>2014-03-19T13:06:09Z</time>
      </trkpt>
      <trkpt lat="45.5606" lon="5.94532">
        <ele>295.74</ele>
        <time>2014-03-19T13:06:10Z</time>
      </trkpt>
      <trkpt lat="45.56056" lon="5.94535">
        <ele>295.26</ele>
        <time>2014-03-19T13:06:11Z</time>
      </trkpt>
      <trkpt lat="45.56051" lon="5.94537">
        <ele>295.26</ele>
        <time>2014-03-19T13:06:12Z</time>
      </trkpt>
      <trkpt lat="45.56046" lon="5.94539">
        <ele>295.26</ele>
        <time>2014-03-19T13:06:13Z</time>
      </trkpt>
      <trkpt lat="45.5604" lon="5.9454">
        <ele>295.26</ele>
        <time>2014-03-19T13:06:14Z</time>
      </trkpt>
      <trkpt lat="45.56035" lon="5.94541">
        <ele>295.74</ele>
        <time>2014-03-19T13:06:15Z</time>
      </trkpt>
      <trkpt lat="45.55964" lon="5.94561">
        <ele>295.74</ele>
        <time>2014-03-19T13:06:29Z</time>
      </trkpt>
      <trkpt lat="45.5596" lon="5.94564">
        <ele>295.74</ele>
        <time>2014-03-19T13:06:30Z</time>
      </trkpt>
      <trkpt lat="45.55955" lon="5.94568">
        <ele>295.74</ele>
        <time>2014-03-19T13:06:31Z</time>
      </trkpt>
      <trkpt lat="45.55951" lon="5.94572">
        <ele>296.22</ele>
        <time>2014-03-19T13:06:32Z</time>
      </trkpt>
      <trkpt lat="45.55947" lon="5.94577">
        <ele>295.74</ele>
        <time>2014-03-19T13:06:33Z</time>
      </trkpt>
      <trkpt lat="45.55944" lon="5.94583">
        <ele>295.74</ele>
        <time>2014-03-19T13:06:34Z</time>
      </trkpt>
      <trkpt lat="45.55941" lon="5.94589">
        <ele>295.74</ele>
        <time>2014-03-19T13:06:35Z</time>
      </trkpt>
      <trkpt lat="45.55938" lon="5.94595">
        <ele>295.74</ele>
        <time>2014-03-19T13:06:36Z</time>
      </trkpt>
      <trkpt lat="45.55897" lon="5.94679">
        <ele>296.22</ele>
        <time>2014-03-19T13:06:50Z</time>
      </trkpt>
      <trkpt lat="45.55889" lon="5.94699">
        <ele>296.22</ele>
        <time>2014-03-19T13:06:53Z</time>
      </trkpt>
      <trkpt lat="45.55883" lon="5.9472">
        <ele>296.22</ele>
        <time>2014-03-19T13:06:56Z</time>
      </trkpt>
      <trkpt lat="45.55861" lon="5.94794">
        <ele>298.15</ele>
        <time>2014-03-19T13:07:08Z</time>
      </trkpt>
      <trkpt lat="45.55857" lon="5.94796">
        <ele>298.63</ele>
        <time>2014-03-19T13:07:09Z</time>
      </trkpt>
      <trkpt lat="45.55853" lon="5.94798">
        <ele>298.15</ele>
        <time>2014-03-19T13:07:10Z</time>
      </trkpt>
      <trkpt lat="45.55771" lon="5.94844">
        <ele>298.63</ele>
        <time>2014-03-19T13:07:29Z</time>
      </trkpt>
      <trkpt lat="45.55764" lon="5.94853">
        <ele>298.63</ele>
        <time>2014-03-19T13:07:32Z</time>
      </trkpt>
      <trkpt lat="45.55766" lon="5.94874">
        <ele>298.15</ele>
        <time>2014-03-19T13:07:36Z</time>
      </trkpt>
      <trkpt lat="45.55764" lon="5.94879">
        <ele>298.15</ele>
        <time>2014-03-19T13:07:37Z</time>
      </trkpt>
      <trkpt lat="45.55761" lon="5.94884">
        <ele>298.15</ele>
        <time>2014-03-19T13:07:38Z</time>
      </trkpt>
      <trkpt lat="45.55758" lon="5.94888">
        <ele>298.15</ele>
        <time>2014-03-19T13:07:39Z</time>
      </trkpt>
      <trkpt lat="45.55754" lon="5.94892">
        <ele>298.15</ele>
        <time>2014-03-19T13:07:40Z</time>
      </trkpt>
      <trkpt lat="45.5575" lon="5.94896">
        <ele>298.15</ele>
        <time>2014-03-19T13:07:41Z</time>
      </trkpt>
      <trkpt lat="45.55745" lon="5.94899">
        <ele>297.67</ele>
        <time>2014-03-19T13:07:42Z</time>
      </trkpt>
      <trkpt lat="45.55741" lon="5.94902">
        <ele>297.67</ele>
        <time>2014-03-19T13:07:43Z</time>
      </trkpt>
      <trkpt lat="45.55732" lon="5.94908">
        <ele>297.67</ele>
        <time>2014-03-19T13:07:45Z</time>
      </trkpt>
      <trkpt lat="45.55728" lon="5.94912">
        <ele>298.15</ele>
        <time>2014-03-19T13:07:46Z</time>
      </trkpt>
      <trkpt lat="45.55676" lon="5.94989">
        <ele>298.63</ele>
        <time>2014-03-19T13:08:01Z</time>
      </trkpt>
      <trkpt lat="45.55611" lon="5.95066">
        <ele>298.15</ele>
        <time>2014-03-19T13:08:16Z</time>
      </trkpt>
      <trkpt lat="45.55535" lon="5.95165">
        <ele>298.15</ele>
        <time>2014-03-19T13:08:33Z</time>
      </trkpt>
      <trkpt lat="45.55458" lon="5.95262">
        <ele>298.15</ele>
        <time>2014-03-19T13:08:50Z</time>
      </trkpt>
      <trkpt lat="45.55388" lon="5.95345">
        <ele>299.59</ele>
        <time>2014-03-19T13:09:06Z</time>
      </trkpt>
      <trkpt lat="45.55352" lon="5.95389">
        <ele>301.03</ele>
        <time>2014-03-19T13:09:17Z</time>
      </trkpt>
      <trkpt lat="45.5535" lon="5.95394">
        <ele>301.03</ele>
        <time>2014-03-19T13:09:18Z</time>
      </trkpt>
      <trkpt lat="45.5535" lon="5.954">
        <ele>301.03</ele>
        <time>2014-03-19T13:09:19Z</time>
      </trkpt>
      <trkpt lat="45.55351" lon="5.95406">
        <ele>301.03</ele>
        <time>2014-03-19T13:09:20Z</time>
      </trkpt>
      <trkpt lat="45.55353" lon="5.95412">
        <ele>301.03</ele>
        <time>2014-03-19T13:09:21Z</time>
      </trkpt>
      <trkpt lat="45.55356" lon="5.95417">
        <ele>300.07</ele>
        <time>2014-03-19T13:09:22Z</time>
      </trkpt>
      <trkpt lat="45.5536" lon="5.95421">
        <ele>299.59</ele>
        <time>2014-03-19T13:09:23Z</time>
      </trkpt>
      <trkpt lat="45.55364" lon="5.95425">
        <ele>300.55</ele>
        <time>2014-03-19T13:09:24Z</time>
      </trkpt>
      <trkpt lat="45.55375" lon="5.95433">
        <ele>300.55</ele>
        <time>2014-03-19T13:09:27Z</time>
      </trkpt>
      <trkpt lat="45.5538" lon="5.95431">
        <ele>299.59</ele>
        <time>2014-03-19T13:09:28Z</time>
      </trkpt>
      <trkpt lat="45.55383" lon="5.95427">
        <ele>299.11</ele>
        <time>2014-03-19T13:09:29Z</time>
      </trkpt>
      <trkpt lat="45.55386" lon="5.95421">
        <ele>298.63</ele>
        <time>2014-03-19T13:09:30Z</time>
      </trkpt>
      <trkpt lat="45.55389" lon="5.95415">
        <ele>298.63</ele>
        <time>2014-03-19T13:09:31Z</time>
      </trkpt>
      <trkpt lat="45.55393" lon="5.95411">
        <ele>298.63</ele>
        <time>2014-03-19T13:09:32Z</time>
      </trkpt>
      <trkpt lat="45.55397" lon="5.95411">
        <ele>298.63</ele>
        <time>2014-03-19T13:09:33Z</time>
      </trkpt>
      <trkpt lat="45.55402" lon="5.95412">
        <ele>298.63</ele>
        <time>2014-03-19T13:09:34Z</time>
      </trkpt>
      <trkpt lat="45.55406" lon="5.95415">
        <ele>298.63</ele>
        <time>2014-03-19T13:09:35Z</time>
      </trkpt>
      <trkpt lat="45.55416" lon="5.9542">
        <ele>298.63</ele>
        <time>2014-03-19T13:09:37Z</time>
      </trkpt>
      <trkpt lat="45.5542" lon="5.95424">
        <ele>299.11</ele>
        <time>2014-03-19T13:09:38Z</time>
      </trkpt>
      <trkpt lat="45.55425" lon="5.95426">
        <ele>299.11</ele>
        <time>2014-03-19T13:09:39Z</time>
      </trkpt>
      <trkpt lat="45.5543" lon="5.95427">
        <ele>298.63</ele>
        <time>2014-03-19T13:09:40Z</time>
      </trkpt>
      <trkpt lat="45.55434" lon="5.95426">
        <ele>298.15</ele>
        <time>2014-03-19T13:09:41Z</time>
      </trkpt>
      <trkpt lat="45.55439" lon="5.95424">
        <ele>298.63</ele>
        <time>2014-03-19T13:09:42Z</time>
      </trkpt>
      <trkpt lat="45.55444" lon="5.95421">
        <ele>298.63</ele>
        <time>2014-03-19T13:09:43Z</time>
      </trkpt>
      <trkpt lat="45.55448" lon="5.95418">
        <ele>299.11</ele>
        <time>2014-03-19T13:09:44Z</time>
      </trkpt>
      <trkpt lat="45.5546" lon="5.95406">
        <ele>299.11</ele>
        <time>2014-03-19T13:09:47Z</time>
      </trkpt>
      <trkpt lat="45.55463" lon="5.954">
        <ele>298.15</ele>
        <time>2014-03-19T13:09:48Z</time>
      </trkpt>
      <trkpt lat="45.55466" lon="5.95394">
        <ele>298.15</ele>
        <time>2014-03-19T13:09:49Z</time>
      </trkpt>
      <trkpt lat="45.55468" lon="5.95387">
        <ele>298.15</ele>
        <time>2014-03-19T13:09:50Z</time>
      </trkpt>
      <trkpt lat="45.55471" lon="5.95381">
        <ele>297.18</ele>
        <time>2014-03-19T13:09:51Z</time>
      </trkpt>
      <trkpt lat="45.55473" lon="5.95375">
        <ele>297.67</ele>
        <time>2014-03-19T13:09:52Z</time>
      </trkpt>
      <trkpt lat="45.55477" lon="5.95371">
        <ele>297.67</ele>
        <time>2014-03-19T13:09:53Z</time>
      </trkpt>
      <trkpt lat="45.55482" lon="5.95372">
        <ele>297.18</ele>
        <time>2014-03-19T13:09:54Z</time>
      </trkpt>
      <trkpt lat="45.55486" lon="5.95375">
        <ele>297.67</ele>
        <time>2014-03-19T13:09:55Z</time>
      </trkpt>
      <trkpt lat="45.5549" lon="5.9538">
        <ele>297.67</ele>
        <time>2014-03-19T13:09:56Z</time>
      </trkpt>
      <trkpt lat="45.55492" lon="5.95386">
        <ele>297.18</ele>
        <time>2014-03-19T13:09:57Z</time>
      </trkpt>
      <trkpt lat="45.55495" lon="5.95391">
        <ele>298.15</ele>
        <time>2014-03-19T13:09:58Z</time>
      </trkpt>
      <trkpt lat="45.55523" lon="5.95451">
        <ele>299.59</ele>
        <time>2014-03-19T13:10:08Z</time>
      </trkpt>
      <trkpt lat="45.55553" lon="5.95509">
        <ele>301.51</ele>
        <time>2014-03-19T13:10:21Z</time>
      </trkpt>
      <trkpt lat="45.5561" lon="5.95594">
        <ele>302.47</ele>
        <time>2014-03-19T13:10:39Z</time>
      </trkpt>
      <trkpt lat="45.55682" lon="5.95673">
        <ele>302.95</ele>
        <time>2014-03-19T13:10:58Z</time>
      </trkpt>
      <trkpt lat="45.55729" lon="5.95726">
        <ele>304.88</ele>
        <time>2014-03-19T13:11:14Z</time>
      </trkpt>
      <trkpt lat="45.55784" lon="5.95787">
        <ele>304.39</ele>
        <time>2014-03-19T13:11:30Z</time>
      </trkpt>
      <trkpt lat="45.55804" lon="5.9581">
        <ele>302.95</ele>
        <time>2014-03-19T13:11:40Z</time>
      </trkpt>
      <trkpt lat="45.55804" lon="5.9581">
        <ele>303.43</ele>
        <time>2014-03-19T13:12:02Z</time>
      </trkpt>
      <trkpt lat="45.55807" lon="5.95814">
        <ele>302.95</ele>
        <time>2014-03-19T13:12:35Z</time>
      </trkpt>
      <trkpt lat="45.55828" lon="5.95844">
        <ele>302.47</ele>
        <time>2014-03-19T13:12:43Z</time>
      </trkpt>
      <trkpt lat="45.55909" lon="5.95927">
        <ele>301.99</ele>
        <time>2014-03-19T13:13:04Z</time>
      </trkpt>
      <trkpt lat="45.55985" lon="5.95986">
        <ele>303.43</ele>
        <time>2014-03-19T13:13:22Z</time>
      </trkpt>
      <trkpt lat="45.56004" lon="5.96004">
        <ele>302.95</ele>
        <time>2014-03-19T13:13:27Z</time>
      </trkpt>
      <trkpt lat="45.56009" lon="5.96006">
        <ele>302.95</ele>
        <time>2014-03-19T13:13:28Z</time>
      </trkpt>
      <trkpt lat="45.56013" lon="5.96008">
        <ele>302.95</ele>
        <time>2014-03-19T13:13:29Z</time>
      </trkpt>
      <trkpt lat="45.56022" lon="5.96011">
        <ele>303.43</ele>
        <time>2014-03-19T13:13:31Z</time>
      </trkpt>
      <trkpt lat="45.56026" lon="5.96015">
        <ele>303.43</ele>
        <time>2014-03-19T13:13:32Z</time>
      </trkpt>
      <trkpt lat="45.5603" lon="5.96018">
        <ele>302.95</ele>
        <time>2014-03-19T13:13:33Z</time>
      </trkpt>
      <trkpt lat="45.56047" lon="5.96031">
        <ele>302.95</ele>
        <time>2014-03-19T13:13:37Z</time>
      </trkpt>
      <trkpt lat="45.56051" lon="5.96036">
        <ele>302.95</ele>
        <time>2014-03-19T13:13:38Z</time>
      </trkpt>
      <trkpt lat="45.56054" lon="5.96041">
        <ele>303.43</ele>
        <time>2014-03-19T13:13:39Z</time>
      </trkpt>
      <trkpt lat="45.56057" lon="5.96046">
        <ele>302.47</ele>
        <time>2014-03-19T13:13:40Z</time>
      </trkpt>
      <trkpt lat="45.56062" lon="5.96049">
        <ele>303.43</ele>
        <time>2014-03-19T13:13:41Z</time>
      </trkpt>
      <trkpt lat="45.56066" lon="5.96052">
        <ele>303.91</ele>
        <time>2014-03-19T13:13:42Z</time>
      </trkpt>
      <trkpt lat="45.5607" lon="5.96055">
        <ele>303.43</ele>
        <time>2014-03-19T13:13:43Z</time>
      </trkpt>
      <trkpt lat="45.56075" lon="5.96058">
        <ele>303.43</ele>
        <time>2014-03-19T13:13:44Z</time>
      </trkpt>
      <trkpt lat="45.5608" lon="5.9606">
        <ele>303.43</ele>
        <time>2014-03-19T13:13:45Z</time>
      </trkpt>
      <trkpt lat="45.56086" lon="5.96063">
        <ele>302.95</ele>
        <time>2014-03-19T13:13:46Z</time>
      </trkpt>
      <trkpt lat="45.56178" lon="5.96132">
        <ele>304.88</ele>
        <time>2014-03-19T13:14:06Z</time>
      </trkpt>
      <trkpt lat="45.56181" lon="5.96137">
        <ele>304.88</ele>
        <time>2014-03-19T13:14:07Z</time>
      </trkpt>
      <trkpt lat="45.56183" lon="5.96143">
        <ele>304.88</ele>
        <time>2014-03-19T13:14:08Z</time>
      </trkpt>
      <trkpt lat="45.56184" lon="5.96149">
        <ele>305.36</ele>
        <time>2014-03-19T13:14:09Z</time>
      </trkpt>
      <trkpt lat="45.56184" lon="5.96159">
        <ele>304.88</ele>
        <time>2014-03-19T13:14:11Z</time>
      </trkpt>
      <trkpt lat="45.56187" lon="5.96163">
        <ele>304.88</ele>
        <time>2014-03-19T13:14:12Z</time>
      </trkpt>
      <trkpt lat="45.5619" lon="5.96165">
        <ele>304.88</ele>
        <time>2014-03-19T13:14:13Z</time>
      </trkpt>
      <trkpt lat="45.56194" lon="5.96164">
        <ele>304.88</ele>
        <time>2014-03-19T13:14:14Z</time>
      </trkpt>
      <trkpt lat="45.56198" lon="5.96163">
        <ele>305.36</ele>
        <time>2014-03-19T13:14:15Z</time>
      </trkpt>
      <trkpt lat="45.56202" lon="5.96164">
        <ele>304.88</ele>
        <time>2014-03-19T13:14:16Z</time>
      </trkpt>
      <trkpt lat="45.56206" lon="5.96166">
        <ele>304.88</ele>
        <time>2014-03-19T13:14:17Z</time>
      </trkpt>
      <trkpt lat="45.5621" lon="5.9617">
        <ele>305.36</ele>
        <time>2014-03-19T13:14:18Z</time>
      </trkpt>
      <trkpt lat="45.56213" lon="5.96174">
        <ele>305.36</ele>
        <time>2014-03-19T13:14:19Z</time>
      </trkpt>
      <trkpt lat="45.56217" lon="5.9618">
        <ele>304.88</ele>
        <time>2014-03-19T13:14:20Z</time>
      </trkpt>
      <trkpt lat="45.56244" lon="5.96227">
        <ele>305.36</ele>
        <time>2014-03-19T13:14:29Z</time>
      </trkpt>
      <trkpt lat="45.56247" lon="5.96234">
        <ele>305.84</ele>
        <time>2014-03-19T13:14:30Z</time>
      </trkpt>
      <trkpt lat="45.56289" lon="5.96337">
        <ele>306.8</ele>
        <time>2014-03-19T13:14:47Z</time>
      </trkpt>
      <trkpt lat="45.56335" lon="5.96436">
        <ele>307.76</ele>
        <time>2014-03-19T13:15:04Z</time>
      </trkpt>
      <trkpt lat="45.56337" lon="5.96441">
        <ele>308.24</ele>
        <time>2014-03-19T13:15:05Z</time>
      </trkpt>
      <trkpt lat="45.56339" lon="5.96447">
        <ele>307.76</ele>
        <time>2014-03-19T13:15:06Z</time>
      </trkpt>
      <trkpt lat="45.56339" lon="5.96453">
        <ele>306.8</ele>
        <time>2014-03-19T13:15:07Z</time>
      </trkpt>
      <trkpt lat="45.56341" lon="5.96459">
        <ele>307.28</ele>
        <time>2014-03-19T13:15:08Z</time>
      </trkpt>
      <trkpt lat="45.56343" lon="5.96464">
        <ele>307.28</ele>
        <time>2014-03-19T13:15:09Z</time>
      </trkpt>
      <trkpt lat="45.56347" lon="5.96469">
        <ele>307.76</ele>
        <time>2014-03-19T13:15:10Z</time>
      </trkpt>
      <trkpt lat="45.5635" lon="5.96472">
        <ele>307.76</ele>
        <time>2014-03-19T13:15:11Z</time>
      </trkpt>
      <trkpt lat="45.56355" lon="5.96474">
        <ele>307.76</ele>
        <time>2014-03-19T13:15:12Z</time>
      </trkpt>
      <trkpt lat="45.56359" lon="5.96474">
        <ele>307.76</ele>
        <time>2014-03-19T13:15:13Z</time>
      </trkpt>
      <trkpt lat="45.56364" lon="5.96475">
        <ele>307.28</ele>
        <time>2014-03-19T13:15:14Z</time>
      </trkpt>
      <trkpt lat="45.56369" lon="5.96476">
        <ele>307.28</ele>
        <time>2014-03-19T13:15:15Z</time>
      </trkpt>
      <trkpt lat="45.56373" lon="5.96478">
        <ele>306.8</ele>
        <time>2014-03-19T13:15:16Z</time>
      </trkpt>
      <trkpt lat="45.56377" lon="5.9648">
        <ele>307.28</ele>
        <time>2014-03-19T13:15:17Z</time>
      </trkpt>
      <trkpt lat="45.5644" lon="5.96559">
        <ele>307.76</ele>
        <time>2014-03-19T13:15:35Z</time>
      </trkpt>
      <trkpt lat="45.56486" lon="5.96661">
        <ele>308.72</ele>
        <time>2014-03-19T13:15:54Z</time>
      </trkpt>
      <trkpt lat="45.56496" lon="5.96685">
        <ele>309.2</ele>
        <time>2014-03-19T13:16:05Z</time>
      </trkpt>
      <trkpt lat="45.56496" lon="5.96685">
        <ele>308.72</ele>
        <time>2014-03-19T13:16:40Z</time>
      </trkpt>
      <trkpt lat="45.56503" lon="5.967">
        <ele>309.2</ele>
        <time>2014-03-19T13:17:03Z</time>
      </trkpt>
      <trkpt lat="45.56541" lon="5.96776">
        <ele>308.72</ele>
        <time>2014-03-19T13:17:17Z</time>
      </trkpt>
      <trkpt lat="45.56597" lon="5.96892">
        <ele>312.09</ele>
        <time>2014-03-19T13:17:38Z</time>
      </trkpt>
      <trkpt lat="45.56646" lon="5.9699">
        <ele>312.09</ele>
        <time>2014-03-19T13:17:56Z</time>
      </trkpt>
      <trkpt lat="45.56699" lon="5.97102">
        <ele>313.05</ele>
        <time>2014-03-19T13:18:17Z</time>
      </trkpt>
      <trkpt lat="45.56752" lon="5.9721">
        <ele>314.49</ele>
        <time>2014-03-19T13:18:37Z</time>
      </trkpt>
      <trkpt lat="45.56802" lon="5.97315">
        <ele>314.97</ele>
        <time>2014-03-19T13:18:56Z</time>
      </trkpt>
      <trkpt lat="45.56858" lon="5.97431">
        <ele>316.41</ele>
        <time>2014-03-19T13:19:17Z</time>
      </trkpt>
      <trkpt lat="45.56915" lon="5.97546">
        <ele>317.37</ele>
        <time>2014-03-19T13:19:38Z</time>
      </trkpt>
      <trkpt lat="45.56933" lon="5.97585">
        <ele>317.37</ele>
        <time>2014-03-19T13:19:45Z</time>
      </trkpt>
      <trkpt lat="45.56934" lon="5.97591">
        <ele>317.37</ele>
        <time>2014-03-19T13:19:46Z</time>
      </trkpt>
      <trkpt lat="45.56936" lon="5.97598">
        <ele>316.89</ele>
        <time>2014-03-19T13:19:47Z</time>
      </trkpt>
      <trkpt lat="45.56937" lon="5.97605">
        <ele>316.89</ele>
        <time>2014-03-19T13:19:48Z</time>
      </trkpt>
      <trkpt lat="45.56939" lon="5.9761">
        <ele>316.89</ele>
        <time>2014-03-19T13:19:49Z</time>
      </trkpt>
      <trkpt lat="45.56942" lon="5.97614">
        <ele>316.41</ele>
        <time>2014-03-19T13:19:50Z</time>
      </trkpt>
      <trkpt lat="45.56946" lon="5.97618">
        <ele>317.37</ele>
        <time>2014-03-19T13:19:51Z</time>
      </trkpt>
      <trkpt lat="45.5695" lon="5.97622">
        <ele>316.41</ele>
        <time>2014-03-19T13:19:52Z</time>
      </trkpt>
      <trkpt lat="45.56969" lon="5.97656">
        <ele>316.41</ele>
        <time>2014-03-19T13:19:58Z</time>
      </trkpt>
      <trkpt lat="45.57029" lon="5.97777">
        <ele>317.37</ele>
        <time>2014-03-19T13:20:18Z</time>
      </trkpt>
      <trkpt lat="45.57031" lon="5.97783">
        <ele>317.37</ele>
        <time>2014-03-19T13:20:19Z</time>
      </trkpt>
      <trkpt lat="45.57032" lon="5.9779">
        <ele>317.37</ele>
        <time>2014-03-19T13:20:20Z</time>
      </trkpt>
      <trkpt lat="45.57032" lon="5.97797">
        <ele>317.37</ele>
        <time>2014-03-19T13:20:21Z</time>
      </trkpt>
      <trkpt lat="45.57031" lon="5.97804">
        <ele>317.37</ele>
        <time>2014-03-19T13:20:22Z</time>
      </trkpt>
      <trkpt lat="45.57028" lon="5.97811">
        <ele>316.89</ele>
        <time>2014-03-19T13:20:23Z</time>
      </trkpt>
      <trkpt lat="45.57026" lon="5.97817">
        <ele>316.41</ele>
        <time>2014-03-19T13:20:24Z</time>
      </trkpt>
      <trkpt lat="45.57023" lon="5.97823">
        <ele>316.89</ele>
        <time>2014-03-19T13:20:25Z</time>
      </trkpt>
      <trkpt lat="45.5698" lon="5.97895">
        <ele>315.93</ele>
        <time>2014-03-19T13:20:37Z</time>
      </trkpt>
      <trkpt lat="45.56968" lon="5.97913">
        <ele>315.93</ele>
        <time>2014-03-19T13:20:40Z</time>
      </trkpt>
      <trkpt lat="45.56948" lon="5.9794">
        <ele>315.93</ele>
        <time>2014-03-19T13:20:45Z</time>
      </trkpt>
      <trkpt lat="45.56945" lon="5.97947">
        <ele>315.93</ele>
        <time>2014-03-19T13:20:46Z</time>
      </trkpt>
      <trkpt lat="45.56944" lon="5.97955">
        <ele>316.41</ele>
        <time>2014-03-19T13:20:47Z</time>
      </trkpt>
      <trkpt lat="45.56945" lon="5.97963">
        <ele>315.93</ele>
        <time>2014-03-19T13:20:48Z</time>
      </trkpt>
      <trkpt lat="45.56947" lon="5.97971">
        <ele>315.93</ele>
        <time>2014-03-19T13:20:49Z</time>
      </trkpt>
      <trkpt lat="45.56949" lon="5.97978">
        <ele>315.45</ele>
        <time>2014-03-19T13:20:50Z</time>
      </trkpt>
      <trkpt lat="45.56952" lon="5.97985">
        <ele>315.45</ele>
        <time>2014-03-19T13:20:51Z</time>
      </trkpt>
      <trkpt lat="45.56991" lon="5.98104">
        <ele>315.93</ele>
        <time>2014-03-19T13:21:09Z</time>
      </trkpt>
      <trkpt lat="45.57012" lon="5.98176">
        <ele>316.41</ele>
        <time>2014-03-19T13:21:20Z</time>
      </trkpt>
      <trkpt lat="45.57012" lon="5.98182">
        <ele>316.41</ele>
        <time>2014-03-19T13:21:21Z</time>
      </trkpt>
      <trkpt lat="45.57011" lon="5.98189">
        <ele>316.41</ele>
        <time>2014-03-19T13:21:22Z</time>
      </trkpt>
      <trkpt lat="45.5701" lon="5.98195">
        <ele>316.89</ele>
        <time>2014-03-19T13:21:23Z</time>
      </trkpt>
      <trkpt lat="45.5701" lon="5.98202">
        <ele>315.93</ele>
        <time>2014-03-19T13:21:24Z</time>
      </trkpt>
      <trkpt lat="45.5701" lon="5.98208">
        <ele>316.41</ele>
        <time>2014-03-19T13:21:25Z</time>
      </trkpt>
      <trkpt lat="45.5701" lon="5.98214">
        <ele>316.41</ele>
        <time>2014-03-19T13:21:26Z</time>
      </trkpt>
      <trkpt lat="45.57011" lon="5.9822">
        <ele>316.89</ele>
        <time>2014-03-19T13:21:27Z</time>
      </trkpt>
      <trkpt lat="45.57011" lon="5.98226">
        <ele>316.89</ele>
        <time>2014-03-19T13:21:28Z</time>
      </trkpt>
      <trkpt lat="45.57" lon="5.98279">
        <ele>319.3</ele>
        <time>2014-03-19T13:21:41Z</time>
      </trkpt>
      <trkpt lat="45.56985" lon="5.98313">
        <ele>322.18</ele>
        <time>2014-03-19T13:21:54Z</time>
      </trkpt>
      <trkpt lat="45.56976" lon="5.98325">
        <ele>324.1</ele>
        <time>2014-03-19T13:22:08Z</time>
      </trkpt>
      <trkpt lat="45.56976" lon="5.98325">
        <ele>323.62</ele>
        <time>2014-03-19T13:22:38Z</time>
      </trkpt>
      <trkpt lat="45.56975" lon="5.98325">
        <ele>322.66</ele>
        <time>2014-03-19T13:23:12Z</time>
      </trkpt>
      <trkpt lat="45.56975" lon="5.98325">
        <ele>322.66</ele>
        <time>2014-03-19T13:23:48Z</time>
      </trkpt>
      <trkpt lat="45.56975" lon="5.98329">
        <ele>323.14</ele>
        <time>2014-03-19T13:23:52Z</time>
      </trkpt>
      <trkpt lat="45.56974" lon="5.98336">
        <ele>323.14</ele>
        <time>2014-03-19T13:23:55Z</time>
      </trkpt>
      <trkpt lat="45.56975" lon="5.98338">
        <ele>323.14</ele>
        <time>2014-03-19T13:23:56Z</time>
      </trkpt>
      <trkpt lat="45.56976" lon="5.9834">
        <ele>323.14</ele>
        <time>2014-03-19T13:23:57Z</time>
      </trkpt>
      <trkpt lat="45.56977" lon="5.98343">
        <ele>323.14</ele>
        <time>2014-03-19T13:23:58Z</time>
      </trkpt>
      <trkpt lat="45.56979" lon="5.98345">
        <ele>323.62</ele>
        <time>2014-03-19T13:23:59Z</time>
      </trkpt>
      <trkpt lat="45.56981" lon="5.98346">
        <ele>323.14</ele>
        <time>2014-03-19T13:24:00Z</time>
      </trkpt>
      <trkpt lat="45.56982" lon="5.98348">
        <ele>324.1</ele>
        <time>2014-03-19T13:24:01Z</time>
      </trkpt>
      <trkpt lat="45.56984" lon="5.98348">
        <ele>324.58</ele>
        <time>2014-03-19T13:24:02Z</time>
      </trkpt>
      <trkpt lat="45.57013" lon="5.98352">
        <ele>326.5</ele>
        <time>2014-03-19T13:24:17Z</time>
      </trkpt>
      <trkpt lat="45.57032" lon="5.98348">
        <ele>330.35</ele>
        <time>2014-03-19T13:24:27Z</time>
      </trkpt>
      <trkpt lat="45.57059" lon="5.98338">
        <ele>333.23</ele>
        <time>2014-03-19T13:24:42Z</time>
      </trkpt>
      <trkpt lat="45.57079" lon="5.98335">
        <ele>336.12</ele>
        <time>2014-03-19T13:24:54Z</time>
      </trkpt>
      <trkpt lat="45.57106" lon="5.98338">
        <ele>339.48</ele>
        <time>2014-03-19T13:25:08Z</time>
      </trkpt>
      <trkpt lat="45.57135" lon="5.98353">
        <ele>342.37</ele>
        <time>2014-03-19T13:25:25Z</time>
      </trkpt>
      <trkpt lat="45.57151" lon="5.9836">
        <ele>344.77</ele>
        <time>2014-03-19T13:25:34Z</time>
      </trkpt>
      <trkpt lat="45.57175" lon="5.98368">
        <ele>347.65</ele>
        <time>2014-03-19T13:25:48Z</time>
      </trkpt>
      <trkpt lat="45.57194" lon="5.98379">
        <ele>351.02</ele>
        <time>2014-03-19T13:25:59Z</time>
      </trkpt>
      <trkpt lat="45.57205" lon="5.98376">
        <ele>351.98</ele>
        <time>2014-03-19T13:26:06Z</time>
      </trkpt>
      <trkpt lat="45.57207" lon="5.98374">
        <ele>352.46</ele>
        <time>2014-03-19T13:26:07Z</time>
      </trkpt>
      <trkpt lat="45.57207" lon="5.98372">
        <ele>352.94</ele>
        <time>2014-03-19T13:26:08Z</time>
      </trkpt>
      <trkpt lat="45.57208" lon="5.98369">
        <ele>352.46</ele>
        <time>2014-03-19T13:26:09Z</time>
      </trkpt>
      <trkpt lat="45.57208" lon="5.98365">
        <ele>352.94</ele>
        <time>2014-03-19T13:26:10Z</time>
      </trkpt>
      <trkpt lat="45.57219" lon="5.98341">
        <ele>356.31</ele>
        <time>2014-03-19T13:26:23Z</time>
      </trkpt>
      <trkpt lat="45.57242" lon="5.98344">
        <ele>359.19</ele>
        <time>2014-03-19T13:26:35Z</time>
      </trkpt>
      <trkpt lat="45.57266" lon="5.98332">
        <ele>362.07</ele>
        <time>2014-03-19T13:26:48Z</time>
      </trkpt>
      <trkpt lat="45.57288" lon="5.98329">
        <ele>364.96</ele>
        <time>2014-03-19T13:27:02Z</time>
      </trkpt>
      <trkpt lat="45.57296" lon="5.98363">
        <ele>368.32</ele>
        <time>2014-03-19T13:27:16Z</time>
      </trkpt>
      <trkpt lat="45.57295" lon="5.98367">
        <ele>367.84</ele>
        <time>2014-03-19T13:27:18Z</time>
      </trkpt>
      <trkpt lat="45.5727" lon="5.98381">
        <ele>371.21</ele>
        <time>2014-03-19T13:27:31Z</time>
      </trkpt>
      <trkpt lat="45.5724" lon="5.98403">
        <ele>374.09</ele>
        <time>2014-03-19T13:27:48Z</time>
      </trkpt>
      <trkpt lat="45.57258" lon="5.98415">
        <ele>376.01</ele>
        <time>2014-03-19T13:27:59Z</time>
      </trkpt>
      <trkpt lat="45.57287" lon="5.98418">
        <ele>378.9</ele>
        <time>2014-03-19T13:28:14Z</time>
      </trkpt>
      <trkpt lat="45.57314" lon="5.98422">
        <ele>382.26</ele>
        <time>2014-03-19T13:28:29Z</time>
      </trkpt>
      <trkpt lat="45.5734" lon="5.98418">
        <ele>385.15</ele>
        <time>2014-03-19T13:28:43Z</time>
      </trkpt>
      <trkpt lat="45.57364" lon="5.98404">
        <ele>387.55</ele>
        <time>2014-03-19T13:28:58Z</time>
      </trkpt>
      <trkpt lat="45.57389" lon="5.98416">
        <ele>390.91</ele>
        <time>2014-03-19T13:29:12Z</time>
      </trkpt>
      <trkpt lat="45.57417" lon="5.98432">
        <ele>393.8</ele>
        <time>2014-03-19T13:29:28Z</time>
      </trkpt>
      <trkpt lat="45.57436" lon="5.98442">
        <ele>395.72</ele>
        <time>2014-03-19T13:29:39Z</time>
      </trkpt>
      <trkpt lat="45.57438" lon="5.98442">
        <ele>395.72</ele>
        <time>2014-03-19T13:29:40Z</time>
      </trkpt>
      <trkpt lat="45.57441" lon="5.98441">
        <ele>395.72</ele>
        <time>2014-03-19T13:29:41Z</time>
      </trkpt>
      <trkpt lat="45.57443" lon="5.98441">
        <ele>396.2</ele>
        <time>2014-03-19T13:29:42Z</time>
      </trkpt>
      <trkpt lat="45.57444" lon="5.98441">
        <ele>396.2</ele>
        <time>2014-03-19T13:29:43Z</time>
      </trkpt>
      <trkpt lat="45.57447" lon="5.98442">
        <ele>396.68</ele>
        <time>2014-03-19T13:29:44Z</time>
      </trkpt>
      <trkpt lat="45.5747" lon="5.9844">
        <ele>399.08</ele>
        <time>2014-03-19T13:29:56Z</time>
      </trkpt>
      <trkpt lat="45.57494" lon="5.98438">
        <ele>400.53</ele>
        <time>2014-03-19T13:30:09Z</time>
      </trkpt>
      <trkpt lat="45.57519" lon="5.98432">
        <ele>404.85</ele>
        <time>2014-03-19T13:30:23Z</time>
      </trkpt>
      <trkpt lat="45.57521" lon="5.98431">
        <ele>404.85</ele>
        <time>2014-03-19T13:30:24Z</time>
      </trkpt>
      <trkpt lat="45.57543" lon="5.9841">
        <ele>407.26</ele>
        <time>2014-03-19T13:30:38Z</time>
      </trkpt>
      <trkpt lat="45.57563" lon="5.98392">
        <ele>410.14</ele>
        <time>2014-03-19T13:30:51Z</time>
      </trkpt>
      <trkpt lat="45.57598" lon="5.98375">
        <ele>412.06</ele>
        <time>2014-03-19T13:31:07Z</time>
      </trkpt>
      <trkpt lat="45.57631" lon="5.98342">
        <ele>413.02</ele>
        <time>2014-03-19T13:31:23Z</time>
      </trkpt>
      <trkpt lat="45.57656" lon="5.98307">
        <ele>415.43</ele>
        <time>2014-03-19T13:31:38Z</time>
      </trkpt>
      <trkpt lat="45.57658" lon="5.98306">
        <ele>415.43</ele>
        <time>2014-03-19T13:31:39Z</time>
      </trkpt>
      <trkpt lat="45.5766" lon="5.98306">
        <ele>415.43</ele>
        <time>2014-03-19T13:31:40Z</time>
      </trkpt>
      <trkpt lat="45.57662" lon="5.98305">
        <ele>415.91</ele>
        <time>2014-03-19T13:31:41Z</time>
      </trkpt>
      <trkpt lat="45.57665" lon="5.98304">
        <ele>416.39</ele>
        <time>2014-03-19T13:31:42Z</time>
      </trkpt>
      <trkpt lat="45.57666" lon="5.98302">
        <ele>415.91</ele>
        <time>2014-03-19T13:31:43Z</time>
      </trkpt>
      <trkpt lat="45.57668" lon="5.98299">
        <ele>415.91</ele>
        <time>2014-03-19T13:31:44Z</time>
      </trkpt>
      <trkpt lat="45.57681" lon="5.98274">
        <ele>418.79</ele>
        <time>2014-03-19T13:31:53Z</time>
      </trkpt>
      <trkpt lat="45.57704" lon="5.98238">
        <ele>421.19</ele>
        <time>2014-03-19T13:32:10Z</time>
      </trkpt>
      <trkpt lat="45.57706" lon="5.9824">
        <ele>421.68</ele>
        <time>2014-03-19T13:32:11Z</time>
      </trkpt>
      <trkpt lat="45.57708" lon="5.98243">
        <ele>421.68</ele>
        <time>2014-03-19T13:32:12Z</time>
      </trkpt>
      <trkpt lat="45.57709" lon="5.98246">
        <ele>421.68</ele>
        <time>2014-03-19T13:32:13Z</time>
      </trkpt>
      <trkpt lat="45.5771" lon="5.98249">
        <ele>421.68</ele>
        <time>2014-03-19T13:32:14Z</time>
      </trkpt>
      <trkpt lat="45.57709" lon="5.98252">
        <ele>421.68</ele>
        <time>2014-03-19T13:32:15Z</time>
      </trkpt>
      <trkpt lat="45.57709" lon="5.98256">
        <ele>422.16</ele>
        <time>2014-03-19T13:32:16Z</time>
      </trkpt>
      <trkpt lat="45.57713" lon="5.98297">
        <ele>425.04</ele>
        <time>2014-03-19T13:32:30Z</time>
      </trkpt>
      <trkpt lat="45.57715" lon="5.98329">
        <ele>428.4</ele>
        <time>2014-03-19T13:32:42Z</time>
      </trkpt>
      <trkpt lat="45.5772" lon="5.98365">
        <ele>431.29</ele>
        <time>2014-03-19T13:32:56Z</time>
      </trkpt>
      <trkpt lat="45.5774" lon="5.984">
        <ele>434.65</ele>
        <time>2014-03-19T13:33:13Z</time>
      </trkpt>
      <trkpt lat="45.57758" lon="5.98435">
        <ele>437.54</ele>
        <time>2014-03-19T13:33:30Z</time>
      </trkpt>
      <trkpt lat="45.57755" lon="5.98472">
        <ele>440.9</ele>
        <time>2014-03-19T13:33:45Z</time>
      </trkpt>
      <trkpt lat="45.57753" lon="5.98474">
        <ele>441.38</ele>
        <time>2014-03-19T13:33:46Z</time>
      </trkpt>
      <trkpt lat="45.57735" lon="5.98511">
        <ele>444.27</ele>
        <time>2014-03-19T13:34:03Z</time>
      </trkpt>
      <trkpt lat="45.57734" lon="5.98515">
        <ele>445.23</ele>
        <time>2014-03-19T13:34:05Z</time>
      </trkpt>
      <trkpt lat="45.57735" lon="5.98555">
        <ele>447.15</ele>
        <time>2014-03-19T13:34:21Z</time>
      </trkpt>
      <trkpt lat="45.57763" lon="5.9855">
        <ele>450.52</ele>
        <time>2014-03-19T13:34:35Z</time>
      </trkpt>
      <trkpt lat="45.57791" lon="5.98554">
        <ele>452.44</ele>
        <time>2014-03-19T13:34:50Z</time>
      </trkpt>
      <trkpt lat="45.57807" lon="5.98588">
        <ele>455.32</ele>
        <time>2014-03-19T13:35:05Z</time>
      </trkpt>
      <trkpt lat="45.57785" lon="5.98623">
        <ele>457.24</ele>
        <time>2014-03-19T13:35:21Z</time>
      </trkpt>
      <trkpt lat="45.57756" lon="5.9863">
        <ele>459.65</ele>
        <time>2014-03-19T13:35:36Z</time>
      </trkpt>
      <trkpt lat="45.57726" lon="5.9865">
        <ele>463.01</ele>
        <time>2014-03-19T13:35:52Z</time>
      </trkpt>
      <trkpt lat="45.577" lon="5.98688">
        <ele>464.93</ele>
        <time>2014-03-19T13:36:08Z</time>
      </trkpt>
      <trkpt lat="45.57679" lon="5.9873">
        <ele>467.82</ele>
        <time>2014-03-19T13:36:24Z</time>
      </trkpt>
      <trkpt lat="45.57657" lon="5.98769">
        <ele>469.74</ele>
        <time>2014-03-19T13:36:41Z</time>
      </trkpt>
      <trkpt lat="45.57625" lon="5.98787">
        <ele>472.63</ele>
        <time>2014-03-19T13:36:57Z</time>
      </trkpt>
      <trkpt lat="45.57588" lon="5.98797">
        <ele>475.03</ele>
        <time>2014-03-19T13:37:14Z</time>
      </trkpt>
      <trkpt lat="45.57555" lon="5.98807">
        <ele>477.91</ele>
        <time>2014-03-19T13:37:29Z</time>
      </trkpt>
      <trkpt lat="45.5753" lon="5.98826">
        <ele>481.28</ele>
        <time>2014-03-19T13:37:43Z</time>
      </trkpt>
      <trkpt lat="45.57493" lon="5.98845">
        <ele>483.68</ele>
        <time>2014-03-19T13:38:01Z</time>
      </trkpt>
      <trkpt lat="45.57453" lon="5.98844">
        <ele>486.56</ele>
        <time>2014-03-19T13:38:19Z</time>
      </trkpt>
      <trkpt lat="45.57439" lon="5.98872">
        <ele>488.01</ele>
        <time>2014-03-19T13:38:31Z</time>
      </trkpt>
      <trkpt lat="45.57463" lon="5.98898">
        <ele>490.89</ele>
        <time>2014-03-19T13:38:44Z</time>
      </trkpt>
      <trkpt lat="45.57497" lon="5.98924">
        <ele>493.29</ele>
        <time>2014-03-19T13:39:01Z</time>
      </trkpt>
      <trkpt lat="45.57525" lon="5.98948">
        <ele>494.74</ele>
        <time>2014-03-19T13:39:15Z</time>
      </trkpt>
      <trkpt lat="45.57546" lon="5.98969">
        <ele>497.62</ele>
        <time>2014-03-19T13:39:25Z</time>
      </trkpt>
      <trkpt lat="45.57568" lon="5.99014">
        <ele>500.02</ele>
        <time>2014-03-19T13:39:42Z</time>
      </trkpt>
      <trkpt lat="45.57587" lon="5.99058">
        <ele>503.39</ele>
        <time>2014-03-19T13:39:58Z</time>
      </trkpt>
      <trkpt lat="45.57604" lon="5.99106">
        <ele>506.27</ele>
        <time>2014-03-19T13:40:15Z</time>
      </trkpt>
      <trkpt lat="45.57613" lon="5.99141">
        <ele>508.19</ele>
        <time>2014-03-19T13:40:28Z</time>
      </trkpt>
      <trkpt lat="45.57613" lon="5.99145">
        <ele>508.19</ele>
        <time>2014-03-19T13:40:30Z</time>
      </trkpt>
      <trkpt lat="45.57613" lon="5.99146">
        <ele>507.71</ele>
        <time>2014-03-19T13:40:46Z</time>
      </trkpt>
      <trkpt lat="45.57613" lon="5.99145">
        <ele>508.67</ele>
        <time>2014-03-19T13:41:15Z</time>
      </trkpt>
      <trkpt lat="45.57612" lon="5.99145">
        <ele>508.67</ele>
        <time>2014-03-19T13:41:31Z</time>
      </trkpt>
      <trkpt lat="45.57599" lon="5.9915">
        <ele>512.04</ele>
        <time>2014-03-19T13:41:47Z</time>
      </trkpt>
      <trkpt lat="45.57608" lon="5.99157">
        <ele>513.96</ele>
        <time>2014-03-19T13:42:01Z</time>
      </trkpt>
      <trkpt lat="45.57614" lon="5.9916">
        <ele>514.44</ele>
        <time>2014-03-19T13:42:07Z</time>
      </trkpt>
      <trkpt lat="45.57615" lon="5.99161">
        <ele>515.4</ele>
        <time>2014-03-19T13:42:24Z</time>
      </trkpt>
      <trkpt lat="45.57615" lon="5.99162">
        <ele>515.4</ele>
        <time>2014-03-19T13:42:54Z</time>
      </trkpt>
      <trkpt lat="45.57615" lon="5.99163">
        <ele>515.4</ele>
        <time>2014-03-19T13:43:14Z</time>
      </trkpt>
      <trkpt lat="45.57615" lon="5.99166">
        <ele>515.4</ele>
        <time>2014-03-19T13:43:16Z</time>
      </trkpt>
      <trkpt lat="45.57616" lon="5.99168">
        <ele>515.4</ele>
        <time>2014-03-19T13:43:17Z</time>
      </trkpt>
      <trkpt lat="45.57617" lon="5.9917">
        <ele>515.4</ele>
        <time>2014-03-19T13:43:18Z</time>
      </trkpt>
      <trkpt lat="45.57618" lon="5.99174">
        <ele>515.88</ele>
        <time>2014-03-19T13:43:19Z</time>
      </trkpt>
      <trkpt lat="45.57618" lon="5.99177">
        <ele>515.88</ele>
        <time>2014-03-19T13:43:20Z</time>
      </trkpt>
      <trkpt lat="45.5762" lon="5.99179">
        <ele>515.88</ele>
        <time>2014-03-19T13:43:21Z</time>
      </trkpt>
      <trkpt lat="45.57621" lon="5.99182">
        <ele>515.88</ele>
        <time>2014-03-19T13:43:22Z</time>
      </trkpt>
      <trkpt lat="45.57621" lon="5.99184">
        <ele>516.37</ele>
        <time>2014-03-19T13:43:23Z</time>
      </trkpt>
      <trkpt lat="45.57622" lon="5.99187">
        <ele>516.37</ele>
        <time>2014-03-19T13:43:24Z</time>
      </trkpt>
      <trkpt lat="45.57625" lon="5.99203">
        <ele>517.81</ele>
        <time>2014-03-19T13:43:30Z</time>
      </trkpt>
      <trkpt lat="45.57627" lon="5.99205">
        <ele>518.29</ele>
        <time>2014-03-19T13:43:31Z</time>
      </trkpt>
      <trkpt lat="45.57642" lon="5.99244">
        <ele>519.25</ele>
        <time>2014-03-19T13:43:45Z</time>
      </trkpt>
      <trkpt lat="45.5765" lon="5.9928">
        <ele>520.69</ele>
        <time>2014-03-19T13:43:56Z</time>
      </trkpt>
      <trkpt lat="45.57656" lon="5.99317">
        <ele>523.58</ele>
        <time>2014-03-19T13:44:09Z</time>
      </trkpt>
      <trkpt lat="45.57657" lon="5.9932">
        <ele>523.58</ele>
        <time>2014-03-19T13:44:10Z</time>
      </trkpt>
      <trkpt lat="45.57658" lon="5.99322">
        <ele>523.58</ele>
        <time>2014-03-19T13:44:11Z</time>
      </trkpt>
      <trkpt lat="45.57661" lon="5.99332">
        <ele>523.58</ele>
        <time>2014-03-19T13:44:15Z</time>
      </trkpt>
      <trkpt lat="45.57661" lon="5.99335">
        <ele>523.58</ele>
        <time>2014-03-19T13:44:16Z</time>
      </trkpt>
      <trkpt lat="45.57661" lon="5.99338">
        <ele>523.58</ele>
        <time>2014-03-19T13:44:17Z</time>
      </trkpt>
      <trkpt lat="45.57662" lon="5.99378">
        <ele>523.58</ele>
        <time>2014-03-19T13:44:28Z</time>
      </trkpt>
      <trkpt lat="45.57669" lon="5.99422">
        <ele>524.06</ele>
        <time>2014-03-19T13:44:39Z</time>
      </trkpt>
      <trkpt lat="45.57674" lon="5.99458">
        <ele>525.98</ele>
        <time>2014-03-19T13:44:53Z</time>
      </trkpt>
      <trkpt lat="45.57676" lon="5.99489">
        <ele>528.38</ele>
        <time>2014-03-19T13:45:06Z</time>
      </trkpt>
      <trkpt lat="45.57684" lon="5.99517">
        <ele>530.3</ele>
        <time>2014-03-19T13:45:19Z</time>
      </trkpt>
      <trkpt lat="45.57689" lon="5.99547">
        <ele>533.19</ele>
        <time>2014-03-19T13:45:33Z</time>
      </trkpt>
      <trkpt lat="45.57691" lon="5.99577">
        <ele>536.07</ele>
        <time>2014-03-19T13:45:47Z</time>
      </trkpt>
      <trkpt lat="45.57686" lon="5.99603">
        <ele>539.44</ele>
        <time>2014-03-19T13:46:00Z</time>
      </trkpt>
      <trkpt lat="45.57682" lon="5.9963">
        <ele>542.32</ele>
        <time>2014-03-19T13:46:14Z</time>
      </trkpt>
      <trkpt lat="45.57678" lon="5.9965">
        <ele>545.2</ele>
        <time>2014-03-19T13:46:25Z</time>
      </trkpt>
      <trkpt lat="45.57678" lon="5.99652">
        <ele>544.72</ele>
        <time>2014-03-19T13:46:26Z</time>
      </trkpt>
      <trkpt lat="45.57678" lon="5.99654">
        <ele>544.72</ele>
        <time>2014-03-19T13:46:27Z</time>
      </trkpt>
      <trkpt lat="45.57675" lon="5.99676">
        <ele>547.13</ele>
        <time>2014-03-19T13:46:39Z</time>
      </trkpt>
      <trkpt lat="45.57675" lon="5.99678">
        <ele>547.13</ele>
        <time>2014-03-19T13:46:40Z</time>
      </trkpt>
      <trkpt lat="45.57675" lon="5.9968">
        <ele>547.61</ele>
        <time>2014-03-19T13:46:41Z</time>
      </trkpt>
      <trkpt lat="45.57674" lon="5.99681">
        <ele>547.61</ele>
        <time>2014-03-19T13:46:42Z</time>
      </trkpt>
      <trkpt lat="45.57674" lon="5.99683">
        <ele>548.09</ele>
        <time>2014-03-19T13:46:43Z</time>
      </trkpt>
      <trkpt lat="45.57674" lon="5.99685">
        <ele>548.09</ele>
        <time>2014-03-19T13:46:44Z</time>
      </trkpt>
      <trkpt lat="45.57669" lon="5.99703">
        <ele>551.45</ele>
        <time>2014-03-19T13:46:54Z</time>
      </trkpt>
      <trkpt lat="45.57668" lon="5.99705">
        <ele>551.45</ele>
        <time>2014-03-19T13:46:55Z</time>
      </trkpt>
      <trkpt lat="45.57666" lon="5.99724">
        <ele>553.86</ele>
        <time>2014-03-19T13:47:08Z</time>
      </trkpt>
      <trkpt lat="45.57665" lon="5.99725">
        <ele>554.82</ele>
        <time>2014-03-19T13:47:23Z</time>
      </trkpt>
      <trkpt lat="45.57665" lon="5.99727">
        <ele>554.34</ele>
        <time>2014-03-19T13:47:38Z</time>
      </trkpt>
      <trkpt lat="45.57665" lon="5.9973">
        <ele>555.3</ele>
        <time>2014-03-19T13:47:43Z</time>
      </trkpt>
      <trkpt lat="45.57664" lon="5.99732">
        <ele>554.82</ele>
        <time>2014-03-19T13:47:44Z</time>
      </trkpt>
      <trkpt lat="45.57663" lon="5.99734">
        <ele>555.3</ele>
        <time>2014-03-19T13:47:45Z</time>
      </trkpt>
      <trkpt lat="45.57663" lon="5.99736">
        <ele>555.78</ele>
        <time>2014-03-19T13:47:46Z</time>
      </trkpt>
      <trkpt lat="45.57662" lon="5.99738">
        <ele>556.26</ele>
        <time>2014-03-19T13:47:47Z</time>
      </trkpt>
      <trkpt lat="45.57661" lon="5.99741">
        <ele>556.26</ele>
        <time>2014-03-19T13:47:48Z</time>
      </trkpt>
      <trkpt lat="45.5766" lon="5.99771">
        <ele>559.14</ele>
        <time>2014-03-19T13:48:01Z</time>
      </trkpt>
      <trkpt lat="45.5766" lon="5.9981">
        <ele>560.11</ele>
        <time>2014-03-19T13:48:16Z</time>
      </trkpt>
      <trkpt lat="45.57654" lon="5.99839">
        <ele>562.99</ele>
        <time>2014-03-19T13:48:29Z</time>
      </trkpt>
      <trkpt lat="45.57652" lon="5.99843">
        <ele>563.95</ele>
        <time>2014-03-19T13:48:31Z</time>
      </trkpt>
      <trkpt lat="45.57649" lon="5.99876">
        <ele>565.87</ele>
        <time>2014-03-19T13:48:46Z</time>
      </trkpt>
      <trkpt lat="45.57648" lon="5.99881">
        <ele>567.32</ele>
        <time>2014-03-19T13:48:49Z</time>
      </trkpt>
      <trkpt lat="45.57642" lon="5.9989">
        <ele>569.72</ele>
        <time>2014-03-19T13:48:54Z</time>
      </trkpt>
      <trkpt lat="45.57639" lon="5.99903">
        <ele>570.68</ele>
        <time>2014-03-19T13:49:00Z</time>
      </trkpt>
      <trkpt lat="45.57642" lon="5.99945">
        <ele>571.64</ele>
        <time>2014-03-19T13:49:15Z</time>
      </trkpt>
      <trkpt lat="45.57644" lon="5.99986">
        <ele>571.64</ele>
        <time>2014-03-19T13:49:26Z</time>
      </trkpt>
      <trkpt lat="45.57643" lon="6.00033">
        <ele>571.16</ele>
        <time>2014-03-19T13:49:39Z</time>
      </trkpt>
      <trkpt lat="45.57647" lon="6.00089">
        <ele>572.12</ele>
        <time>2014-03-19T13:49:52Z</time>
      </trkpt>
      <trkpt lat="45.57645" lon="6.00148">
        <ele>572.6</ele>
        <time>2014-03-19T13:50:06Z</time>
      </trkpt>
      <trkpt lat="45.57652" lon="6.0021">
        <ele>573.56</ele>
        <time>2014-03-19T13:50:21Z</time>
      </trkpt>
      <trkpt lat="45.57651" lon="6.00261">
        <ele>575.49</ele>
        <time>2014-03-19T13:50:34Z</time>
      </trkpt>
      <trkpt lat="45.57648" lon="6.00304">
        <ele>575.97</ele>
        <time>2014-03-19T13:50:45Z</time>
      </trkpt>
      <trkpt lat="45.57648" lon="6.00353">
        <ele>576.93</ele>
        <time>2014-03-19T13:50:58Z</time>
      </trkpt>
      <trkpt lat="45.57648" lon="6.00401">
        <ele>578.37</ele>
        <time>2014-03-19T13:51:11Z</time>
      </trkpt>
      <trkpt lat="45.57635" lon="6.00417">
        <ele>579.81</ele>
        <time>2014-03-19T13:51:22Z</time>
      </trkpt>
      <trkpt lat="45.57628" lon="6.0038">
        <ele>581.73</ele>
        <time>2014-03-19T13:51:36Z</time>
      </trkpt>
      <trkpt lat="45.57618" lon="6.00366">
        <ele>584.62</ele>
        <time>2014-03-19T13:51:44Z</time>
      </trkpt>
      <trkpt lat="45.57606" lon="6.00352">
        <ele>588.95</ele>
        <time>2014-03-19T13:51:53Z</time>
      </trkpt>
      <trkpt lat="45.57603" lon="6.00342">
        <ele>589.43</ele>
        <time>2014-03-19T13:51:59Z</time>
      </trkpt>
      <trkpt lat="45.57603" lon="6.00326">
        <ele>590.87</ele>
        <time>2014-03-19T13:52:07Z</time>
      </trkpt>
      <trkpt lat="45.57602" lon="6.00325">
        <ele>591.83</ele>
        <time>2014-03-19T13:52:09Z</time>
      </trkpt>
      <trkpt lat="45.57586" lon="6.00299">
        <ele>594.71</ele>
        <time>2014-03-19T13:52:24Z</time>
      </trkpt>
      <trkpt lat="45.57577" lon="6.00285">
        <ele>598.08</ele>
        <time>2014-03-19T13:52:33Z</time>
      </trkpt>
      <trkpt lat="45.57571" lon="6.00269">
        <ele>600.96</ele>
        <time>2014-03-19T13:52:42Z</time>
      </trkpt>
      <trkpt lat="45.57568" lon="6.00256">
        <ele>603.36</ele>
        <time>2014-03-19T13:52:50Z</time>
      </trkpt>
      <trkpt lat="45.57568" lon="6.00244">
        <ele>603.85</ele>
        <time>2014-03-19T13:52:56Z</time>
      </trkpt>
      <trkpt lat="45.57567" lon="6.00229">
        <ele>603.85</ele>
        <time>2014-03-19T13:53:04Z</time>
      </trkpt>
      <trkpt lat="45.57568" lon="6.00208">
        <ele>602.88</ele>
        <time>2014-03-19T13:53:17Z</time>
      </trkpt>
      <trkpt lat="45.57569" lon="6.00202">
        <ele>602.4</ele>
        <time>2014-03-19T13:53:32Z</time>
      </trkpt>
      <trkpt lat="45.57568" lon="6.00184">
        <ele>603.36</ele>
        <time>2014-03-19T13:53:49Z</time>
      </trkpt>
      <trkpt lat="45.57569" lon="6.00163">
        <ele>602.4</ele>
        <time>2014-03-19T13:53:56Z</time>
      </trkpt>
      <trkpt lat="45.5757" lon="6.00104">
        <ele>602.4</ele>
        <time>2014-03-19T13:54:08Z</time>
      </trkpt>
      <trkpt lat="45.57567" lon="6.00053">
        <ele>603.36</ele>
        <time>2014-03-19T13:54:21Z</time>
      </trkpt>
      <trkpt lat="45.57561" lon="6.00019">
        <ele>605.77</ele>
        <time>2014-03-19T13:54:34Z</time>
      </trkpt>
      <trkpt lat="45.57557" lon="5.99995">
        <ele>607.69</ele>
        <time>2014-03-19T13:54:44Z</time>
      </trkpt>
      <trkpt lat="45.57555" lon="5.99984">
        <ele>608.17</ele>
        <time>2014-03-19T13:54:48Z</time>
      </trkpt>
      <trkpt lat="45.57546" lon="5.99945">
        <ele>610.57</ele>
        <time>2014-03-19T13:55:01Z</time>
      </trkpt>
      <trkpt lat="45.57534" lon="5.99916">
        <ele>613.94</ele>
        <time>2014-03-19T13:55:15Z</time>
      </trkpt>
      <trkpt lat="45.57526" lon="5.99896">
        <ele>616.82</ele>
        <time>2014-03-19T13:55:27Z</time>
      </trkpt>
      <trkpt lat="45.57518" lon="5.99868">
        <ele>618.75</ele>
        <time>2014-03-19T13:55:42Z</time>
      </trkpt>
      <trkpt lat="45.57518" lon="5.99855">
        <ele>620.19</ele>
        <time>2014-03-19T13:55:48Z</time>
      </trkpt>
      <trkpt lat="45.57511" lon="5.99845">
        <ele>621.15</ele>
        <time>2014-03-19T13:55:55Z</time>
      </trkpt>
      <trkpt lat="45.57509" lon="5.99836">
        <ele>622.11</ele>
        <time>2014-03-19T13:56:00Z</time>
      </trkpt>
      <trkpt lat="45.57496" lon="5.99816">
        <ele>624.99</ele>
        <time>2014-03-19T13:56:13Z</time>
      </trkpt>
      <trkpt lat="45.57493" lon="5.99807">
        <ele>624.99</ele>
        <time>2014-03-19T13:56:18Z</time>
      </trkpt>
      <trkpt lat="45.5749" lon="5.998">
        <ele>625.96</ele>
        <time>2014-03-19T13:56:23Z</time>
      </trkpt>
      <trkpt lat="45.57487" lon="5.99797">
        <ele>626.44</ele>
        <time>2014-03-19T13:56:27Z</time>
      </trkpt>
      <trkpt lat="45.57483" lon="5.99788">
        <ele>625.47</ele>
        <time>2014-03-19T13:56:32Z</time>
      </trkpt>
      <trkpt lat="45.57472" lon="5.99762">
        <ele>627.4</ele>
        <time>2014-03-19T13:56:46Z</time>
      </trkpt>
      <trkpt lat="45.57472" lon="5.9976">
        <ele>626.92</ele>
        <time>2014-03-19T13:56:48Z</time>
      </trkpt>
      <trkpt lat="45.57473" lon="5.99766">
        <ele>626.44</ele>
        <time>2014-03-19T13:56:52Z</time>
      </trkpt>
      <trkpt lat="45.57475" lon="5.99784">
        <ele>626.92</ele>
        <time>2014-03-19T13:56:59Z</time>
      </trkpt>
      <trkpt lat="45.57474" lon="5.99802">
        <ele>628.36</ele>
        <time>2014-03-19T13:57:06Z</time>
      </trkpt>
      <trkpt lat="45.57477" lon="5.99841">
        <ele>629.8</ele>
        <time>2014-03-19T13:57:20Z</time>
      </trkpt>
      <trkpt lat="45.57478" lon="5.99881">
        <ele>630.76</ele>
        <time>2014-03-19T13:57:33Z</time>
      </trkpt>
      <trkpt lat="45.57473" lon="5.99924">
        <ele>632.2</ele>
        <time>2014-03-19T13:57:48Z</time>
      </trkpt>
      <trkpt lat="45.57465" lon="5.99953">
        <ele>635.57</ele>
        <time>2014-03-19T13:58:00Z</time>
      </trkpt>
      <trkpt lat="45.57463" lon="5.99963">
        <ele>636.53</ele>
        <time>2014-03-19T13:58:05Z</time>
      </trkpt>
      <trkpt lat="45.57448" lon="5.99986">
        <ele>639.41</ele>
        <time>2014-03-19T13:58:20Z</time>
      </trkpt>
      <trkpt lat="45.57437" lon="6.00026">
        <ele>641.82</ele>
        <time>2014-03-19T13:58:36Z</time>
      </trkpt>
      <trkpt lat="45.5743" lon="6.00069">
        <ele>643.74</ele>
        <time>2014-03-19T13:58:52Z</time>
      </trkpt>
      <trkpt lat="45.57424" lon="6.0011">
        <ele>646.62</ele>
        <time>2014-03-19T13:59:07Z</time>
      </trkpt>
      <trkpt lat="45.57415" lon="6.00157">
        <ele>649.51</ele>
        <time>2014-03-19T13:59:23Z</time>
      </trkpt>
      <trkpt lat="45.57407" lon="6.00196">
        <ele>652.39</ele>
        <time>2014-03-19T13:59:37Z</time>
      </trkpt>
      <trkpt lat="45.57399" lon="6.00232">
        <ele>655.76</ele>
        <time>2014-03-19T13:59:50Z</time>
      </trkpt>
      <trkpt lat="45.57391" lon="6.00273">
        <ele>659.12</ele>
        <time>2014-03-19T14:00:06Z</time>
      </trkpt>
      <trkpt lat="45.57383" lon="6.00309">
        <ele>661.52</ele>
        <time>2014-03-19T14:00:21Z</time>
      </trkpt>
      <trkpt lat="45.57378" lon="6.00336">
        <ele>663.45</ele>
        <time>2014-03-19T14:00:32Z</time>
      </trkpt>
      <trkpt lat="45.57371" lon="6.00331">
        <ele>664.89</ele>
        <time>2014-03-19T14:00:39Z</time>
      </trkpt>
      <trkpt lat="45.57368" lon="6.00287">
        <ele>667.77</ele>
        <time>2014-03-19T14:00:56Z</time>
      </trkpt>
      <trkpt lat="45.57365" lon="6.00251">
        <ele>669.22</ele>
        <time>2014-03-19T14:01:09Z</time>
      </trkpt>
      <trkpt lat="45.57365" lon="6.00212">
        <ele>669.7</ele>
        <time>2014-03-19T14:01:21Z</time>
      </trkpt>
      <trkpt lat="45.57357" lon="6.00157">
        <ele>669.22</ele>
        <time>2014-03-19T14:01:34Z</time>
      </trkpt>
      <trkpt lat="45.57365" lon="6.00079">
        <ele>667.77</ele>
        <time>2014-03-19T14:01:47Z</time>
      </trkpt>
      <trkpt lat="45.57364" lon="6.00014">
        <ele>668.73</ele>
        <time>2014-03-19T14:02:01Z</time>
      </trkpt>
      <trkpt lat="45.57361" lon="5.99974">
        <ele>669.7</ele>
        <time>2014-03-19T14:02:14Z</time>
      </trkpt>
      <trkpt lat="45.57357" lon="5.99918">
        <ele>671.62</ele>
        <time>2014-03-19T14:02:29Z</time>
      </trkpt>
      <trkpt lat="45.57349" lon="5.99857">
        <ele>672.58</ele>
        <time>2014-03-19T14:02:45Z</time>
      </trkpt>
      <trkpt lat="45.57343" lon="5.99795">
        <ele>671.62</ele>
        <time>2014-03-19T14:03:00Z</time>
      </trkpt>
      <trkpt lat="45.57335" lon="5.99733">
        <ele>669.7</ele>
        <time>2014-03-19T14:03:09Z</time>
      </trkpt>
      <trkpt lat="45.57323" lon="5.99686">
        <ele>671.14</ele>
        <time>2014-03-19T14:03:19Z</time>
      </trkpt>
      <trkpt lat="45.57312" lon="5.99632">
        <ele>668.25</ele>
        <time>2014-03-19T14:03:29Z</time>
      </trkpt>
      <trkpt lat="45.57311" lon="5.99625">
        <ele>668.73</ele>
        <time>2014-03-19T14:03:30Z</time>
      </trkpt>
      <trkpt lat="45.5731" lon="5.99618">
        <ele>669.22</ele>
        <time>2014-03-19T14:03:31Z</time>
      </trkpt>
      <trkpt lat="45.57298" lon="5.99573">
        <ele>667.77</ele>
        <time>2014-03-19T14:03:41Z</time>
      </trkpt>
      <trkpt lat="45.57296" lon="5.99571">
        <ele>668.25</ele>
        <time>2014-03-19T14:03:42Z</time>
      </trkpt>
      <trkpt lat="45.57293" lon="5.99563">
        <ele>667.77</ele>
        <time>2014-03-19T14:03:51Z</time>
      </trkpt>
      <trkpt lat="45.57288" lon="5.99555">
        <ele>667.77</ele>
        <time>2014-03-19T14:04:03Z</time>
      </trkpt>
      <trkpt lat="45.57287" lon="5.99553">
        <ele>667.77</ele>
        <time>2014-03-19T14:04:04Z</time>
      </trkpt>
      <trkpt lat="45.57284" lon="5.99517">
        <ele>666.81</ele>
        <time>2014-03-19T14:04:16Z</time>
      </trkpt>
      <trkpt lat="45.5727" lon="5.99489">
        <ele>666.81</ele>
        <time>2014-03-19T14:04:25Z</time>
      </trkpt>
      <trkpt lat="45.57259" lon="5.9947">
        <ele>668.73</ele>
        <time>2014-03-19T14:04:32Z</time>
      </trkpt>
      <trkpt lat="45.5725" lon="5.99456">
        <ele>667.29</ele>
        <time>2014-03-19T14:04:40Z</time>
      </trkpt>
      <trkpt lat="45.57249" lon="5.99454">
        <ele>667.29</ele>
        <time>2014-03-19T14:04:41Z</time>
      </trkpt>
      <trkpt lat="45.57247" lon="5.9945">
        <ele>667.29</ele>
        <time>2014-03-19T14:04:42Z</time>
      </trkpt>
      <trkpt lat="45.57219" lon="5.99406">
        <ele>666.33</ele>
        <time>2014-03-19T14:04:54Z</time>
      </trkpt>
      <trkpt lat="45.57197" lon="5.99372">
        <ele>662.97</ele>
        <time>2014-03-19T14:05:02Z</time>
      </trkpt>
      <trkpt lat="45.57173" lon="5.99341">
        <ele>661.04</ele>
        <time>2014-03-19T14:05:10Z</time>
      </trkpt>
      <trkpt lat="45.57133" lon="5.99325">
        <ele>660.56</ele>
        <time>2014-03-19T14:05:22Z</time>
      </trkpt>
      <trkpt lat="45.57077" lon="5.99336">
        <ele>658.64</ele>
        <time>2014-03-19T14:05:37Z</time>
      </trkpt>
      <trkpt lat="45.57034" lon="5.99326">
        <ele>660.56</ele>
        <time>2014-03-19T14:05:50Z</time>
      </trkpt>
      <trkpt lat="45.56997" lon="5.99289">
        <ele>661.04</ele>
        <time>2014-03-19T14:06:03Z</time>
      </trkpt>
      <trkpt lat="45.56979" lon="5.99277">
        <ele>661.04</ele>
        <time>2014-03-19T14:06:16Z</time>
      </trkpt>
      <trkpt lat="45.56954" lon="5.99268">
        <ele>663.93</ele>
        <time>2014-03-19T14:06:26Z</time>
      </trkpt>
      <trkpt lat="45.56952" lon="5.99268">
        <ele>663.93</ele>
        <time>2014-03-19T14:06:27Z</time>
      </trkpt>
      <trkpt lat="45.56921" lon="5.9927">
        <ele>663.93</ele>
        <time>2014-03-19T14:06:40Z</time>
      </trkpt>
      <trkpt lat="45.56875" lon="5.99313">
        <ele>662.97</ele>
        <time>2014-03-19T14:06:54Z</time>
      </trkpt>
      <trkpt lat="45.56873" lon="5.99312">
        <ele>662.01</ele>
        <time>2014-03-19T14:07:05Z</time>
      </trkpt>
      <trkpt lat="45.5685" lon="5.99325">
        <ele>661.04</ele>
        <time>2014-03-19T14:07:17Z</time>
      </trkpt>
      <trkpt lat="45.56806" lon="5.99341">
        <ele>662.01</ele>
        <time>2014-03-19T14:07:28Z</time>
      </trkpt>
      <trkpt lat="45.56756" lon="5.99344">
        <ele>663.93</ele>
        <time>2014-03-19T14:07:41Z</time>
      </trkpt>
      <trkpt lat="45.56713" lon="5.99344">
        <ele>664.89</ele>
        <time>2014-03-19T14:07:55Z</time>
      </trkpt>
      <trkpt lat="45.5668" lon="5.99348">
        <ele>667.29</ele>
        <time>2014-03-19T14:08:07Z</time>
      </trkpt>
      <trkpt lat="45.5665" lon="5.99345">
        <ele>670.18</ele>
        <time>2014-03-19T14:08:21Z</time>
      </trkpt>
      <trkpt lat="45.56619" lon="5.99342">
        <ele>672.1</ele>
        <time>2014-03-19T14:08:36Z</time>
      </trkpt>
      <trkpt lat="45.56585" lon="5.99337">
        <ele>674.5</ele>
        <time>2014-03-19T14:08:51Z</time>
      </trkpt>
      <trkpt lat="45.56552" lon="5.99334">
        <ele>676.42</ele>
        <time>2014-03-19T14:09:05Z</time>
      </trkpt>
      <trkpt lat="45.56527" lon="5.99325">
        <ele>678.83</ele>
        <time>2014-03-19T14:09:18Z</time>
      </trkpt>
      <trkpt lat="45.56493" lon="5.99336">
        <ele>680.27</ele>
        <time>2014-03-19T14:09:34Z</time>
      </trkpt>
      <trkpt lat="45.56454" lon="5.99361">
        <ele>679.31</ele>
        <time>2014-03-19T14:09:46Z</time>
      </trkpt>
      <trkpt lat="45.5643" lon="5.99377">
        <ele>682.19</ele>
        <time>2014-03-19T14:09:57Z</time>
      </trkpt>
      <trkpt lat="45.56404" lon="5.99383">
        <ele>680.27</ele>
        <time>2014-03-19T14:10:06Z</time>
      </trkpt>
      <trkpt lat="45.56392" lon="5.99391">
        <ele>680.27</ele>
        <time>2014-03-19T14:10:09Z</time>
      </trkpt>
      <trkpt lat="45.56389" lon="5.99394">
        <ele>680.27</ele>
        <time>2014-03-19T14:10:10Z</time>
      </trkpt>
      <trkpt lat="45.56385" lon="5.99396">
        <ele>680.27</ele>
        <time>2014-03-19T14:10:11Z</time>
      </trkpt>
      <trkpt lat="45.56382" lon="5.99397">
        <ele>680.27</ele>
        <time>2014-03-19T14:10:12Z</time>
      </trkpt>
      <trkpt lat="45.56379" lon="5.99398">
        <ele>680.27</ele>
        <time>2014-03-19T14:10:13Z</time>
      </trkpt>
      <trkpt lat="45.56376" lon="5.99399">
        <ele>679.79</ele>
        <time>2014-03-19T14:10:14Z</time>
      </trkpt>
      <trkpt lat="45.56336" lon="5.99431">
        <ele>677.87</ele>
        <time>2014-03-19T14:10:26Z</time>
      </trkpt>
      <trkpt lat="45.56311" lon="5.99449">
        <ele>676.42</ele>
        <time>2014-03-19T14:10:32Z</time>
      </trkpt>
      <trkpt lat="45.56306" lon="5.99451">
        <ele>675.46</ele>
        <time>2014-03-19T14:10:33Z</time>
      </trkpt>
      <trkpt lat="45.56297" lon="5.99453">
        <ele>674.5</ele>
        <time>2014-03-19T14:10:35Z</time>
      </trkpt>
      <trkpt lat="45.56292" lon="5.99455">
        <ele>673.54</ele>
        <time>2014-03-19T14:10:36Z</time>
      </trkpt>
      <trkpt lat="45.56288" lon="5.99457">
        <ele>673.06</ele>
        <time>2014-03-19T14:10:37Z</time>
      </trkpt>
      <trkpt lat="45.56276" lon="5.99464">
        <ele>671.62</ele>
        <time>2014-03-19T14:10:40Z</time>
      </trkpt>
      <trkpt lat="45.56271" lon="5.99466">
        <ele>670.66</ele>
        <time>2014-03-19T14:10:41Z</time>
      </trkpt>
      <trkpt lat="45.5626" lon="5.99471">
        <ele>668.73</ele>
        <time>2014-03-19T14:10:43Z</time>
      </trkpt>
      <trkpt lat="45.5625" lon="5.99476">
        <ele>667.77</ele>
        <time>2014-03-19T14:10:45Z</time>
      </trkpt>
      <trkpt lat="45.56236" lon="5.99485">
        <ele>667.29</ele>
        <time>2014-03-19T14:10:48Z</time>
      </trkpt>
      <trkpt lat="45.56213" lon="5.99503">
        <ele>663.93</ele>
        <time>2014-03-19T14:10:55Z</time>
      </trkpt>
      <trkpt lat="45.56202" lon="5.99511">
        <ele>660.56</ele>
        <time>2014-03-19T14:11:00Z</time>
      </trkpt>
      <trkpt lat="45.56196" lon="5.99515">
        <ele>659.12</ele>
        <time>2014-03-19T14:11:10Z</time>
      </trkpt>
      <trkpt lat="45.56196" lon="5.99519">
        <ele>658.64</ele>
        <time>2014-03-19T14:11:32Z</time>
      </trkpt>
      <trkpt lat="45.56196" lon="5.9952">
        <ele>658.16</ele>
        <time>2014-03-19T14:11:46Z</time>
      </trkpt>
      <trkpt lat="45.56195" lon="5.99522">
        <ele>658.16</ele>
        <time>2014-03-19T14:12:09Z</time>
      </trkpt>
      <trkpt lat="45.56195" lon="5.99525">
        <ele>657.68</ele>
        <time>2014-03-19T14:12:10Z</time>
      </trkpt>
      <trkpt lat="45.56195" lon="5.99528">
        <ele>657.2</ele>
        <time>2014-03-19T14:12:11Z</time>
      </trkpt>
      <trkpt lat="45.56195" lon="5.99531">
        <ele>656.24</ele>
        <time>2014-03-19T14:12:12Z</time>
      </trkpt>
      <trkpt lat="45.56196" lon="5.99535">
        <ele>655.76</ele>
        <time>2014-03-19T14:12:13Z</time>
      </trkpt>
      <trkpt lat="45.56197" lon="5.99555">
        <ele>652.87</ele>
        <time>2014-03-19T14:12:17Z</time>
      </trkpt>
      <trkpt lat="45.56195" lon="5.99576">
        <ele>652.39</ele>
        <time>2014-03-19T14:12:21Z</time>
      </trkpt>
      <trkpt lat="45.56193" lon="5.9958">
        <ele>652.39</ele>
        <time>2014-03-19T14:12:22Z</time>
      </trkpt>
      <trkpt lat="45.56191" lon="5.99583">
        <ele>651.91</ele>
        <time>2014-03-19T14:12:23Z</time>
      </trkpt>
      <trkpt lat="45.56188" lon="5.99588">
        <ele>651.43</ele>
        <time>2014-03-19T14:12:24Z</time>
      </trkpt>
      <trkpt lat="45.56186" lon="5.99593">
        <ele>650.95</ele>
        <time>2014-03-19T14:12:25Z</time>
      </trkpt>
      <trkpt lat="45.56185" lon="5.99598">
        <ele>650.47</ele>
        <time>2014-03-19T14:12:26Z</time>
      </trkpt>
      <trkpt lat="45.56184" lon="5.99603">
        <ele>649.51</ele>
        <time>2014-03-19T14:12:27Z</time>
      </trkpt>
      <trkpt lat="45.56184" lon="5.99609">
        <ele>649.03</ele>
        <time>2014-03-19T14:12:28Z</time>
      </trkpt>
      <trkpt lat="45.56183" lon="5.99621">
        <ele>647.1</ele>
        <time>2014-03-19T14:12:30Z</time>
      </trkpt>
      <trkpt lat="45.56183" lon="5.99626">
        <ele>646.62</ele>
        <time>2014-03-19T14:12:31Z</time>
      </trkpt>
      <trkpt lat="45.56178" lon="5.99652">
        <ele>643.74</ele>
        <time>2014-03-19T14:12:37Z</time>
      </trkpt>
      <trkpt lat="45.56175" lon="5.99661">
        <ele>641.82</ele>
        <time>2014-03-19T14:12:39Z</time>
      </trkpt>
      <trkpt lat="45.56171" lon="5.99666">
        <ele>640.86</ele>
        <time>2014-03-19T14:12:40Z</time>
      </trkpt>
      <trkpt lat="45.56164" lon="5.99674">
        <ele>638.45</ele>
        <time>2014-03-19T14:12:42Z</time>
      </trkpt>
      <trkpt lat="45.56156" lon="5.9968">
        <ele>636.53</ele>
        <time>2014-03-19T14:12:44Z</time>
      </trkpt>
      <trkpt lat="45.56152" lon="5.99682">
        <ele>635.09</ele>
        <time>2014-03-19T14:12:45Z</time>
      </trkpt>
      <trkpt lat="45.56135" lon="5.99685">
        <ele>631.72</ele>
        <time>2014-03-19T14:12:49Z</time>
      </trkpt>
      <trkpt lat="45.5612" lon="5.99693">
        <ele>628.84</ele>
        <time>2014-03-19T14:12:54Z</time>
      </trkpt>
      <trkpt lat="45.56075" lon="5.99702">
        <ele>628.84</ele>
        <time>2014-03-19T14:13:09Z</time>
      </trkpt>
      <trkpt lat="45.56063" lon="5.99698">
        <ele>631.24</ele>
        <time>2014-03-19T14:13:17Z</time>
      </trkpt>
      <trkpt lat="45.56059" lon="5.99698">
        <ele>631.72</ele>
        <time>2014-03-19T14:13:19Z</time>
      </trkpt>
      <trkpt lat="45.56057" lon="5.99697">
        <ele>632.2</ele>
        <time>2014-03-19T14:13:20Z</time>
      </trkpt>
      <trkpt lat="45.56056" lon="5.99697">
        <ele>632.2</ele>
        <time>2014-03-19T14:13:21Z</time>
      </trkpt>
      <trkpt lat="45.56055" lon="5.99697">
        <ele>632.2</ele>
        <time>2014-03-19T14:13:22Z</time>
      </trkpt>
      <trkpt lat="45.56054" lon="5.99698">
        <ele>632.2</ele>
        <time>2014-03-19T14:13:23Z</time>
      </trkpt>
      <trkpt lat="45.56054" lon="5.997">
        <ele>632.2</ele>
        <time>2014-03-19T14:13:24Z</time>
      </trkpt>
      <trkpt lat="45.56052" lon="5.99702">
        <ele>632.2</ele>
        <time>2014-03-19T14:13:25Z</time>
      </trkpt>
      <trkpt lat="45.56031" lon="5.99742">
        <ele>629.8</ele>
        <time>2014-03-19T14:13:38Z</time>
      </trkpt>
      <trkpt lat="45.56015" lon="5.99751">
        <ele>626.44</ele>
        <time>2014-03-19T14:13:48Z</time>
      </trkpt>
      <trkpt lat="45.56006" lon="5.99745">
        <ele>625.96</ele>
        <time>2014-03-19T14:13:53Z</time>
      </trkpt>
      <trkpt lat="45.55998" lon="5.99715">
        <ele>624.03</ele>
        <time>2014-03-19T14:14:06Z</time>
      </trkpt>
      <trkpt lat="45.55983" lon="5.99702">
        <ele>621.15</ele>
        <time>2014-03-19T14:14:14Z</time>
      </trkpt>
      <trkpt lat="45.55886" lon="5.99718">
        <ele>618.75</ele>
        <time>2014-03-19T14:14:24Z</time>
      </trkpt>
      <trkpt lat="45.55841" lon="5.99729">
        <ele>619.71</ele>
        <time>2014-03-19T14:14:34Z</time>
      </trkpt>
      <trkpt lat="45.55838" lon="5.9973">
        <ele>620.19</ele>
        <time>2014-03-19T14:14:35Z</time>
      </trkpt>
      <trkpt lat="45.55801" lon="5.9973">
        <ele>620.67</ele>
        <time>2014-03-19T14:14:49Z</time>
      </trkpt>
      <trkpt lat="45.55773" lon="5.99737">
        <ele>623.07</ele>
        <time>2014-03-19T14:15:01Z</time>
      </trkpt>
      <trkpt lat="45.55757" lon="5.99745">
        <ele>624.99</ele>
        <time>2014-03-19T14:15:09Z</time>
      </trkpt>
      <trkpt lat="45.55754" lon="5.99758">
        <ele>625.47</ele>
        <time>2014-03-19T14:15:15Z</time>
      </trkpt>
      <trkpt lat="45.55747" lon="5.99778">
        <ele>627.88</ele>
        <time>2014-03-19T14:15:27Z</time>
      </trkpt>
      <trkpt lat="45.55758" lon="5.99798">
        <ele>629.8</ele>
        <time>2014-03-19T14:15:39Z</time>
      </trkpt>
      <trkpt lat="45.55745" lon="5.99826">
        <ele>631.72</ele>
        <time>2014-03-19T14:15:52Z</time>
      </trkpt>
      <trkpt lat="45.5573" lon="5.99842">
        <ele>632.68</ele>
        <time>2014-03-19T14:16:04Z</time>
      </trkpt>
      <trkpt lat="45.55708" lon="5.99846">
        <ele>635.09</ele>
        <time>2014-03-19T14:16:17Z</time>
      </trkpt>
      <trkpt lat="45.55677" lon="5.99843">
        <ele>637.97</ele>
        <time>2014-03-19T14:16:33Z</time>
      </trkpt>
      <trkpt lat="45.55659" lon="5.99834">
        <ele>639.41</ele>
        <time>2014-03-19T14:16:43Z</time>
      </trkpt>
      <trkpt lat="45.55656" lon="5.99834">
        <ele>639.89</ele>
        <time>2014-03-19T14:16:45Z</time>
      </trkpt>
      <trkpt lat="45.55655" lon="5.99843">
        <ele>640.86</ele>
        <time>2014-03-19T14:16:53Z</time>
      </trkpt>
      <trkpt lat="45.55661" lon="5.99844">
        <ele>641.34</ele>
        <time>2014-03-19T14:16:57Z</time>
      </trkpt>
      <trkpt lat="45.55683" lon="5.99855">
        <ele>644.22</ele>
        <time>2014-03-19T14:17:11Z</time>
      </trkpt>
      <trkpt lat="45.55684" lon="5.99856">
        <ele>644.7</ele>
        <time>2014-03-19T14:17:12Z</time>
      </trkpt>
      <trkpt lat="45.55692" lon="5.99861">
        <ele>646.62</ele>
        <time>2014-03-19T14:17:21Z</time>
      </trkpt>
      <trkpt lat="45.55699" lon="5.99867">
        <ele>647.59</ele>
        <time>2014-03-19T14:17:26Z</time>
      </trkpt>
      <trkpt lat="45.5571" lon="5.99877">
        <ele>649.51</ele>
        <time>2014-03-19T14:17:35Z</time>
      </trkpt>
      <trkpt lat="45.55721" lon="5.99887">
        <ele>649.99</ele>
        <time>2014-03-19T14:17:42Z</time>
      </trkpt>
      <trkpt lat="45.55738" lon="5.99904">
        <ele>651.91</ele>
        <time>2014-03-19T14:17:55Z</time>
      </trkpt>
      <trkpt lat="45.55759" lon="5.99913">
        <ele>655.28</ele>
        <time>2014-03-19T14:18:08Z</time>
      </trkpt>
      <trkpt lat="45.55782" lon="5.9992">
        <ele>656.72</ele>
        <time>2014-03-19T14:18:21Z</time>
      </trkpt>
      <trkpt lat="45.55804" lon="5.99922">
        <ele>659.12</ele>
        <time>2014-03-19T14:18:34Z</time>
      </trkpt>
      <trkpt lat="45.55808" lon="5.99923">
        <ele>660.56</ele>
        <time>2014-03-19T14:18:37Z</time>
      </trkpt>
      <trkpt lat="45.55827" lon="5.99927">
        <ele>662.01</ele>
        <time>2014-03-19T14:18:51Z</time>
      </trkpt>
      <trkpt lat="45.55847" lon="5.99935">
        <ele>663.93</ele>
        <time>2014-03-19T14:19:04Z</time>
      </trkpt>
      <trkpt lat="45.55858" lon="5.99938">
        <ele>665.37</ele>
        <time>2014-03-19T14:19:12Z</time>
      </trkpt>
      <trkpt lat="45.55882" lon="5.99946">
        <ele>667.77</ele>
        <time>2014-03-19T14:19:27Z</time>
      </trkpt>
      <trkpt lat="45.55904" lon="5.99952">
        <ele>670.18</ele>
        <time>2014-03-19T14:19:42Z</time>
      </trkpt>
      <trkpt lat="45.55927" lon="5.99959">
        <ele>672.58</ele>
        <time>2014-03-19T14:19:56Z</time>
      </trkpt>
      <trkpt lat="45.55943" lon="5.9996">
        <ele>674.02</ele>
        <time>2014-03-19T14:20:06Z</time>
      </trkpt>
      <trkpt lat="45.55968" lon="5.99959">
        <ele>676.91</ele>
        <time>2014-03-19T14:20:22Z</time>
      </trkpt>
      <trkpt lat="45.55994" lon="5.99955">
        <ele>680.27</ele>
        <time>2014-03-19T14:20:37Z</time>
      </trkpt>
      <trkpt lat="45.56021" lon="5.99947">
        <ele>682.67</ele>
        <time>2014-03-19T14:20:53Z</time>
      </trkpt>
      <trkpt lat="45.56046" lon="5.9994">
        <ele>685.08</ele>
        <time>2014-03-19T14:21:08Z</time>
      </trkpt>
      <trkpt lat="45.56063" lon="5.99931">
        <ele>687.96</ele>
        <time>2014-03-19T14:21:18Z</time>
      </trkpt>
      <trkpt lat="45.56077" lon="5.99923">
        <ele>688.44</ele>
        <time>2014-03-19T14:21:27Z</time>
      </trkpt>
      <trkpt lat="45.5608" lon="5.99928">
        <ele>689.88</ele>
        <time>2014-03-19T14:21:30Z</time>
      </trkpt>
      <trkpt lat="45.56077" lon="5.99936">
        <ele>690.36</ele>
        <time>2014-03-19T14:21:35Z</time>
      </trkpt>
      <trkpt lat="45.56066" lon="5.99943">
        <ele>690.84</ele>
        <time>2014-03-19T14:21:41Z</time>
      </trkpt>
      <trkpt lat="45.56044" lon="5.99975">
        <ele>694.21</ele>
        <time>2014-03-19T14:21:56Z</time>
      </trkpt>
      <trkpt lat="45.56026" lon="6.00002">
        <ele>696.13</ele>
        <time>2014-03-19T14:22:10Z</time>
      </trkpt>
      <trkpt lat="45.56008" lon="6.00028">
        <ele>699.5</ele>
        <time>2014-03-19T14:22:25Z</time>
      </trkpt>
      <trkpt lat="45.55991" lon="6.00048">
        <ele>702.86</ele>
        <time>2014-03-19T14:22:39Z</time>
      </trkpt>
      <trkpt lat="45.55982" lon="6.00058">
        <ele>703.82</ele>
        <time>2014-03-19T14:22:52Z</time>
      </trkpt>
      <trkpt lat="45.55981" lon="6.00059">
        <ele>703.82</ele>
        <time>2014-03-19T14:23:08Z</time>
      </trkpt>
      <trkpt lat="45.55979" lon="6.0006">
        <ele>704.3</ele>
        <time>2014-03-19T14:23:27Z</time>
      </trkpt>
      <trkpt lat="45.55964" lon="6.00064">
        <ele>705.75</ele>
        <time>2014-03-19T14:23:38Z</time>
      </trkpt>
      <trkpt lat="45.55959" lon="6.00082">
        <ele>708.63</ele>
        <time>2014-03-19T14:23:48Z</time>
      </trkpt>
      <trkpt lat="45.55961" lon="6.00082">
        <ele>708.15</ele>
        <time>2014-03-19T14:23:49Z</time>
      </trkpt>
      <trkpt lat="45.55963" lon="6.0008">
        <ele>708.63</ele>
        <time>2014-03-19T14:23:51Z</time>
      </trkpt>
      <trkpt lat="45.55973" lon="6.00078">
        <ele>709.11</ele>
        <time>2014-03-19T14:23:55Z</time>
      </trkpt>
      <trkpt lat="45.56001" lon="6.00077">
        <ele>712.47</ele>
        <time>2014-03-19T14:24:11Z</time>
      </trkpt>
      <trkpt lat="45.56024" lon="6.00073">
        <ele>715.84</ele>
        <time>2014-03-19T14:24:25Z</time>
      </trkpt>
      <trkpt lat="45.56028" lon="6.00072">
        <ele>715.84</ele>
        <time>2014-03-19T14:24:27Z</time>
      </trkpt>
      <trkpt lat="45.56049" lon="6.00047">
        <ele>719.2</ele>
        <time>2014-03-19T14:24:43Z</time>
      </trkpt>
      <trkpt lat="45.5607" lon="6.00026">
        <ele>722.09</ele>
        <time>2014-03-19T14:24:57Z</time>
      </trkpt>
      <trkpt lat="45.56092" lon="6.00014">
        <ele>724.49</ele>
        <time>2014-03-19T14:25:10Z</time>
      </trkpt>
      <trkpt lat="45.56096" lon="6.00012">
        <ele>725.93</ele>
        <time>2014-03-19T14:25:13Z</time>
      </trkpt>
      <trkpt lat="45.56119" lon="6.00011">
        <ele>729.3</ele>
        <time>2014-03-19T14:25:27Z</time>
      </trkpt>
      <trkpt lat="45.56145" lon="5.99993">
        <ele>731.7</ele>
        <time>2014-03-19T14:25:44Z</time>
      </trkpt>
      <trkpt lat="45.56159" lon="5.99971">
        <ele>734.58</ele>
        <time>2014-03-19T14:25:58Z</time>
      </trkpt>
      <trkpt lat="45.56173" lon="5.99946">
        <ele>736.99</ele>
        <time>2014-03-19T14:26:12Z</time>
      </trkpt>
      <trkpt lat="45.5619" lon="5.99917">
        <ele>740.35</ele>
        <time>2014-03-19T14:26:27Z</time>
      </trkpt>
      <trkpt lat="45.56205" lon="5.9989">
        <ele>743.24</ele>
        <time>2014-03-19T14:26:42Z</time>
      </trkpt>
      <trkpt lat="45.56219" lon="5.99874">
        <ele>745.64</ele>
        <time>2014-03-19T14:26:54Z</time>
      </trkpt>
      <trkpt lat="45.56234" lon="5.99841">
        <ele>748.04</ele>
        <time>2014-03-19T14:27:10Z</time>
      </trkpt>
      <trkpt lat="45.56248" lon="5.99813">
        <ele>750.45</ele>
        <time>2014-03-19T14:27:24Z</time>
      </trkpt>
      <trkpt lat="45.56263" lon="5.99793">
        <ele>753.33</ele>
        <time>2014-03-19T14:27:36Z</time>
      </trkpt>
      <trkpt lat="45.56272" lon="5.9979">
        <ele>754.29</ele>
        <time>2014-03-19T14:27:42Z</time>
      </trkpt>
      <trkpt lat="45.563" lon="5.998">
        <ele>756.21</ele>
        <time>2014-03-19T14:27:57Z</time>
      </trkpt>
      <trkpt lat="45.56327" lon="5.99832">
        <ele>757.66</ele>
        <time>2014-03-19T14:28:13Z</time>
      </trkpt>
      <trkpt lat="45.56357" lon="5.99846">
        <ele>759.1</ele>
        <time>2014-03-19T14:28:26Z</time>
      </trkpt>
      <trkpt lat="45.56372" lon="5.99845">
        <ele>760.54</ele>
        <time>2014-03-19T14:28:32Z</time>
      </trkpt>
      <trkpt lat="45.56368" lon="5.99864">
        <ele>761.98</ele>
        <time>2014-03-19T14:28:42Z</time>
      </trkpt>
      <trkpt lat="45.56329" lon="5.99866">
        <ele>764.87</ele>
        <time>2014-03-19T14:28:56Z</time>
      </trkpt>
      <trkpt lat="45.56298" lon="5.99868">
        <ele>768.23</ele>
        <time>2014-03-19T14:29:08Z</time>
      </trkpt>
      <trkpt lat="45.5627" lon="5.99868">
        <ele>771.11</ele>
        <time>2014-03-19T14:29:20Z</time>
      </trkpt>
      <trkpt lat="45.56249" lon="5.99895">
        <ele>772.56</ele>
        <time>2014-03-19T14:29:32Z</time>
      </trkpt>
      <trkpt lat="45.56226" lon="5.99946">
        <ele>772.08</ele>
        <time>2014-03-19T14:29:47Z</time>
      </trkpt>
      <trkpt lat="45.56213" lon="6.00004">
        <ele>774</ele>
        <time>2014-03-19T14:30:01Z</time>
      </trkpt>
      <trkpt lat="45.56203" lon="6.00073">
        <ele>773.04</ele>
        <time>2014-03-19T14:30:17Z</time>
      </trkpt>
      <trkpt lat="45.56198" lon="6.00102">
        <ele>772.08</ele>
        <time>2014-03-19T14:30:21Z</time>
      </trkpt>
      <trkpt lat="45.56192" lon="6.00128">
        <ele>771.11</ele>
        <time>2014-03-19T14:30:24Z</time>
      </trkpt>
      <trkpt lat="45.56186" lon="6.00194">
        <ele>770.15</ele>
        <time>2014-03-19T14:30:32Z</time>
      </trkpt>
      <trkpt lat="45.56186" lon="6.00201">
        <ele>769.19</ele>
        <time>2014-03-19T14:30:33Z</time>
      </trkpt>
      <trkpt lat="45.56188" lon="6.00208">
        <ele>769.19</ele>
        <time>2014-03-19T14:30:34Z</time>
      </trkpt>
      <trkpt lat="45.56192" lon="6.00227">
        <ele>768.71</ele>
        <time>2014-03-19T14:30:37Z</time>
      </trkpt>
      <trkpt lat="45.56194" lon="6.00233">
        <ele>768.23</ele>
        <time>2014-03-19T14:30:38Z</time>
      </trkpt>
      <trkpt lat="45.56194" lon="6.00239">
        <ele>768.23</ele>
        <time>2014-03-19T14:30:39Z</time>
      </trkpt>
      <trkpt lat="45.56195" lon="6.00244">
        <ele>768.71</ele>
        <time>2014-03-19T14:30:40Z</time>
      </trkpt>
      <trkpt lat="45.56197" lon="6.00248">
        <ele>767.75</ele>
        <time>2014-03-19T14:30:41Z</time>
      </trkpt>
      <trkpt lat="45.56197" lon="6.00253">
        <ele>767.27</ele>
        <time>2014-03-19T14:30:42Z</time>
      </trkpt>
      <trkpt lat="45.56204" lon="6.00287">
        <ele>764.87</ele>
        <time>2014-03-19T14:30:48Z</time>
      </trkpt>
      <trkpt lat="45.56204" lon="6.00294">
        <ele>764.87</ele>
        <time>2014-03-19T14:30:49Z</time>
      </trkpt>
      <trkpt lat="45.56206" lon="6.00301">
        <ele>764.39</ele>
        <time>2014-03-19T14:30:50Z</time>
      </trkpt>
      <trkpt lat="45.56213" lon="6.00319">
        <ele>763.42</ele>
        <time>2014-03-19T14:30:53Z</time>
      </trkpt>
      <trkpt lat="45.56217" lon="6.00325">
        <ele>762.94</ele>
        <time>2014-03-19T14:30:54Z</time>
      </trkpt>
      <trkpt lat="45.56225" lon="6.00336">
        <ele>761.98</ele>
        <time>2014-03-19T14:30:56Z</time>
      </trkpt>
      <trkpt lat="45.56249" lon="6.00373">
        <ele>760.54</ele>
        <time>2014-03-19T14:31:02Z</time>
      </trkpt>
      <trkpt lat="45.56254" lon="6.00378">
        <ele>760.54</ele>
        <time>2014-03-19T14:31:03Z</time>
      </trkpt>
      <trkpt lat="45.56259" lon="6.00382">
        <ele>759.58</ele>
        <time>2014-03-19T14:31:04Z</time>
      </trkpt>
      <trkpt lat="45.56264" lon="6.00385">
        <ele>759.58</ele>
        <time>2014-03-19T14:31:05Z</time>
      </trkpt>
      <trkpt lat="45.56269" lon="6.00387">
        <ele>759.1</ele>
        <time>2014-03-19T14:31:06Z</time>
      </trkpt>
      <trkpt lat="45.56303" lon="6.00412">
        <ele>755.73</ele>
        <time>2014-03-19T14:31:13Z</time>
      </trkpt>
      <trkpt lat="45.56318" lon="6.00424">
        <ele>753.81</ele>
        <time>2014-03-19T14:31:16Z</time>
      </trkpt>
      <trkpt lat="45.56331" lon="6.00434">
        <ele>752.37</ele>
        <time>2014-03-19T14:31:19Z</time>
      </trkpt>
      <trkpt lat="45.5634" lon="6.00444">
        <ele>751.41</ele>
        <time>2014-03-19T14:31:21Z</time>
      </trkpt>
      <trkpt lat="45.56345" lon="6.00449">
        <ele>750.93</ele>
        <time>2014-03-19T14:31:22Z</time>
      </trkpt>
      <trkpt lat="45.56374" lon="6.00482">
        <ele>749.97</ele>
        <time>2014-03-19T14:31:28Z</time>
      </trkpt>
      <trkpt lat="45.56377" lon="6.00487">
        <ele>749.97</ele>
        <time>2014-03-19T14:31:29Z</time>
      </trkpt>
      <trkpt lat="45.56387" lon="6.00505">
        <ele>749.49</ele>
        <time>2014-03-19T14:31:32Z</time>
      </trkpt>
      <trkpt lat="45.56401" lon="6.00528">
        <ele>748.04</ele>
        <time>2014-03-19T14:31:36Z</time>
      </trkpt>
      <trkpt lat="45.56409" lon="6.00541">
        <ele>747.56</ele>
        <time>2014-03-19T14:31:38Z</time>
      </trkpt>
      <trkpt lat="45.56438" lon="6.00579">
        <ele>744.2</ele>
        <time>2014-03-19T14:31:45Z</time>
      </trkpt>
      <trkpt lat="45.56452" lon="6.00601">
        <ele>743.24</ele>
        <time>2014-03-19T14:31:49Z</time>
      </trkpt>
      <trkpt lat="45.56456" lon="6.00605">
        <ele>742.76</ele>
        <time>2014-03-19T14:31:50Z</time>
      </trkpt>
      <trkpt lat="45.56461" lon="6.00607">
        <ele>741.79</ele>
        <time>2014-03-19T14:31:51Z</time>
      </trkpt>
      <trkpt lat="45.56467" lon="6.0061">
        <ele>740.83</ele>
        <time>2014-03-19T14:31:52Z</time>
      </trkpt>
      <trkpt lat="45.56472" lon="6.00612">
        <ele>740.83</ele>
        <time>2014-03-19T14:31:53Z</time>
      </trkpt>
      <trkpt lat="45.56514" lon="6.00628">
        <ele>737.95</ele>
        <time>2014-03-19T14:32:01Z</time>
      </trkpt>
      <trkpt lat="45.56519" lon="6.00632">
        <ele>737.47</ele>
        <time>2014-03-19T14:32:02Z</time>
      </trkpt>
      <trkpt lat="45.56529" lon="6.0064">
        <ele>736.51</ele>
        <time>2014-03-19T14:32:04Z</time>
      </trkpt>
      <trkpt lat="45.56564" lon="6.00671">
        <ele>733.14</ele>
        <time>2014-03-19T14:32:11Z</time>
      </trkpt>
      <trkpt lat="45.56591" lon="6.00692">
        <ele>730.74</ele>
        <time>2014-03-19T14:32:16Z</time>
      </trkpt>
      <trkpt lat="45.56597" lon="6.00695">
        <ele>730.74</ele>
        <time>2014-03-19T14:32:17Z</time>
      </trkpt>
      <trkpt lat="45.56603" lon="6.00697">
        <ele>730.26</ele>
        <time>2014-03-19T14:32:18Z</time>
      </trkpt>
      <trkpt lat="45.56609" lon="6.00698">
        <ele>729.3</ele>
        <time>2014-03-19T14:32:19Z</time>
      </trkpt>
      <trkpt lat="45.56614" lon="6.00698">
        <ele>729.3</ele>
        <time>2014-03-19T14:32:20Z</time>
      </trkpt>
      <trkpt lat="45.56619" lon="6.00698">
        <ele>729.3</ele>
        <time>2014-03-19T14:32:21Z</time>
      </trkpt>
      <trkpt lat="45.56623" lon="6.00698">
        <ele>728.82</ele>
        <time>2014-03-19T14:32:22Z</time>
      </trkpt>
      <trkpt lat="45.56626" lon="6.00701">
        <ele>728.34</ele>
        <time>2014-03-19T14:32:23Z</time>
      </trkpt>
      <trkpt lat="45.56628" lon="6.00706">
        <ele>727.37</ele>
        <time>2014-03-19T14:32:24Z</time>
      </trkpt>
      <trkpt lat="45.5663" lon="6.00712">
        <ele>726.89</ele>
        <time>2014-03-19T14:32:25Z</time>
      </trkpt>
      <trkpt lat="45.56632" lon="6.00719">
        <ele>726.89</ele>
        <time>2014-03-19T14:32:26Z</time>
      </trkpt>
      <trkpt lat="45.56634" lon="6.00726">
        <ele>725.93</ele>
        <time>2014-03-19T14:32:27Z</time>
      </trkpt>
      <trkpt lat="45.56638" lon="6.00739">
        <ele>724.49</ele>
        <time>2014-03-19T14:32:29Z</time>
      </trkpt>
      <trkpt lat="45.56641" lon="6.00743">
        <ele>724.49</ele>
        <time>2014-03-19T14:32:30Z</time>
      </trkpt>
      <trkpt lat="45.56645" lon="6.00745">
        <ele>723.53</ele>
        <time>2014-03-19T14:32:31Z</time>
      </trkpt>
      <trkpt lat="45.56649" lon="6.00748">
        <ele>722.57</ele>
        <time>2014-03-19T14:32:32Z</time>
      </trkpt>
      <trkpt lat="45.56652" lon="6.00753">
        <ele>722.57</ele>
        <time>2014-03-19T14:32:33Z</time>
      </trkpt>
      <trkpt lat="45.56655" lon="6.00759">
        <ele>721.13</ele>
        <time>2014-03-19T14:32:34Z</time>
      </trkpt>
      <trkpt lat="45.56657" lon="6.00767">
        <ele>720.65</ele>
        <time>2014-03-19T14:32:35Z</time>
      </trkpt>
      <trkpt lat="45.56659" lon="6.00774">
        <ele>719.68</ele>
        <time>2014-03-19T14:32:36Z</time>
      </trkpt>
      <trkpt lat="45.56661" lon="6.00781">
        <ele>719.2</ele>
        <time>2014-03-19T14:32:37Z</time>
      </trkpt>
      <trkpt lat="45.56663" lon="6.00788">
        <ele>719.2</ele>
        <time>2014-03-19T14:32:38Z</time>
      </trkpt>
      <trkpt lat="45.56664" lon="6.00795">
        <ele>718.72</ele>
        <time>2014-03-19T14:32:39Z</time>
      </trkpt>
      <trkpt lat="45.56663" lon="6.00801">
        <ele>718.24</ele>
        <time>2014-03-19T14:32:40Z</time>
      </trkpt>
      <trkpt lat="45.56662" lon="6.00808">
        <ele>717.28</ele>
        <time>2014-03-19T14:32:41Z</time>
      </trkpt>
      <trkpt lat="45.5666" lon="6.00814">
        <ele>717.28</ele>
        <time>2014-03-19T14:32:42Z</time>
      </trkpt>
      <trkpt lat="45.56657" lon="6.0082">
        <ele>716.8</ele>
        <time>2014-03-19T14:32:43Z</time>
      </trkpt>
      <trkpt lat="45.56654" lon="6.00826">
        <ele>716.32</ele>
        <time>2014-03-19T14:32:44Z</time>
      </trkpt>
      <trkpt lat="45.5665" lon="6.00832">
        <ele>715.84</ele>
        <time>2014-03-19T14:32:45Z</time>
      </trkpt>
      <trkpt lat="45.56646" lon="6.00838">
        <ele>714.88</ele>
        <time>2014-03-19T14:32:46Z</time>
      </trkpt>
      <trkpt lat="45.56601" lon="6.00931">
        <ele>711.51</ele>
        <time>2014-03-19T14:32:59Z</time>
      </trkpt>
      <trkpt lat="45.56582" lon="6.00966">
        <ele>711.03</ele>
        <time>2014-03-19T14:33:04Z</time>
      </trkpt>
      <trkpt lat="45.56578" lon="6.00973">
        <ele>711.03</ele>
        <time>2014-03-19T14:33:05Z</time>
      </trkpt>
      <trkpt lat="45.56577" lon="6.00981">
        <ele>711.03</ele>
        <time>2014-03-19T14:33:06Z</time>
      </trkpt>
      <trkpt lat="45.56569" lon="6.01011">
        <ele>709.59</ele>
        <time>2014-03-19T14:33:10Z</time>
      </trkpt>
      <trkpt lat="45.56566" lon="6.01017">
        <ele>710.55</ele>
        <time>2014-03-19T14:33:11Z</time>
      </trkpt>
      <trkpt lat="45.56563" lon="6.01023">
        <ele>710.07</ele>
        <time>2014-03-19T14:33:12Z</time>
      </trkpt>
      <trkpt lat="45.56557" lon="6.01034">
        <ele>710.55</ele>
        <time>2014-03-19T14:33:14Z</time>
      </trkpt>
      <trkpt lat="45.56554" lon="6.01039">
        <ele>710.55</ele>
        <time>2014-03-19T14:33:15Z</time>
      </trkpt>
      <trkpt lat="45.5654" lon="6.01062">
        <ele>710.07</ele>
        <time>2014-03-19T14:33:20Z</time>
      </trkpt>
      <trkpt lat="45.56537" lon="6.01066">
        <ele>710.55</ele>
        <time>2014-03-19T14:33:21Z</time>
      </trkpt>
      <trkpt lat="45.56512" lon="6.01136">
        <ele>711.99</ele>
        <time>2014-03-19T14:33:35Z</time>
      </trkpt>
      <trkpt lat="45.56511" lon="6.0114">
        <ele>711.51</ele>
        <time>2014-03-19T14:33:36Z</time>
      </trkpt>
      <trkpt lat="45.56508" lon="6.01142">
        <ele>711.99</ele>
        <time>2014-03-19T14:33:37Z</time>
      </trkpt>
      <trkpt lat="45.56505" lon="6.01142">
        <ele>711.99</ele>
        <time>2014-03-19T14:33:38Z</time>
      </trkpt>
      <trkpt lat="45.56502" lon="6.01143">
        <ele>712.95</ele>
        <time>2014-03-19T14:33:39Z</time>
      </trkpt>
      <trkpt lat="45.565" lon="6.01143">
        <ele>712.47</ele>
        <time>2014-03-19T14:33:40Z</time>
      </trkpt>
      <trkpt lat="45.56498" lon="6.01143">
        <ele>713.44</ele>
        <time>2014-03-19T14:33:41Z</time>
      </trkpt>
      <trkpt lat="45.56496" lon="6.01143">
        <ele>713.44</ele>
        <time>2014-03-19T14:33:42Z</time>
      </trkpt>
      <trkpt lat="45.56493" lon="6.01142">
        <ele>712.95</ele>
        <time>2014-03-19T14:33:43Z</time>
      </trkpt>
      <trkpt lat="45.56492" lon="6.01142">
        <ele>713.44</ele>
        <time>2014-03-19T14:33:44Z</time>
      </trkpt>
      <trkpt lat="45.56489" lon="6.01141">
        <ele>713.44</ele>
        <time>2014-03-19T14:33:45Z</time>
      </trkpt>
      <trkpt lat="45.56479" lon="6.01138">
        <ele>715.36</ele>
        <time>2014-03-19T14:33:50Z</time>
      </trkpt>
      <trkpt lat="45.56461" lon="6.01119">
        <ele>718.24</ele>
        <time>2014-03-19T14:34:02Z</time>
      </trkpt>
      <trkpt lat="45.5646" lon="6.01118">
        <ele>717.76</ele>
        <time>2014-03-19T14:34:03Z</time>
      </trkpt>
      <trkpt lat="45.56458" lon="6.01117">
        <ele>717.28</ele>
        <time>2014-03-19T14:34:04Z</time>
      </trkpt>
      <trkpt lat="45.56457" lon="6.01116">
        <ele>717.76</ele>
        <time>2014-03-19T14:34:05Z</time>
      </trkpt>
      <trkpt lat="45.56456" lon="6.01114">
        <ele>717.76</ele>
        <time>2014-03-19T14:34:06Z</time>
      </trkpt>
      <trkpt lat="45.56455" lon="6.01113">
        <ele>717.76</ele>
        <time>2014-03-19T14:34:07Z</time>
      </trkpt>
      <trkpt lat="45.56454" lon="6.01112">
        <ele>718.24</ele>
        <time>2014-03-19T14:34:08Z</time>
      </trkpt>
      <trkpt lat="45.56453" lon="6.0111">
        <ele>717.76</ele>
        <time>2014-03-19T14:34:09Z</time>
      </trkpt>
      <trkpt lat="45.56438" lon="6.01084">
        <ele>721.13</ele>
        <time>2014-03-19T14:34:23Z</time>
      </trkpt>
      <trkpt lat="45.56416" lon="6.01055">
        <ele>724.01</ele>
        <time>2014-03-19T14:34:40Z</time>
      </trkpt>
      <trkpt lat="45.56405" lon="6.01029">
        <ele>726.89</ele>
        <time>2014-03-19T14:34:54Z</time>
      </trkpt>
      <trkpt lat="45.56392" lon="6.01029">
        <ele>729.3</ele>
        <time>2014-03-19T14:35:07Z</time>
      </trkpt>
      <trkpt lat="45.5639" lon="6.0103">
        <ele>729.3</ele>
        <time>2014-03-19T14:35:09Z</time>
      </trkpt>
      <trkpt lat="45.56377" lon="6.01039">
        <ele>732.66</ele>
        <time>2014-03-19T14:35:20Z</time>
      </trkpt>
      <trkpt lat="45.5636" lon="6.01046">
        <ele>735.07</ele>
        <time>2014-03-19T14:35:33Z</time>
      </trkpt>
      <trkpt lat="45.56358" lon="6.01045">
        <ele>735.55</ele>
        <time>2014-03-19T14:35:34Z</time>
      </trkpt>
      <trkpt lat="45.56355" lon="6.01047">
        <ele>736.03</ele>
        <time>2014-03-19T14:35:37Z</time>
      </trkpt>
      <trkpt lat="45.56351" lon="6.01053">
        <ele>737.47</ele>
        <time>2014-03-19T14:35:43Z</time>
      </trkpt>
      <trkpt lat="45.56336" lon="6.01057">
        <ele>740.83</ele>
        <time>2014-03-19T14:35:56Z</time>
      </trkpt>
      <trkpt lat="45.56335" lon="6.01057">
        <ele>740.83</ele>
        <time>2014-03-19T14:35:57Z</time>
      </trkpt>
      <trkpt lat="45.56315" lon="6.01058">
        <ele>742.76</ele>
        <time>2014-03-19T14:36:12Z</time>
      </trkpt>
      <trkpt lat="45.56297" lon="6.01063">
        <ele>745.16</ele>
        <time>2014-03-19T14:36:29Z</time>
      </trkpt>
      <trkpt lat="45.56275" lon="6.01068">
        <ele>744.2</ele>
        <time>2014-03-19T14:36:44Z</time>
      </trkpt>
      <trkpt lat="45.56254" lon="6.01052">
        <ele>746.12</ele>
        <time>2014-03-19T14:36:55Z</time>
      </trkpt>
      <trkpt lat="45.56236" lon="6.01022">
        <ele>748.52</ele>
        <time>2014-03-19T14:37:09Z</time>
      </trkpt>
      <trkpt lat="45.56232" lon="6.00988">
        <ele>751.89</ele>
        <time>2014-03-19T14:37:21Z</time>
      </trkpt>
      <trkpt lat="45.56216" lon="6.00956">
        <ele>753.81</ele>
        <time>2014-03-19T14:37:36Z</time>
      </trkpt>
      <trkpt lat="45.56192" lon="6.00942">
        <ele>756.69</ele>
        <time>2014-03-19T14:37:49Z</time>
      </trkpt>
      <trkpt lat="45.56165" lon="6.00925">
        <ele>759.58</ele>
        <time>2014-03-19T14:38:05Z</time>
      </trkpt>
      <trkpt lat="45.56134" lon="6.00921">
        <ele>762.46</ele>
        <time>2014-03-19T14:38:22Z</time>
      </trkpt>
      <trkpt lat="45.56112" lon="6.00934">
        <ele>765.35</ele>
        <time>2014-03-19T14:38:36Z</time>
      </trkpt>
      <trkpt lat="45.56084" lon="6.00945">
        <ele>768.71</ele>
        <time>2014-03-19T14:38:52Z</time>
      </trkpt>
      <trkpt lat="45.56055" lon="6.00963">
        <ele>771.6</ele>
        <time>2014-03-19T14:39:09Z</time>
      </trkpt>
      <trkpt lat="45.56052" lon="6.00966">
        <ele>771.6</ele>
        <time>2014-03-19T14:39:11Z</time>
      </trkpt>
      <trkpt lat="45.56037" lon="6.01">
        <ele>774.48</ele>
        <time>2014-03-19T14:39:26Z</time>
      </trkpt>
      <trkpt lat="45.56023" lon="6.01027">
        <ele>776.88</ele>
        <time>2014-03-19T14:39:39Z</time>
      </trkpt>
      <trkpt lat="45.56006" lon="6.01057">
        <ele>779.29</ele>
        <time>2014-03-19T14:39:54Z</time>
      </trkpt>
      <trkpt lat="45.55984" lon="6.01077">
        <ele>782.17</ele>
        <time>2014-03-19T14:40:08Z</time>
      </trkpt>
      <trkpt lat="45.55972" lon="6.01097">
        <ele>785.53</ele>
        <time>2014-03-19T14:40:19Z</time>
      </trkpt>
      <trkpt lat="45.55958" lon="6.01126">
        <ele>787.46</ele>
        <time>2014-03-19T14:40:32Z</time>
      </trkpt>
      <trkpt lat="45.55942" lon="6.01153">
        <ele>789.86</ele>
        <time>2014-03-19T14:40:46Z</time>
      </trkpt>
      <trkpt lat="45.55919" lon="6.01183">
        <ele>793.22</ele>
        <time>2014-03-19T14:41:03Z</time>
      </trkpt>
      <trkpt lat="45.55903" lon="6.01208">
        <ele>795.63</ele>
        <time>2014-03-19T14:41:16Z</time>
      </trkpt>
      <trkpt lat="45.5588" lon="6.01216">
        <ele>798.03</ele>
        <time>2014-03-19T14:41:29Z</time>
      </trkpt>
      <trkpt lat="45.55848" lon="6.01213">
        <ele>800.92</ele>
        <time>2014-03-19T14:41:46Z</time>
      </trkpt>
      <trkpt lat="45.55821" lon="6.01186">
        <ele>802.84</ele>
        <time>2014-03-19T14:42:03Z</time>
      </trkpt>
      <trkpt lat="45.55803" lon="6.01164">
        <ele>804.76</ele>
        <time>2014-03-19T14:42:16Z</time>
      </trkpt>
      <trkpt lat="45.55783" lon="6.01144">
        <ele>807.16</ele>
        <time>2014-03-19T14:42:31Z</time>
      </trkpt>
      <trkpt lat="45.55771" lon="6.01158">
        <ele>809.09</ele>
        <time>2014-03-19T14:42:43Z</time>
      </trkpt>
      <trkpt lat="45.55761" lon="6.0115">
        <ele>811.01</ele>
        <time>2014-03-19T14:42:58Z</time>
      </trkpt>
      <trkpt lat="45.55759" lon="6.01147">
        <ele>811.97</ele>
        <time>2014-03-19T14:43:01Z</time>
      </trkpt>
      <trkpt lat="45.55755" lon="6.01133">
        <ele>814.37</ele>
        <time>2014-03-19T14:43:16Z</time>
      </trkpt>
      <trkpt lat="45.55749" lon="6.01127">
        <ele>817.74</ele>
        <time>2014-03-19T14:43:30Z</time>
      </trkpt>
      <trkpt lat="45.55745" lon="6.01125">
        <ele>818.7</ele>
        <time>2014-03-19T14:43:44Z</time>
      </trkpt>
      <trkpt lat="45.55738" lon="6.01112">
        <ele>819.66</ele>
        <time>2014-03-19T14:43:59Z</time>
      </trkpt>
      <trkpt lat="45.55735" lon="6.0111">
        <ele>820.62</ele>
        <time>2014-03-19T14:44:01Z</time>
      </trkpt>
      <trkpt lat="45.55731" lon="6.01107">
        <ele>821.58</ele>
        <time>2014-03-19T14:44:05Z</time>
      </trkpt>
      <trkpt lat="45.55717" lon="6.01089">
        <ele>824.95</ele>
        <time>2014-03-19T14:44:19Z</time>
      </trkpt>
      <trkpt lat="45.55705" lon="6.01067">
        <ele>828.31</ele>
        <time>2014-03-19T14:44:34Z</time>
      </trkpt>
      <trkpt lat="45.55699" lon="6.01039">
        <ele>830.24</ele>
        <time>2014-03-19T14:44:48Z</time>
      </trkpt>
      <trkpt lat="45.55697" lon="6.01008">
        <ele>831.2</ele>
        <time>2014-03-19T14:45:01Z</time>
      </trkpt>
      <trkpt lat="45.55697" lon="6.00976">
        <ele>833.6</ele>
        <time>2014-03-19T14:45:14Z</time>
      </trkpt>
      <trkpt lat="45.55698" lon="6.00971">
        <ele>834.08</ele>
        <time>2014-03-19T14:45:17Z</time>
      </trkpt>
      <trkpt lat="45.55697" lon="6.00956">
        <ele>834.56</ele>
        <time>2014-03-19T14:45:32Z</time>
      </trkpt>
      <trkpt lat="45.55697" lon="6.00957">
        <ele>834.08</ele>
        <time>2014-03-19T14:46:07Z</time>
      </trkpt>
      <trkpt lat="45.55697" lon="6.00957">
        <ele>834.56</ele>
        <time>2014-03-19T14:46:46Z</time>
      </trkpt>
      <trkpt lat="45.55697" lon="6.00957">
        <ele>834.56</ele>
        <time>2014-03-19T14:47:26Z</time>
      </trkpt>
      <trkpt lat="45.55697" lon="6.00957">
        <ele>835.04</ele>
        <time>2014-03-19T14:47:34Z</time>
      </trkpt>
      <trkpt lat="45.55685" lon="6.00934">
        <ele>835.52</ele>
        <time>2014-03-19T14:47:47Z</time>
      </trkpt>
      <trkpt lat="45.55685" lon="6.00933">
        <ele>835.52</ele>
        <time>2014-03-19T14:47:51Z</time>
      </trkpt>
      <trkpt lat="45.5568" lon="6.00927">
        <ele>835.52</ele>
        <time>2014-03-19T14:47:55Z</time>
      </trkpt>
      <trkpt lat="45.5564" lon="6.00901">
        <ele>835.04</ele>
        <time>2014-03-19T14:48:09Z</time>
      </trkpt>
      <trkpt lat="45.55631" lon="6.00891">
        <ele>834.08</ele>
        <time>2014-03-19T14:48:12Z</time>
      </trkpt>
      <trkpt lat="45.55602" lon="6.00848">
        <ele>831.2</ele>
        <time>2014-03-19T14:48:20Z</time>
      </trkpt>
      <trkpt lat="45.55598" lon="6.0084">
        <ele>830.72</ele>
        <time>2014-03-19T14:48:21Z</time>
      </trkpt>
      <trkpt lat="45.55584" lon="6.00796">
        <ele>829.76</ele>
        <time>2014-03-19T14:48:26Z</time>
      </trkpt>
      <trkpt lat="45.55569" lon="6.0076">
        <ele>828.79</ele>
        <time>2014-03-19T14:48:31Z</time>
      </trkpt>
      <trkpt lat="45.55553" lon="6.00707">
        <ele>826.87</ele>
        <time>2014-03-19T14:48:38Z</time>
      </trkpt>
      <trkpt lat="45.5555" lon="6.00699">
        <ele>826.39</ele>
        <time>2014-03-19T14:48:39Z</time>
      </trkpt>
      <trkpt lat="45.55546" lon="6.00693">
        <ele>825.91</ele>
        <time>2014-03-19T14:48:40Z</time>
      </trkpt>
      <trkpt lat="45.55541" lon="6.00687">
        <ele>824.47</ele>
        <time>2014-03-19T14:48:41Z</time>
      </trkpt>
      <trkpt lat="45.55536" lon="6.00683">
        <ele>824.95</ele>
        <time>2014-03-19T14:48:42Z</time>
      </trkpt>
      <trkpt lat="45.55531" lon="6.00679">
        <ele>823.99</ele>
        <time>2014-03-19T14:48:43Z</time>
      </trkpt>
      <trkpt lat="45.55516" lon="6.00668">
        <ele>823.03</ele>
        <time>2014-03-19T14:48:46Z</time>
      </trkpt>
      <trkpt lat="45.55512" lon="6.00667">
        <ele>822.55</ele>
        <time>2014-03-19T14:48:47Z</time>
      </trkpt>
      <trkpt lat="45.55504" lon="6.00669">
        <ele>820.62</ele>
        <time>2014-03-19T14:48:49Z</time>
      </trkpt>
      <trkpt lat="45.55501" lon="6.00672">
        <ele>820.14</ele>
        <time>2014-03-19T14:48:50Z</time>
      </trkpt>
      <trkpt lat="45.55498" lon="6.00676">
        <ele>819.66</ele>
        <time>2014-03-19T14:48:51Z</time>
      </trkpt>
      <trkpt lat="45.55495" lon="6.0068">
        <ele>818.22</ele>
        <time>2014-03-19T14:48:52Z</time>
      </trkpt>
      <trkpt lat="45.55491" lon="6.00684">
        <ele>817.74</ele>
        <time>2014-03-19T14:48:53Z</time>
      </trkpt>
      <trkpt lat="45.5548" lon="6.00699">
        <ele>815.82</ele>
        <time>2014-03-19T14:48:57Z</time>
      </trkpt>
      <trkpt lat="45.55478" lon="6.00711">
        <ele>814.85</ele>
        <time>2014-03-19T14:49:00Z</time>
      </trkpt>
      <trkpt lat="45.55476" lon="6.00735">
        <ele>812.45</ele>
        <time>2014-03-19T14:49:06Z</time>
      </trkpt>
      <trkpt lat="45.55474" lon="6.00742">
        <ele>811.97</ele>
        <time>2014-03-19T14:49:09Z</time>
      </trkpt>
      <trkpt lat="45.55473" lon="6.00749">
        <ele>811.49</ele>
        <time>2014-03-19T14:49:19Z</time>
      </trkpt>
      <trkpt lat="45.55472" lon="6.00751">
        <ele>811.49</ele>
        <time>2014-03-19T14:49:20Z</time>
      </trkpt>
      <trkpt lat="45.55472" lon="6.00754">
        <ele>811.49</ele>
        <time>2014-03-19T14:49:21Z</time>
      </trkpt>
      <trkpt lat="45.55471" lon="6.00758">
        <ele>811.49</ele>
        <time>2014-03-19T14:49:22Z</time>
      </trkpt>
      <trkpt lat="45.55471" lon="6.00763">
        <ele>811.01</ele>
        <time>2014-03-19T14:49:23Z</time>
      </trkpt>
      <trkpt lat="45.55471" lon="6.00767">
        <ele>810.53</ele>
        <time>2014-03-19T14:49:24Z</time>
      </trkpt>
      <trkpt lat="45.5547" lon="6.00772">
        <ele>810.53</ele>
        <time>2014-03-19T14:49:25Z</time>
      </trkpt>
      <trkpt lat="45.55469" lon="6.00777">
        <ele>810.05</ele>
        <time>2014-03-19T14:49:26Z</time>
      </trkpt>
      <trkpt lat="45.55468" lon="6.00781">
        <ele>809.57</ele>
        <time>2014-03-19T14:49:27Z</time>
      </trkpt>
      <trkpt lat="45.55462" lon="6.00807">
        <ele>807.16</ele>
        <time>2014-03-19T14:49:37Z</time>
      </trkpt>
      <trkpt lat="45.55461" lon="6.0081">
        <ele>807.64</ele>
        <time>2014-03-19T14:49:55Z</time>
      </trkpt>
      <trkpt lat="45.55461" lon="6.00812">
        <ele>807.16</ele>
        <time>2014-03-19T14:49:58Z</time>
      </trkpt>
      <trkpt lat="45.5546" lon="6.00815">
        <ele>807.16</ele>
        <time>2014-03-19T14:49:59Z</time>
      </trkpt>
      <trkpt lat="45.55459" lon="6.00819">
        <ele>806.68</ele>
        <time>2014-03-19T14:50:00Z</time>
      </trkpt>
      <trkpt lat="45.55458" lon="6.00823">
        <ele>806.68</ele>
        <time>2014-03-19T14:50:01Z</time>
      </trkpt>
      <trkpt lat="45.55457" lon="6.00826">
        <ele>806.2</ele>
        <time>2014-03-19T14:50:02Z</time>
      </trkpt>
      <trkpt lat="45.55452" lon="6.00856">
        <ele>801.88</ele>
        <time>2014-03-19T14:50:09Z</time>
      </trkpt>
      <trkpt lat="45.55455" lon="6.00867">
        <ele>800.92</ele>
        <time>2014-03-19T14:50:11Z</time>
      </trkpt>
      <trkpt lat="45.55462" lon="6.00896">
        <ele>797.07</ele>
        <time>2014-03-19T14:50:18Z</time>
      </trkpt>
      <trkpt lat="45.55467" lon="6.00908">
        <ele>795.15</ele>
        <time>2014-03-19T14:50:21Z</time>
      </trkpt>
      <trkpt lat="45.5547" lon="6.00913">
        <ele>793.71</ele>
        <time>2014-03-19T14:50:23Z</time>
      </trkpt>
      <trkpt lat="45.55473" lon="6.00917">
        <ele>793.22</ele>
        <time>2014-03-19T14:50:30Z</time>
      </trkpt>
      <trkpt lat="45.55473" lon="6.00919">
        <ele>792.74</ele>
        <time>2014-03-19T14:50:31Z</time>
      </trkpt>
      <trkpt lat="45.55473" lon="6.00921">
        <ele>792.74</ele>
        <time>2014-03-19T14:50:32Z</time>
      </trkpt>
      <trkpt lat="45.55475" lon="6.00924">
        <ele>792.26</ele>
        <time>2014-03-19T14:50:33Z</time>
      </trkpt>
      <trkpt lat="45.55478" lon="6.00928">
        <ele>791.3</ele>
        <time>2014-03-19T14:50:34Z</time>
      </trkpt>
      <trkpt lat="45.55481" lon="6.00932">
        <ele>790.34</ele>
        <time>2014-03-19T14:50:35Z</time>
      </trkpt>
      <trkpt lat="45.55484" lon="6.00935">
        <ele>789.86</ele>
        <time>2014-03-19T14:50:36Z</time>
      </trkpt>
      <trkpt lat="45.55486" lon="6.00939">
        <ele>789.38</ele>
        <time>2014-03-19T14:50:37Z</time>
      </trkpt>
      <trkpt lat="45.55488" lon="6.00943">
        <ele>788.9</ele>
        <time>2014-03-19T14:50:38Z</time>
      </trkpt>
      <trkpt lat="45.5549" lon="6.00946">
        <ele>788.42</ele>
        <time>2014-03-19T14:50:39Z</time>
      </trkpt>
      <trkpt lat="45.55491" lon="6.00949">
        <ele>788.42</ele>
        <time>2014-03-19T14:50:40Z</time>
      </trkpt>
      <trkpt lat="45.55491" lon="6.00953">
        <ele>787.94</ele>
        <time>2014-03-19T14:50:41Z</time>
      </trkpt>
      <trkpt lat="45.55491" lon="6.00957">
        <ele>786.98</ele>
        <time>2014-03-19T14:50:42Z</time>
      </trkpt>
      <trkpt lat="45.55492" lon="6.0096">
        <ele>786.98</ele>
        <time>2014-03-19T14:50:43Z</time>
      </trkpt>
      <trkpt lat="45.55493" lon="6.00962">
        <ele>786.5</ele>
        <time>2014-03-19T14:50:44Z</time>
      </trkpt>
      <trkpt lat="45.555" lon="6.0098">
        <ele>784.09</ele>
        <time>2014-03-19T14:50:50Z</time>
      </trkpt>
      <trkpt lat="45.55504" lon="6.00995">
        <ele>782.17</ele>
        <time>2014-03-19T14:50:54Z</time>
      </trkpt>
      <trkpt lat="45.55516" lon="6.01021">
        <ele>779.29</ele>
        <time>2014-03-19T14:51:01Z</time>
      </trkpt>
      <trkpt lat="45.55522" lon="6.01035">
        <ele>776.88</ele>
        <time>2014-03-19T14:51:05Z</time>
      </trkpt>
      <trkpt lat="45.55528" lon="6.01052">
        <ele>773.04</ele>
        <time>2014-03-19T14:51:10Z</time>
      </trkpt>
      <trkpt lat="45.55515" lon="6.01049">
        <ele>770.63</ele>
        <time>2014-03-19T14:51:15Z</time>
      </trkpt>
      <trkpt lat="45.55507" lon="6.01041">
        <ele>769.67</ele>
        <time>2014-03-19T14:51:19Z</time>
      </trkpt>
      <trkpt lat="45.55506" lon="6.01039">
        <ele>768.71</ele>
        <time>2014-03-19T14:51:20Z</time>
      </trkpt>
      <trkpt lat="45.55499" lon="6.01034">
        <ele>768.71</ele>
        <time>2014-03-19T14:51:21Z</time>
      </trkpt>
      <trkpt lat="45.55495" lon="6.01031">
        <ele>767.75</ele>
        <time>2014-03-19T14:51:22Z</time>
      </trkpt>
      <trkpt lat="45.55483" lon="6.01022">
        <ele>766.79</ele>
        <time>2014-03-19T14:51:24Z</time>
      </trkpt>
      <trkpt lat="45.5548" lon="6.01017">
        <ele>765.83</ele>
        <time>2014-03-19T14:51:25Z</time>
      </trkpt>
      <trkpt lat="45.55479" lon="6.01013">
        <ele>765.35</ele>
        <time>2014-03-19T14:51:26Z</time>
      </trkpt>
      <trkpt lat="45.55477" lon="6.01008">
        <ele>764.39</ele>
        <time>2014-03-19T14:51:27Z</time>
      </trkpt>
      <trkpt lat="45.55475" lon="6.01004">
        <ele>763.42</ele>
        <time>2014-03-19T14:51:28Z</time>
      </trkpt>
      <trkpt lat="45.55473" lon="6.00999">
        <ele>763.42</ele>
        <time>2014-03-19T14:51:29Z</time>
      </trkpt>
      <trkpt lat="45.55462" lon="6.00992">
        <ele>762.46</ele>
        <time>2014-03-19T14:51:30Z</time>
      </trkpt>
      <trkpt lat="45.55457" lon="6.00988">
        <ele>762.46</ele>
        <time>2014-03-19T14:51:31Z</time>
      </trkpt>
      <trkpt lat="45.55456" lon="6.00988">
        <ele>761.98</ele>
        <time>2014-03-19T14:51:32Z</time>
      </trkpt>
      <trkpt lat="45.55461" lon="6.00999">
        <ele>759.58</ele>
        <time>2014-03-19T14:51:36Z</time>
      </trkpt>
      <trkpt lat="45.55461" lon="6.00999">
        <ele>758.62</ele>
        <time>2014-03-19T14:51:37Z</time>
      </trkpt>
      <trkpt lat="45.55466" lon="6.01019">
        <ele>758.62</ele>
        <time>2014-03-19T14:51:38Z</time>
      </trkpt>
      <trkpt lat="45.55468" lon="6.01026">
        <ele>758.62</ele>
        <time>2014-03-19T14:51:39Z</time>
      </trkpt>
      <trkpt lat="45.5547" lon="6.01033">
        <ele>758.14</ele>
        <time>2014-03-19T14:51:40Z</time>
      </trkpt>
      <trkpt lat="45.55477" lon="6.01061">
        <ele>754.77</ele>
        <time>2014-03-19T14:51:51Z</time>
      </trkpt>
      <trkpt lat="45.55473" lon="6.01057">
        <ele>753.81</ele>
        <time>2014-03-19T14:52:03Z</time>
      </trkpt>
      <trkpt lat="45.55471" lon="6.01056">
        <ele>752.85</ele>
        <time>2014-03-19T14:52:04Z</time>
      </trkpt>
      <trkpt lat="45.55469" lon="6.01055">
        <ele>752.37</ele>
        <time>2014-03-19T14:52:05Z</time>
      </trkpt>
      <trkpt lat="45.55467" lon="6.01054">
        <ele>752.37</ele>
        <time>2014-03-19T14:52:06Z</time>
      </trkpt>
      <trkpt lat="45.55465" lon="6.01051">
        <ele>751.89</ele>
        <time>2014-03-19T14:52:07Z</time>
      </trkpt>
      <trkpt lat="45.55463" lon="6.01049">
        <ele>751.89</ele>
        <time>2014-03-19T14:52:08Z</time>
      </trkpt>
      <trkpt lat="45.55456" lon="6.0104">
        <ele>750.45</ele>
        <time>2014-03-19T14:52:14Z</time>
      </trkpt>
      <trkpt lat="45.55455" lon="6.01039">
        <ele>749.97</ele>
        <time>2014-03-19T14:52:15Z</time>
      </trkpt>
      <trkpt lat="45.55458" lon="6.01046">
        <ele>749</ele>
        <time>2014-03-19T14:52:25Z</time>
      </trkpt>
      <trkpt lat="45.55458" lon="6.01049">
        <ele>748.52</ele>
        <time>2014-03-19T14:52:27Z</time>
      </trkpt>
      <trkpt lat="45.55457" lon="6.01054">
        <ele>746.12</ele>
        <time>2014-03-19T14:52:40Z</time>
      </trkpt>
      <trkpt lat="45.55455" lon="6.01052">
        <ele>746.12</ele>
        <time>2014-03-19T14:52:41Z</time>
      </trkpt>
      <trkpt lat="45.55452" lon="6.0105">
        <ele>745.64</ele>
        <time>2014-03-19T14:52:42Z</time>
      </trkpt>
      <trkpt lat="45.55449" lon="6.01047">
        <ele>745.16</ele>
        <time>2014-03-19T14:52:43Z</time>
      </trkpt>
      <trkpt lat="45.55446" lon="6.01044">
        <ele>745.16</ele>
        <time>2014-03-19T14:52:44Z</time>
      </trkpt>
      <trkpt lat="45.55443" lon="6.01041">
        <ele>744.68</ele>
        <time>2014-03-19T14:52:45Z</time>
      </trkpt>
      <trkpt lat="45.5544" lon="6.01039">
        <ele>744.2</ele>
        <time>2014-03-19T14:52:46Z</time>
      </trkpt>
      <trkpt lat="45.55437" lon="6.01036">
        <ele>744.2</ele>
        <time>2014-03-19T14:52:47Z</time>
      </trkpt>
      <trkpt lat="45.55431" lon="6.0103">
        <ele>742.76</ele>
        <time>2014-03-19T14:52:49Z</time>
      </trkpt>
      <trkpt lat="45.55415" lon="6.01015">
        <ele>740.35</ele>
        <time>2014-03-19T14:52:55Z</time>
      </trkpt>
      <trkpt lat="45.5541" lon="6.01012">
        <ele>737.95</ele>
        <time>2014-03-19T14:53:06Z</time>
      </trkpt>
      <trkpt lat="45.55409" lon="6.01011">
        <ele>736.99</ele>
        <time>2014-03-19T14:53:09Z</time>
      </trkpt>
      <trkpt lat="45.55405" lon="6.0101">
        <ele>735.55</ele>
        <time>2014-03-19T14:53:12Z</time>
      </trkpt>
      <trkpt lat="45.55404" lon="6.0101">
        <ele>734.58</ele>
        <time>2014-03-19T14:53:13Z</time>
      </trkpt>
      <trkpt lat="45.55402" lon="6.01011">
        <ele>734.1</ele>
        <time>2014-03-19T14:53:14Z</time>
      </trkpt>
      <trkpt lat="45.554" lon="6.01011">
        <ele>732.66</ele>
        <time>2014-03-19T14:53:15Z</time>
      </trkpt>
      <trkpt lat="45.55399" lon="6.01013">
        <ele>732.66</ele>
        <time>2014-03-19T14:53:16Z</time>
      </trkpt>
      <trkpt lat="45.55398" lon="6.01015">
        <ele>731.7</ele>
        <time>2014-03-19T14:53:17Z</time>
      </trkpt>
      <trkpt lat="45.55397" lon="6.01017">
        <ele>731.22</ele>
        <time>2014-03-19T14:53:18Z</time>
      </trkpt>
      <trkpt lat="45.55397" lon="6.0102">
        <ele>730.74</ele>
        <time>2014-03-19T14:53:19Z</time>
      </trkpt>
      <trkpt lat="45.55396" lon="6.01022">
        <ele>730.26</ele>
        <time>2014-03-19T14:53:20Z</time>
      </trkpt>
      <trkpt lat="45.55396" lon="6.01024">
        <ele>729.3</ele>
        <time>2014-03-19T14:53:21Z</time>
      </trkpt>
      <trkpt lat="45.55401" lon="6.01039">
        <ele>726.41</ele>
        <time>2014-03-19T14:53:25Z</time>
      </trkpt>
      <trkpt lat="45.55402" lon="6.01053">
        <ele>723.05</ele>
        <time>2014-03-19T14:53:28Z</time>
      </trkpt>
      <trkpt lat="45.55402" lon="6.01055">
        <ele>723.05</ele>
        <time>2014-03-19T14:53:29Z</time>
      </trkpt>
      <trkpt lat="45.55404" lon="6.01068">
        <ele>721.13</ele>
        <time>2014-03-19T14:53:31Z</time>
      </trkpt>
      <trkpt lat="45.55404" lon="6.01075">
        <ele>720.16</ele>
        <time>2014-03-19T14:53:32Z</time>
      </trkpt>
      <trkpt lat="45.55405" lon="6.01086">
        <ele>718.24</ele>
        <time>2014-03-19T14:53:34Z</time>
      </trkpt>
      <trkpt lat="45.55411" lon="6.01114">
        <ele>714.88</ele>
        <time>2014-03-19T14:53:38Z</time>
      </trkpt>
      <trkpt lat="45.55411" lon="6.01118">
        <ele>713.92</ele>
        <time>2014-03-19T14:53:39Z</time>
      </trkpt>
      <trkpt lat="45.55413" lon="6.0114">
        <ele>710.55</ele>
        <time>2014-03-19T14:53:44Z</time>
      </trkpt>
      <trkpt lat="45.55413" lon="6.01146">
        <ele>709.59</ele>
        <time>2014-03-19T14:53:45Z</time>
      </trkpt>
      <trkpt lat="45.55415" lon="6.01159">
        <ele>706.23</ele>
        <time>2014-03-19T14:53:51Z</time>
      </trkpt>
      <trkpt lat="45.55413" lon="6.01164">
        <ele>704.3</ele>
        <time>2014-03-19T14:53:53Z</time>
      </trkpt>
      <trkpt lat="45.55409" lon="6.01169">
        <ele>700.94</ele>
        <time>2014-03-19T14:53:57Z</time>
      </trkpt>
      <trkpt lat="45.55401" lon="6.01162">
        <ele>698.53</ele>
        <time>2014-03-19T14:54:05Z</time>
      </trkpt>
      <trkpt lat="45.55391" lon="6.01151">
        <ele>696.13</ele>
        <time>2014-03-19T14:54:10Z</time>
      </trkpt>
      <trkpt lat="45.55385" lon="6.01146">
        <ele>693.25</ele>
        <time>2014-03-19T14:54:14Z</time>
      </trkpt>
      <trkpt lat="45.55381" lon="6.01145">
        <ele>692.29</ele>
        <time>2014-03-19T14:54:16Z</time>
      </trkpt>
      <trkpt lat="45.55369" lon="6.01144">
        <ele>688.44</ele>
        <time>2014-03-19T14:54:21Z</time>
      </trkpt>
      <trkpt lat="45.55359" lon="6.0114">
        <ele>685.56</ele>
        <time>2014-03-19T14:54:27Z</time>
      </trkpt>
      <trkpt lat="45.55357" lon="6.01142">
        <ele>684.6</ele>
        <time>2014-03-19T14:54:29Z</time>
      </trkpt>
      <trkpt lat="45.55362" lon="6.01145">
        <ele>683.15</ele>
        <time>2014-03-19T14:54:33Z</time>
      </trkpt>
      <trkpt lat="45.55365" lon="6.0115">
        <ele>681.71</ele>
        <time>2014-03-19T14:54:35Z</time>
      </trkpt>
      <trkpt lat="45.55368" lon="6.01163">
        <ele>677.87</ele>
        <time>2014-03-19T14:54:41Z</time>
      </trkpt>
      <trkpt lat="45.55367" lon="6.01178">
        <ele>676.42</ele>
        <time>2014-03-19T14:54:48Z</time>
      </trkpt>
      <trkpt lat="45.55368" lon="6.01176">
        <ele>675.94</ele>
        <time>2014-03-19T14:54:54Z</time>
      </trkpt>
      <trkpt lat="45.5537" lon="6.0118">
        <ele>673.06</ele>
        <time>2014-03-19T14:55:05Z</time>
      </trkpt>
      <trkpt lat="45.55371" lon="6.01182">
        <ele>671.14</ele>
        <time>2014-03-19T14:55:15Z</time>
      </trkpt>
      <trkpt lat="45.55372" lon="6.01187">
        <ele>669.22</ele>
        <time>2014-03-19T14:55:19Z</time>
      </trkpt>
      <trkpt lat="45.55372" lon="6.01188">
        <ele>669.22</ele>
        <time>2014-03-19T14:55:20Z</time>
      </trkpt>
      <trkpt lat="45.55373" lon="6.01195">
        <ele>667.29</ele>
        <time>2014-03-19T14:55:24Z</time>
      </trkpt>
      <trkpt lat="45.55373" lon="6.01205">
        <ele>663.45</ele>
        <time>2014-03-19T14:55:30Z</time>
      </trkpt>
      <trkpt lat="45.55368" lon="6.01206">
        <ele>662.49</ele>
        <time>2014-03-19T14:55:33Z</time>
      </trkpt>
      <trkpt lat="45.55359" lon="6.01203">
        <ele>657.68</ele>
        <time>2014-03-19T14:55:39Z</time>
      </trkpt>
      <trkpt lat="45.55349" lon="6.012">
        <ele>654.31</ele>
        <time>2014-03-19T14:55:43Z</time>
      </trkpt>
      <trkpt lat="45.55353" lon="6.01212">
        <ele>650.47</ele>
        <time>2014-03-19T14:55:49Z</time>
      </trkpt>
      <trkpt lat="45.55356" lon="6.01228">
        <ele>646.14</ele>
        <time>2014-03-19T14:55:54Z</time>
      </trkpt>
      <trkpt lat="45.55358" lon="6.01237">
        <ele>645.66</ele>
        <time>2014-03-19T14:55:56Z</time>
      </trkpt>
      <trkpt lat="45.55363" lon="6.01246">
        <ele>644.22</ele>
        <time>2014-03-19T14:55:58Z</time>
      </trkpt>
      <trkpt lat="45.55384" lon="6.01262">
        <ele>643.26</ele>
        <time>2014-03-19T14:56:09Z</time>
      </trkpt>
      <trkpt lat="45.55386" lon="6.01265">
        <ele>642.78</ele>
        <time>2014-03-19T14:56:20Z</time>
      </trkpt>
      <trkpt lat="45.5539" lon="6.01269">
        <ele>642.78</ele>
        <time>2014-03-19T14:56:21Z</time>
      </trkpt>
      <trkpt lat="45.55413" lon="6.01294">
        <ele>640.86</ele>
        <time>2014-03-19T14:56:29Z</time>
      </trkpt>
      <trkpt lat="45.55447" lon="6.01337">
        <ele>637.49</ele>
        <time>2014-03-19T14:56:40Z</time>
      </trkpt>
      <trkpt lat="45.55465" lon="6.01359">
        <ele>635.57</ele>
        <time>2014-03-19T14:56:48Z</time>
      </trkpt>
      <trkpt lat="45.55468" lon="6.01363">
        <ele>635.09</ele>
        <time>2014-03-19T14:56:49Z</time>
      </trkpt>
      <trkpt lat="45.55483" lon="6.0138">
        <ele>632.2</ele>
        <time>2014-03-19T14:56:54Z</time>
      </trkpt>
      <trkpt lat="45.55481" lon="6.01385">
        <ele>628.84</ele>
        <time>2014-03-19T14:57:02Z</time>
      </trkpt>
      <trkpt lat="45.55481" lon="6.01386">
        <ele>627.88</ele>
        <time>2014-03-19T14:57:03Z</time>
      </trkpt>
      <trkpt lat="45.55482" lon="6.01389">
        <ele>626.44</ele>
        <time>2014-03-19T14:57:05Z</time>
      </trkpt>
      <trkpt lat="45.55483" lon="6.01397">
        <ele>623.07</ele>
        <time>2014-03-19T14:57:09Z</time>
      </trkpt>
      <trkpt lat="45.55481" lon="6.01407">
        <ele>619.71</ele>
        <time>2014-03-19T14:57:14Z</time>
      </trkpt>
      <trkpt lat="45.55397" lon="6.01345">
        <ele>619.23</ele>
        <time>2014-03-19T14:57:15Z</time>
      </trkpt>
      <trkpt lat="45.55377" lon="6.01345">
        <ele>615.86</ele>
        <time>2014-03-19T14:57:20Z</time>
      </trkpt>
      <trkpt lat="45.55361" lon="6.0135">
        <ele>612.5</ele>
        <time>2014-03-19T14:57:24Z</time>
      </trkpt>
      <trkpt lat="45.55357" lon="6.01354">
        <ele>611.54</ele>
        <time>2014-03-19T14:57:26Z</time>
      </trkpt>
      <trkpt lat="45.55356" lon="6.01358">
        <ele>610.57</ele>
        <time>2014-03-19T14:57:27Z</time>
      </trkpt>
      <trkpt lat="45.55356" lon="6.01364">
        <ele>610.57</ele>
        <time>2014-03-19T14:57:28Z</time>
      </trkpt>
      <trkpt lat="45.55355" lon="6.01371">
        <ele>609.61</ele>
        <time>2014-03-19T14:57:29Z</time>
      </trkpt>
      <trkpt lat="45.55354" lon="6.01379">
        <ele>608.65</ele>
        <time>2014-03-19T14:57:30Z</time>
      </trkpt>
      <trkpt lat="45.55344" lon="6.01417">
        <ele>606.25</ele>
        <time>2014-03-19T14:57:34Z</time>
      </trkpt>
      <trkpt lat="45.55334" lon="6.01448">
        <ele>605.29</ele>
        <time>2014-03-19T14:57:37Z</time>
      </trkpt>
      <trkpt lat="45.55321" lon="6.01479">
        <ele>600.96</ele>
        <time>2014-03-19T14:57:40Z</time>
      </trkpt>
      <trkpt lat="45.55317" lon="6.0149">
        <ele>600.96</ele>
        <time>2014-03-19T14:57:41Z</time>
      </trkpt>
      <trkpt lat="45.55284" lon="6.01554">
        <ele>600.96</ele>
        <time>2014-03-19T14:57:48Z</time>
      </trkpt>
      <trkpt lat="45.5528" lon="6.01559">
        <ele>601.44</ele>
        <time>2014-03-19T14:57:49Z</time>
      </trkpt>
      <trkpt lat="45.55276" lon="6.01561">
        <ele>601.92</ele>
        <time>2014-03-19T14:57:50Z</time>
      </trkpt>
      <trkpt lat="45.55272" lon="6.01561">
        <ele>601.92</ele>
        <time>2014-03-19T14:57:51Z</time>
      </trkpt>
      <trkpt lat="45.55267" lon="6.0156">
        <ele>600.96</ele>
        <time>2014-03-19T14:57:52Z</time>
      </trkpt>
      <trkpt lat="45.55263" lon="6.01562">
        <ele>601.44</ele>
        <time>2014-03-19T14:57:53Z</time>
      </trkpt>
      <trkpt lat="45.55259" lon="6.01565">
        <ele>601.44</ele>
        <time>2014-03-19T14:57:54Z</time>
      </trkpt>
      <trkpt lat="45.55255" lon="6.01567">
        <ele>601.44</ele>
        <time>2014-03-19T14:57:55Z</time>
      </trkpt>
      <trkpt lat="45.55233" lon="6.01572">
        <ele>601.92</ele>
        <time>2014-03-19T14:58:05Z</time>
      </trkpt>
      <trkpt lat="45.55233" lon="6.01572">
        <ele>601.92</ele>
        <time>2014-03-19T14:58:23Z</time>
      </trkpt>
      <trkpt lat="45.5522" lon="6.01573">
        <ele>602.4</ele>
        <time>2014-03-19T14:58:34Z</time>
      </trkpt>
      <trkpt lat="45.55174" lon="6.01562">
        <ele>602.4</ele>
        <time>2014-03-19T14:58:48Z</time>
      </trkpt>
      <trkpt lat="45.5511" lon="6.01535">
        <ele>602.88</ele>
        <time>2014-03-19T14:59:04Z</time>
      </trkpt>
      <trkpt lat="45.55106" lon="6.01532">
        <ele>602.4</ele>
        <time>2014-03-19T14:59:05Z</time>
      </trkpt>
      <trkpt lat="45.55103" lon="6.01527">
        <ele>602.4</ele>
        <time>2014-03-19T14:59:06Z</time>
      </trkpt>
      <trkpt lat="45.55101" lon="6.01521">
        <ele>601.92</ele>
        <time>2014-03-19T14:59:07Z</time>
      </trkpt>
      <trkpt lat="45.551" lon="6.01515">
        <ele>600.96</ele>
        <time>2014-03-19T14:59:08Z</time>
      </trkpt>
      <trkpt lat="45.55099" lon="6.01508">
        <ele>600.96</ele>
        <time>2014-03-19T14:59:09Z</time>
      </trkpt>
      <trkpt lat="45.551" lon="6.01501">
        <ele>600</ele>
        <time>2014-03-19T14:59:10Z</time>
      </trkpt>
      <trkpt lat="45.551" lon="6.01494">
        <ele>600</ele>
        <time>2014-03-19T14:59:11Z</time>
      </trkpt>
      <trkpt lat="45.55099" lon="6.01487">
        <ele>600</ele>
        <time>2014-03-19T14:59:12Z</time>
      </trkpt>
      <trkpt lat="45.55098" lon="6.01481">
        <ele>599.04</ele>
        <time>2014-03-19T14:59:13Z</time>
      </trkpt>
      <trkpt lat="45.55097" lon="6.01474">
        <ele>599.04</ele>
        <time>2014-03-19T14:59:14Z</time>
      </trkpt>
      <trkpt lat="45.55095" lon="6.01467">
        <ele>598.56</ele>
        <time>2014-03-19T14:59:15Z</time>
      </trkpt>
      <trkpt lat="45.55093" lon="6.0146">
        <ele>598.08</ele>
        <time>2014-03-19T14:59:16Z</time>
      </trkpt>
      <trkpt lat="45.55076" lon="6.01414">
        <ele>597.12</ele>
        <time>2014-03-19T14:59:23Z</time>
      </trkpt>
      <trkpt lat="45.55072" lon="6.01402">
        <ele>596.64</ele>
        <time>2014-03-19T14:59:25Z</time>
      </trkpt>
      <trkpt lat="45.55058" lon="6.01376">
        <ele>595.19</ele>
        <time>2014-03-19T14:59:30Z</time>
      </trkpt>
      <trkpt lat="45.55037" lon="6.01317">
        <ele>592.79</ele>
        <time>2014-03-19T14:59:42Z</time>
      </trkpt>
      <trkpt lat="45.55032" lon="6.0127">
        <ele>590.87</ele>
        <time>2014-03-19T14:59:52Z</time>
      </trkpt>
      <trkpt lat="45.5503" lon="6.01238">
        <ele>589.43</ele>
        <time>2014-03-19T15:00:01Z</time>
      </trkpt>
      <trkpt lat="45.55029" lon="6.01232">
        <ele>589.43</ele>
        <time>2014-03-19T15:00:02Z</time>
      </trkpt>
      <trkpt lat="45.55024" lon="6.0121">
        <ele>588.46</ele>
        <time>2014-03-19T15:00:06Z</time>
      </trkpt>
      <trkpt lat="45.55015" lon="6.01184">
        <ele>587.98</ele>
        <time>2014-03-19T15:00:11Z</time>
      </trkpt>
      <trkpt lat="45.54997" lon="6.01135">
        <ele>586.54</ele>
        <time>2014-03-19T15:00:21Z</time>
      </trkpt>
      <trkpt lat="45.54979" lon="6.01074">
        <ele>587.98</ele>
        <time>2014-03-19T15:00:33Z</time>
      </trkpt>
      <trkpt lat="45.54953" lon="6.01042">
        <ele>588.95</ele>
        <time>2014-03-19T15:00:46Z</time>
      </trkpt>
      <trkpt lat="45.54927" lon="6.01011">
        <ele>590.39</ele>
        <time>2014-03-19T15:00:57Z</time>
      </trkpt>
      <trkpt lat="45.54885" lon="6.00965">
        <ele>590.39</ele>
        <time>2014-03-19T15:01:13Z</time>
      </trkpt>
      <trkpt lat="45.54847" lon="6.00975">
        <ele>590.87</ele>
        <time>2014-03-19T15:01:24Z</time>
      </trkpt>
      <trkpt lat="45.54825" lon="6.00939">
        <ele>589.91</ele>
        <time>2014-03-19T15:01:37Z</time>
      </trkpt>
      <trkpt lat="45.54818" lon="6.00929">
        <ele>588.46</ele>
        <time>2014-03-19T15:01:40Z</time>
      </trkpt>
      <trkpt lat="45.54786" lon="6.009">
        <ele>587.02</ele>
        <time>2014-03-19T15:01:50Z</time>
      </trkpt>
      <trkpt lat="45.54748" lon="6.00868">
        <ele>586.54</ele>
        <time>2014-03-19T15:02:04Z</time>
      </trkpt>
      <trkpt lat="45.54726" lon="6.00841">
        <ele>584.62</ele>
        <time>2014-03-19T15:02:15Z</time>
      </trkpt>
      <trkpt lat="45.54724" lon="6.00843">
        <ele>586.06</ele>
        <time>2014-03-19T15:02:18Z</time>
      </trkpt>
      <trkpt lat="45.54721" lon="6.00841">
        <ele>585.58</ele>
        <time>2014-03-19T15:02:24Z</time>
      </trkpt>
      <trkpt lat="45.54718" lon="6.00838">
        <ele>584.14</ele>
        <time>2014-03-19T15:02:27Z</time>
      </trkpt>
      <trkpt lat="45.54716" lon="6.00836">
        <ele>583.66</ele>
        <time>2014-03-19T15:02:32Z</time>
      </trkpt>
      <trkpt lat="45.54707" lon="6.00839">
        <ele>583.18</ele>
        <time>2014-03-19T15:02:37Z</time>
      </trkpt>
      <trkpt lat="45.54674" lon="6.00874">
        <ele>581.25</ele>
        <time>2014-03-19T15:02:50Z</time>
      </trkpt>
      <trkpt lat="45.5466" lon="6.00876">
        <ele>577.89</ele>
        <time>2014-03-19T15:02:56Z</time>
      </trkpt>
      <trkpt lat="45.54651" lon="6.00851">
        <ele>575.01</ele>
        <time>2014-03-19T15:03:00Z</time>
      </trkpt>
      <trkpt lat="45.5464" lon="6.00816">
        <ele>572.12</ele>
        <time>2014-03-19T15:03:04Z</time>
      </trkpt>
      <trkpt lat="45.54625" lon="6.00791">
        <ele>570.2</ele>
        <time>2014-03-19T15:03:09Z</time>
      </trkpt>
      <trkpt lat="45.54619" lon="6.00786">
        <ele>567.32</ele>
        <time>2014-03-19T15:03:12Z</time>
      </trkpt>
      <trkpt lat="45.54614" lon="6.00773">
        <ele>563.47</ele>
        <time>2014-03-19T15:03:16Z</time>
      </trkpt>
      <trkpt lat="45.54607" lon="6.00756">
        <ele>560.59</ele>
        <time>2014-03-19T15:03:19Z</time>
      </trkpt>
      <trkpt lat="45.54601" lon="6.00736">
        <ele>557.7</ele>
        <time>2014-03-19T15:03:23Z</time>
      </trkpt>
      <trkpt lat="45.54596" lon="6.00718">
        <ele>554.34</ele>
        <time>2014-03-19T15:03:27Z</time>
      </trkpt>
      <trkpt lat="45.54556" lon="6.00829">
        <ele>553.38</ele>
        <time>2014-03-19T15:03:28Z</time>
      </trkpt>
      <trkpt lat="45.54551" lon="6.0084">
        <ele>551.93</ele>
        <time>2014-03-19T15:03:30Z</time>
      </trkpt>
      <trkpt lat="45.54543" lon="6.00846">
        <ele>549.53</ele>
        <time>2014-03-19T15:03:32Z</time>
      </trkpt>
      <trkpt lat="45.54537" lon="6.00846">
        <ele>548.57</ele>
        <time>2014-03-19T15:03:33Z</time>
      </trkpt>
      <trkpt lat="45.54531" lon="6.00845">
        <ele>547.61</ele>
        <time>2014-03-19T15:03:34Z</time>
      </trkpt>
      <trkpt lat="45.5451" lon="6.00843">
        <ele>544.24</ele>
        <time>2014-03-19T15:03:38Z</time>
      </trkpt>
      <trkpt lat="45.54506" lon="6.00843">
        <ele>543.76</ele>
        <time>2014-03-19T15:03:39Z</time>
      </trkpt>
      <trkpt lat="45.54502" lon="6.00842">
        <ele>543.28</ele>
        <time>2014-03-19T15:03:40Z</time>
      </trkpt>
      <trkpt lat="45.54495" lon="6.00843">
        <ele>540.88</ele>
        <time>2014-03-19T15:03:42Z</time>
      </trkpt>
      <trkpt lat="45.54487" lon="6.00842">
        <ele>539.92</ele>
        <time>2014-03-19T15:03:44Z</time>
      </trkpt>
      <trkpt lat="45.54478" lon="6.00841">
        <ele>538.96</ele>
        <time>2014-03-19T15:03:47Z</time>
      </trkpt>
      <trkpt lat="45.54477" lon="6.00843">
        <ele>538.48</ele>
        <time>2014-03-19T15:03:48Z</time>
      </trkpt>
      <trkpt lat="45.54476" lon="6.00846">
        <ele>538.48</ele>
        <time>2014-03-19T15:03:49Z</time>
      </trkpt>
      <trkpt lat="45.54474" lon="6.0086">
        <ele>537.03</ele>
        <time>2014-03-19T15:03:52Z</time>
      </trkpt>
      <trkpt lat="45.54469" lon="6.00897">
        <ele>534.15</ele>
        <time>2014-03-19T15:03:59Z</time>
      </trkpt>
      <trkpt lat="45.5444" lon="6.00909">
        <ele>531.27</ele>
        <time>2014-03-19T15:04:06Z</time>
      </trkpt>
      <trkpt lat="45.54422" lon="6.00911">
        <ele>527.42</ele>
        <time>2014-03-19T15:04:10Z</time>
      </trkpt>
      <trkpt lat="45.54419" lon="6.00914">
        <ele>526.94</ele>
        <time>2014-03-19T15:04:11Z</time>
      </trkpt>
      <trkpt lat="45.54408" lon="6.00924">
        <ele>524.06</ele>
        <time>2014-03-19T15:04:14Z</time>
      </trkpt>
      <trkpt lat="45.54404" lon="6.00927">
        <ele>523.58</ele>
        <time>2014-03-19T15:04:15Z</time>
      </trkpt>
      <trkpt lat="45.544" lon="6.00928">
        <ele>522.61</ele>
        <time>2014-03-19T15:04:16Z</time>
      </trkpt>
      <trkpt lat="45.54395" lon="6.00929">
        <ele>522.13</ele>
        <time>2014-03-19T15:04:17Z</time>
      </trkpt>
      <trkpt lat="45.54392" lon="6.00928">
        <ele>520.69</ele>
        <time>2014-03-19T15:04:18Z</time>
      </trkpt>
      <trkpt lat="45.54388" lon="6.00926">
        <ele>520.21</ele>
        <time>2014-03-19T15:04:19Z</time>
      </trkpt>
      <trkpt lat="45.54386" lon="6.00923">
        <ele>519.73</ele>
        <time>2014-03-19T15:04:20Z</time>
      </trkpt>
      <trkpt lat="45.54384" lon="6.0092">
        <ele>518.77</ele>
        <time>2014-03-19T15:04:21Z</time>
      </trkpt>
      <trkpt lat="45.54381" lon="6.00918">
        <ele>517.81</ele>
        <time>2014-03-19T15:04:22Z</time>
      </trkpt>
      <trkpt lat="45.5438" lon="6.00915">
        <ele>516.85</ele>
        <time>2014-03-19T15:04:23Z</time>
      </trkpt>
      <trkpt lat="45.54379" lon="6.00912">
        <ele>516.37</ele>
        <time>2014-03-19T15:04:24Z</time>
      </trkpt>
      <trkpt lat="45.5438" lon="6.00908">
        <ele>515.88</ele>
        <time>2014-03-19T15:04:25Z</time>
      </trkpt>
      <trkpt lat="45.54382" lon="6.00906">
        <ele>515.4</ele>
        <time>2014-03-19T15:04:26Z</time>
      </trkpt>
      <trkpt lat="45.54385" lon="6.00903">
        <ele>515.4</ele>
        <time>2014-03-19T15:04:27Z</time>
      </trkpt>
      <trkpt lat="45.54388" lon="6.00899">
        <ele>514.92</ele>
        <time>2014-03-19T15:04:28Z</time>
      </trkpt>
      <trkpt lat="45.54391" lon="6.00895">
        <ele>515.4</ele>
        <time>2014-03-19T15:04:29Z</time>
      </trkpt>
      <trkpt lat="45.54422" lon="6.0084">
        <ele>516.85</ele>
        <time>2014-03-19T15:04:42Z</time>
      </trkpt>
      <trkpt lat="45.54408" lon="6.00796">
        <ele>513.48</ele>
        <time>2014-03-19T15:04:50Z</time>
      </trkpt>
      <trkpt lat="45.54401" lon="6.00779">
        <ele>513</ele>
        <time>2014-03-19T15:04:53Z</time>
      </trkpt>
      <trkpt lat="45.54399" lon="6.00772">
        <ele>512.04</ele>
        <time>2014-03-19T15:04:54Z</time>
      </trkpt>
      <trkpt lat="45.54399" lon="6.00765">
        <ele>511.08</ele>
        <time>2014-03-19T15:04:55Z</time>
      </trkpt>
      <trkpt lat="45.54399" lon="6.00759">
        <ele>510.6</ele>
        <time>2014-03-19T15:04:56Z</time>
      </trkpt>
      <trkpt lat="45.54399" lon="6.00753">
        <ele>510.12</ele>
        <time>2014-03-19T15:04:57Z</time>
      </trkpt>
      <trkpt lat="45.54401" lon="6.00749">
        <ele>509.64</ele>
        <time>2014-03-19T15:04:58Z</time>
      </trkpt>
      <trkpt lat="45.54404" lon="6.00744">
        <ele>509.16</ele>
        <time>2014-03-19T15:04:59Z</time>
      </trkpt>
      <trkpt lat="45.54409" lon="6.00741">
        <ele>508.67</ele>
        <time>2014-03-19T15:05:00Z</time>
      </trkpt>
      <trkpt lat="45.54413" lon="6.00739">
        <ele>507.71</ele>
        <time>2014-03-19T15:05:01Z</time>
      </trkpt>
      <trkpt lat="45.54417" lon="6.00739">
        <ele>507.23</ele>
        <time>2014-03-19T15:05:02Z</time>
      </trkpt>
      <trkpt lat="45.54423" lon="6.00738">
        <ele>506.27</ele>
        <time>2014-03-19T15:05:03Z</time>
      </trkpt>
      <trkpt lat="45.54428" lon="6.00738">
        <ele>506.27</ele>
        <time>2014-03-19T15:05:04Z</time>
      </trkpt>
      <trkpt lat="45.54445" lon="6.00737">
        <ele>504.35</ele>
        <time>2014-03-19T15:05:07Z</time>
      </trkpt>
      <trkpt lat="45.54451" lon="6.00734">
        <ele>503.39</ele>
        <time>2014-03-19T15:05:08Z</time>
      </trkpt>
      <trkpt lat="45.54456" lon="6.00731">
        <ele>502.43</ele>
        <time>2014-03-19T15:05:09Z</time>
      </trkpt>
      <trkpt lat="45.54462" lon="6.00726">
        <ele>501.95</ele>
        <time>2014-03-19T15:05:10Z</time>
      </trkpt>
      <trkpt lat="45.54468" lon="6.0072">
        <ele>501.95</ele>
        <time>2014-03-19T15:05:11Z</time>
      </trkpt>
      <trkpt lat="45.54488" lon="6.00695">
        <ele>502.43</ele>
        <time>2014-03-19T15:05:15Z</time>
      </trkpt>
      <trkpt lat="45.54491" lon="6.0069">
        <ele>502.43</ele>
        <time>2014-03-19T15:05:16Z</time>
      </trkpt>
      <trkpt lat="45.54493" lon="6.00685">
        <ele>502.43</ele>
        <time>2014-03-19T15:05:17Z</time>
      </trkpt>
      <trkpt lat="45.54496" lon="6.00681">
        <ele>502.91</ele>
        <time>2014-03-19T15:05:18Z</time>
      </trkpt>
      <trkpt lat="45.54498" lon="6.00676">
        <ele>503.39</ele>
        <time>2014-03-19T15:05:19Z</time>
      </trkpt>
      <trkpt lat="45.545" lon="6.00646">
        <ele>502.91</ele>
        <time>2014-03-19T15:05:25Z</time>
      </trkpt>
      <trkpt lat="45.54498" lon="6.0064">
        <ele>502.43</ele>
        <time>2014-03-19T15:05:26Z</time>
      </trkpt>
      <trkpt lat="45.54492" lon="6.00629">
        <ele>501.95</ele>
        <time>2014-03-19T15:05:28Z</time>
      </trkpt>
      <trkpt lat="45.54483" lon="6.0061">
        <ele>502.43</ele>
        <time>2014-03-19T15:05:32Z</time>
      </trkpt>
      <trkpt lat="45.54483" lon="6.00605">
        <ele>502.91</ele>
        <time>2014-03-19T15:05:33Z</time>
      </trkpt>
      <trkpt lat="45.54486" lon="6.00596">
        <ele>503.39</ele>
        <time>2014-03-19T15:05:35Z</time>
      </trkpt>
      <trkpt lat="45.54488" lon="6.00592">
        <ele>503.39</ele>
        <time>2014-03-19T15:05:36Z</time>
      </trkpt>
      <trkpt lat="45.5449" lon="6.00589">
        <ele>503.87</ele>
        <time>2014-03-19T15:05:37Z</time>
      </trkpt>
      <trkpt lat="45.54509" lon="6.00566">
        <ele>502.43</ele>
        <time>2014-03-19T15:05:43Z</time>
      </trkpt>
      <trkpt lat="45.54514" lon="6.00563">
        <ele>500.98</ele>
        <time>2014-03-19T15:05:44Z</time>
      </trkpt>
      <trkpt lat="45.5452" lon="6.00561">
        <ele>500.98</ele>
        <time>2014-03-19T15:05:45Z</time>
      </trkpt>
      <trkpt lat="45.54526" lon="6.0056">
        <ele>500.98</ele>
        <time>2014-03-19T15:05:46Z</time>
      </trkpt>
      <trkpt lat="45.54532" lon="6.00561">
        <ele>500.5</ele>
        <time>2014-03-19T15:05:47Z</time>
      </trkpt>
      <trkpt lat="45.54538" lon="6.00562">
        <ele>500.02</ele>
        <time>2014-03-19T15:05:48Z</time>
      </trkpt>
      <trkpt lat="45.54543" lon="6.00565">
        <ele>499.54</ele>
        <time>2014-03-19T15:05:49Z</time>
      </trkpt>
      <trkpt lat="45.54548" lon="6.00568">
        <ele>499.54</ele>
        <time>2014-03-19T15:05:50Z</time>
      </trkpt>
      <trkpt lat="45.54557" lon="6.00571">
        <ele>499.06</ele>
        <time>2014-03-19T15:05:52Z</time>
      </trkpt>
      <trkpt lat="45.5456" lon="6.0057">
        <ele>499.06</ele>
        <time>2014-03-19T15:05:53Z</time>
      </trkpt>
      <trkpt lat="45.54561" lon="6.00568">
        <ele>499.54</ele>
        <time>2014-03-19T15:05:54Z</time>
      </trkpt>
      <trkpt lat="45.54562" lon="6.00565">
        <ele>498.58</ele>
        <time>2014-03-19T15:05:55Z</time>
      </trkpt>
      <trkpt lat="45.5455" lon="6.00554">
        <ele>498.58</ele>
        <time>2014-03-19T15:05:59Z</time>
      </trkpt>
      <trkpt lat="45.54541" lon="6.00549">
        <ele>497.14</ele>
        <time>2014-03-19T15:06:01Z</time>
      </trkpt>
      <trkpt lat="45.54524" lon="6.00543">
        <ele>495.7</ele>
        <time>2014-03-19T15:06:04Z</time>
      </trkpt>
      <trkpt lat="45.54517" lon="6.00543">
        <ele>495.7</ele>
        <time>2014-03-19T15:06:05Z</time>
      </trkpt>
      <trkpt lat="45.5451" lon="6.00544">
        <ele>494.74</ele>
        <time>2014-03-19T15:06:06Z</time>
      </trkpt>
      <trkpt lat="45.54503" lon="6.00547">
        <ele>494.26</ele>
        <time>2014-03-19T15:06:07Z</time>
      </trkpt>
      <trkpt lat="45.54495" lon="6.00551">
        <ele>493.77</ele>
        <time>2014-03-19T15:06:08Z</time>
      </trkpt>
      <trkpt lat="45.54488" lon="6.00556">
        <ele>492.81</ele>
        <time>2014-03-19T15:06:09Z</time>
      </trkpt>
      <trkpt lat="45.54458" lon="6.00579">
        <ele>489.93</ele>
        <time>2014-03-19T15:06:13Z</time>
      </trkpt>
      <trkpt lat="45.54451" lon="6.00588">
        <ele>489.45</ele>
        <time>2014-03-19T15:06:14Z</time>
      </trkpt>
      <trkpt lat="45.54447" lon="6.00599">
        <ele>488.97</ele>
        <time>2014-03-19T15:06:15Z</time>
      </trkpt>
      <trkpt lat="45.54445" lon="6.00611">
        <ele>488.01</ele>
        <time>2014-03-19T15:06:16Z</time>
      </trkpt>
      <trkpt lat="45.54444" lon="6.00624">
        <ele>487.05</ele>
        <time>2014-03-19T15:06:17Z</time>
      </trkpt>
      <trkpt lat="45.54442" lon="6.00636">
        <ele>486.08</ele>
        <time>2014-03-19T15:06:18Z</time>
      </trkpt>
      <trkpt lat="45.54438" lon="6.00648">
        <ele>485.12</ele>
        <time>2014-03-19T15:06:19Z</time>
      </trkpt>
      <trkpt lat="45.54433" lon="6.00659">
        <ele>484.16</ele>
        <time>2014-03-19T15:06:20Z</time>
      </trkpt>
      <trkpt lat="45.54424" lon="6.00676">
        <ele>482.24</ele>
        <time>2014-03-19T15:06:22Z</time>
      </trkpt>
      <trkpt lat="45.54419" lon="6.00682">
        <ele>481.76</ele>
        <time>2014-03-19T15:06:23Z</time>
      </trkpt>
      <trkpt lat="45.54406" lon="6.00691">
        <ele>479.84</ele>
        <time>2014-03-19T15:06:25Z</time>
      </trkpt>
      <trkpt lat="45.54399" lon="6.00695">
        <ele>479.35</ele>
        <time>2014-03-19T15:06:26Z</time>
      </trkpt>
      <trkpt lat="45.54391" lon="6.00698">
        <ele>478.87</ele>
        <time>2014-03-19T15:06:27Z</time>
      </trkpt>
      <trkpt lat="45.5437" lon="6.00702">
        <ele>477.43</ele>
        <time>2014-03-19T15:06:29Z</time>
      </trkpt>
      <trkpt lat="45.54328" lon="6.00692">
        <ele>474.07</ele>
        <time>2014-03-19T15:06:31Z</time>
      </trkpt>
      <trkpt lat="45.54314" lon="6.00693">
        <ele>474.07</ele>
        <time>2014-03-19T15:06:32Z</time>
      </trkpt>
      <trkpt lat="45.54287" lon="6.00707">
        <ele>471.18</ele>
        <time>2014-03-19T15:06:35Z</time>
      </trkpt>
      <trkpt lat="45.54269" lon="6.00718">
        <ele>469.74</ele>
        <time>2014-03-19T15:06:38Z</time>
      </trkpt>
      <trkpt lat="45.54262" lon="6.00698">
        <ele>468.78</ele>
        <time>2014-03-19T15:06:41Z</time>
      </trkpt>
      <trkpt lat="45.54266" lon="6.00692">
        <ele>469.26</ele>
        <time>2014-03-19T15:06:42Z</time>
      </trkpt>
      <trkpt lat="45.5427" lon="6.00686">
        <ele>468.3</ele>
        <time>2014-03-19T15:06:43Z</time>
      </trkpt>
      <trkpt lat="45.54291" lon="6.0066">
        <ele>467.34</ele>
        <time>2014-03-19T15:06:47Z</time>
      </trkpt>
      <trkpt lat="45.54298" lon="6.00656">
        <ele>466.38</ele>
        <time>2014-03-19T15:06:48Z</time>
      </trkpt>
      <trkpt lat="45.5431" lon="6.00649">
        <ele>465.9</ele>
        <time>2014-03-19T15:06:50Z</time>
      </trkpt>
      <trkpt lat="45.54314" lon="6.00643">
        <ele>465.42</ele>
        <time>2014-03-19T15:06:51Z</time>
      </trkpt>
      <trkpt lat="45.54314" lon="6.00635">
        <ele>465.42</ele>
        <time>2014-03-19T15:06:52Z</time>
      </trkpt>
      <trkpt lat="45.54312" lon="6.0063">
        <ele>464.45</ele>
        <time>2014-03-19T15:06:53Z</time>
      </trkpt>
      <trkpt lat="45.54307" lon="6.00627">
        <ele>463.49</ele>
        <time>2014-03-19T15:06:54Z</time>
      </trkpt>
      <trkpt lat="45.54301" lon="6.00626">
        <ele>463.49</ele>
        <time>2014-03-19T15:06:55Z</time>
      </trkpt>
      <trkpt lat="45.54294" lon="6.00627">
        <ele>462.53</ele>
        <time>2014-03-19T15:06:56Z</time>
      </trkpt>
      <trkpt lat="45.54288" lon="6.00629">
        <ele>462.53</ele>
        <time>2014-03-19T15:06:57Z</time>
      </trkpt>
      <trkpt lat="45.54266" lon="6.00634">
        <ele>461.09</ele>
        <time>2014-03-19T15:07:00Z</time>
      </trkpt>
      <trkpt lat="45.5425" lon="6.00637">
        <ele>459.17</ele>
        <time>2014-03-19T15:07:02Z</time>
      </trkpt>
      <trkpt lat="45.54242" lon="6.0064">
        <ele>458.21</ele>
        <time>2014-03-19T15:07:03Z</time>
      </trkpt>
      <trkpt lat="45.54236" lon="6.00644">
        <ele>458.21</ele>
        <time>2014-03-19T15:07:04Z</time>
      </trkpt>
      <trkpt lat="45.5423" lon="6.00647">
        <ele>457.72</ele>
        <time>2014-03-19T15:07:05Z</time>
      </trkpt>
      <trkpt lat="45.54224" lon="6.0065">
        <ele>456.76</ele>
        <time>2014-03-19T15:07:06Z</time>
      </trkpt>
      <trkpt lat="45.54218" lon="6.00652">
        <ele>456.28</ele>
        <time>2014-03-19T15:07:07Z</time>
      </trkpt>
      <trkpt lat="45.54213" lon="6.00652">
        <ele>455.8</ele>
        <time>2014-03-19T15:07:08Z</time>
      </trkpt>
      <trkpt lat="45.54209" lon="6.00651">
        <ele>455.32</ele>
        <time>2014-03-19T15:07:09Z</time>
      </trkpt>
      <trkpt lat="45.54205" lon="6.00648">
        <ele>455.8</ele>
        <time>2014-03-19T15:07:10Z</time>
      </trkpt>
      <trkpt lat="45.54202" lon="6.00642">
        <ele>453.88</ele>
        <time>2014-03-19T15:07:11Z</time>
      </trkpt>
      <trkpt lat="45.542" lon="6.00634">
        <ele>452.92</ele>
        <time>2014-03-19T15:07:12Z</time>
      </trkpt>
      <trkpt lat="45.54199" lon="6.00627">
        <ele>451.48</ele>
        <time>2014-03-19T15:07:13Z</time>
      </trkpt>
      <trkpt lat="45.54199" lon="6.00619">
        <ele>451.48</ele>
        <time>2014-03-19T15:07:14Z</time>
      </trkpt>
      <trkpt lat="45.54199" lon="6.0061">
        <ele>450.52</ele>
        <time>2014-03-19T15:07:15Z</time>
      </trkpt>
      <trkpt lat="45.542" lon="6.00602">
        <ele>450.03</ele>
        <time>2014-03-19T15:07:16Z</time>
      </trkpt>
      <trkpt lat="45.54202" lon="6.00594">
        <ele>449.07</ele>
        <time>2014-03-19T15:07:17Z</time>
      </trkpt>
      <trkpt lat="45.54204" lon="6.00578">
        <ele>447.15</ele>
        <time>2014-03-19T15:07:20Z</time>
      </trkpt>
      <trkpt lat="45.54203" lon="6.00574">
        <ele>446.19</ele>
        <time>2014-03-19T15:07:21Z</time>
      </trkpt>
      <trkpt lat="45.542" lon="6.0057">
        <ele>445.71</ele>
        <time>2014-03-19T15:07:22Z</time>
      </trkpt>
      <trkpt lat="45.54197" lon="6.00567">
        <ele>445.23</ele>
        <time>2014-03-19T15:07:23Z</time>
      </trkpt>
      <trkpt lat="45.54192" lon="6.00564">
        <ele>445.23</ele>
        <time>2014-03-19T15:07:24Z</time>
      </trkpt>
      <trkpt lat="45.54186" lon="6.00561">
        <ele>444.75</ele>
        <time>2014-03-19T15:07:25Z</time>
      </trkpt>
      <trkpt lat="45.54168" lon="6.0055">
        <ele>441.38</ele>
        <time>2014-03-19T15:07:28Z</time>
      </trkpt>
      <trkpt lat="45.54155" lon="6.0054">
        <ele>439.94</ele>
        <time>2014-03-19T15:07:30Z</time>
      </trkpt>
      <trkpt lat="45.5415" lon="6.00535">
        <ele>439.94</ele>
        <time>2014-03-19T15:07:31Z</time>
      </trkpt>
      <trkpt lat="45.54145" lon="6.00532">
        <ele>438.98</ele>
        <time>2014-03-19T15:07:32Z</time>
      </trkpt>
      <trkpt lat="45.54135" lon="6.00527">
        <ele>438.02</ele>
        <time>2014-03-19T15:07:34Z</time>
      </trkpt>
      <trkpt lat="45.54102" lon="6.00516">
        <ele>434.65</ele>
        <time>2014-03-19T15:07:39Z</time>
      </trkpt>
      <trkpt lat="45.54083" lon="6.0051">
        <ele>433.69</ele>
        <time>2014-03-19T15:07:42Z</time>
      </trkpt>
      <trkpt lat="45.54075" lon="6.00509">
        <ele>433.21</ele>
        <time>2014-03-19T15:07:43Z</time>
      </trkpt>
      <trkpt lat="45.54053" lon="6.00511">
        <ele>430.81</ele>
        <time>2014-03-19T15:07:46Z</time>
      </trkpt>
      <trkpt lat="45.54023" lon="6.00511">
        <ele>429.37</ele>
        <time>2014-03-19T15:07:50Z</time>
      </trkpt>
      <trkpt lat="45.54001" lon="6.00509">
        <ele>427.44</ele>
        <time>2014-03-19T15:07:53Z</time>
      </trkpt>
      <trkpt lat="45.53977" lon="6.00514">
        <ele>426</ele>
        <time>2014-03-19T15:08:01Z</time>
      </trkpt>
      <trkpt lat="45.53936" lon="6.00528">
        <ele>427.92</ele>
        <time>2014-03-19T15:08:15Z</time>
      </trkpt>
      <trkpt lat="45.53928" lon="6.00528">
        <ele>429.37</ele>
        <time>2014-03-19T15:08:18Z</time>
      </trkpt>
      <trkpt lat="45.53922" lon="6.00528">
        <ele>427.92</ele>
        <time>2014-03-19T15:08:20Z</time>
      </trkpt>
      <trkpt lat="45.53887" lon="6.00531">
        <ele>429.85</ele>
        <time>2014-03-19T15:08:36Z</time>
      </trkpt>
      <trkpt lat="45.53883" lon="6.00531">
        <ele>430.81</ele>
        <time>2014-03-19T15:08:38Z</time>
      </trkpt>
      <trkpt lat="45.53852" lon="6.00536">
        <ele>433.69</ele>
        <time>2014-03-19T15:08:51Z</time>
      </trkpt>
      <trkpt lat="45.53815" lon="6.0055">
        <ele>435.61</ele>
        <time>2014-03-19T15:09:08Z</time>
      </trkpt>
      <trkpt lat="45.53787" lon="6.00543">
        <ele>438.5</ele>
        <time>2014-03-19T15:09:21Z</time>
      </trkpt>
      <trkpt lat="45.53743" lon="6.00541">
        <ele>438.98</ele>
        <time>2014-03-19T15:09:39Z</time>
      </trkpt>
      <trkpt lat="45.53698" lon="6.00542">
        <ele>440.42</ele>
        <time>2014-03-19T15:09:56Z</time>
      </trkpt>
      <trkpt lat="45.53656" lon="6.00551">
        <ele>441.86</ele>
        <time>2014-03-19T15:10:12Z</time>
      </trkpt>
      <trkpt lat="45.53622" lon="6.00559">
        <ele>444.75</ele>
        <time>2014-03-19T15:10:27Z</time>
      </trkpt>
      <trkpt lat="45.53591" lon="6.00566">
        <ele>446.67</ele>
        <time>2014-03-19T15:10:41Z</time>
      </trkpt>
      <trkpt lat="45.53554" lon="6.00574">
        <ele>447.63</ele>
        <time>2014-03-19T15:10:57Z</time>
      </trkpt>
      <trkpt lat="45.53515" lon="6.00579">
        <ele>449.07</ele>
        <time>2014-03-19T15:11:13Z</time>
      </trkpt>
      <trkpt lat="45.53482" lon="6.00581">
        <ele>452.44</ele>
        <time>2014-03-19T15:11:27Z</time>
      </trkpt>
      <trkpt lat="45.53463" lon="6.00588">
        <ele>453.4</ele>
        <time>2014-03-19T15:11:38Z</time>
      </trkpt>
      <trkpt lat="45.53418" lon="6.006">
        <ele>451</ele>
        <time>2014-03-19T15:11:51Z</time>
      </trkpt>
      <trkpt lat="45.53362" lon="6.00598">
        <ele>448.11</ele>
        <time>2014-03-19T15:12:01Z</time>
      </trkpt>
      <trkpt lat="45.5335" lon="6.00596">
        <ele>447.15</ele>
        <time>2014-03-19T15:12:03Z</time>
      </trkpt>
      <trkpt lat="45.53306" lon="6.0059">
        <ele>444.27</ele>
        <time>2014-03-19T15:12:09Z</time>
      </trkpt>
      <trkpt lat="45.53241" lon="6.00579">
        <ele>445.23</ele>
        <time>2014-03-19T15:12:19Z</time>
      </trkpt>
      <trkpt lat="45.53237" lon="6.00578">
        <ele>444.75</ele>
        <time>2014-03-19T15:12:20Z</time>
      </trkpt>
      <trkpt lat="45.53195" lon="6.00563">
        <ele>443.79</ele>
        <time>2014-03-19T15:12:29Z</time>
      </trkpt>
      <trkpt lat="45.53191" lon="6.0056">
        <ele>443.79</ele>
        <time>2014-03-19T15:12:30Z</time>
      </trkpt>
      <trkpt lat="45.53163" lon="6.00531">
        <ele>445.23</ele>
        <time>2014-03-19T15:12:38Z</time>
      </trkpt>
      <trkpt lat="45.53159" lon="6.00527">
        <ele>445.71</ele>
        <time>2014-03-19T15:12:39Z</time>
      </trkpt>
      <trkpt lat="45.53136" lon="6.00501">
        <ele>445.71</ele>
        <time>2014-03-19T15:12:46Z</time>
      </trkpt>
      <trkpt lat="45.53104" lon="6.00449">
        <ele>446.67</ele>
        <time>2014-03-19T15:12:59Z</time>
      </trkpt>
      <trkpt lat="45.53064" lon="6.00386">
        <ele>447.63</ele>
        <time>2014-03-19T15:13:16Z</time>
      </trkpt>
      <trkpt lat="45.53054" lon="6.00365">
        <ele>450.03</ele>
        <time>2014-03-19T15:13:22Z</time>
      </trkpt>
      <trkpt lat="45.53052" lon="6.00364">
        <ele>450.52</ele>
        <time>2014-03-19T15:13:23Z</time>
      </trkpt>
      <trkpt lat="45.53032" lon="6.00354">
        <ele>446.67</ele>
        <time>2014-03-19T15:13:28Z</time>
      </trkpt>
      <trkpt lat="45.53027" lon="6.0035">
        <ele>445.71</ele>
        <time>2014-03-19T15:13:29Z</time>
      </trkpt>
      <trkpt lat="45.53023" lon="6.00345">
        <ele>445.23</ele>
        <time>2014-03-19T15:13:30Z</time>
      </trkpt>
      <trkpt lat="45.53007" lon="6.0033">
        <ele>441.38</ele>
        <time>2014-03-19T15:13:34Z</time>
      </trkpt>
      <trkpt lat="45.53002" lon="6.00327">
        <ele>440.42</ele>
        <time>2014-03-19T15:13:35Z</time>
      </trkpt>
      <trkpt lat="45.52998" lon="6.00326">
        <ele>439.46</ele>
        <time>2014-03-19T15:13:36Z</time>
      </trkpt>
      <trkpt lat="45.52993" lon="6.00325">
        <ele>438.5</ele>
        <time>2014-03-19T15:13:37Z</time>
      </trkpt>
      <trkpt lat="45.52988" lon="6.00323">
        <ele>437.54</ele>
        <time>2014-03-19T15:13:38Z</time>
      </trkpt>
      <trkpt lat="45.52984" lon="6.0032">
        <ele>437.06</ele>
        <time>2014-03-19T15:13:39Z</time>
      </trkpt>
      <trkpt lat="45.52979" lon="6.00317">
        <ele>436.1</ele>
        <time>2014-03-19T15:13:40Z</time>
      </trkpt>
      <trkpt lat="45.52973" lon="6.00313">
        <ele>434.65</ele>
        <time>2014-03-19T15:13:41Z</time>
      </trkpt>
      <trkpt lat="45.52962" lon="6.00306">
        <ele>433.69</ele>
        <time>2014-03-19T15:13:43Z</time>
      </trkpt>
      <trkpt lat="45.52932" lon="6.00292">
        <ele>430.81</ele>
        <time>2014-03-19T15:13:48Z</time>
      </trkpt>
      <trkpt lat="45.52922" lon="6.00289">
        <ele>429.37</ele>
        <time>2014-03-19T15:13:50Z</time>
      </trkpt>
      <trkpt lat="45.52904" lon="6.00286">
        <ele>427.44</ele>
        <time>2014-03-19T15:13:53Z</time>
      </trkpt>
      <trkpt lat="45.52898" lon="6.00284">
        <ele>428.4</ele>
        <time>2014-03-19T15:13:54Z</time>
      </trkpt>
      <trkpt lat="45.52893" lon="6.00285">
        <ele>428.89</ele>
        <time>2014-03-19T15:13:55Z</time>
      </trkpt>
      <trkpt lat="45.52888" lon="6.00288">
        <ele>428.89</ele>
        <time>2014-03-19T15:13:56Z</time>
      </trkpt>
      <trkpt lat="45.52883" lon="6.00291">
        <ele>428.4</ele>
        <time>2014-03-19T15:13:57Z</time>
      </trkpt>
      <trkpt lat="45.52864" lon="6.00303">
        <ele>427.44</ele>
        <time>2014-03-19T15:14:01Z</time>
      </trkpt>
      <trkpt lat="45.52859" lon="6.00305">
        <ele>426.96</ele>
        <time>2014-03-19T15:14:02Z</time>
      </trkpt>
      <trkpt lat="45.52854" lon="6.00305">
        <ele>427.44</ele>
        <time>2014-03-19T15:14:03Z</time>
      </trkpt>
      <trkpt lat="45.5285" lon="6.00302">
        <ele>428.4</ele>
        <time>2014-03-19T15:14:04Z</time>
      </trkpt>
      <trkpt lat="45.52847" lon="6.00297">
        <ele>428.4</ele>
        <time>2014-03-19T15:14:05Z</time>
      </trkpt>
      <trkpt lat="45.52845" lon="6.00291">
        <ele>427.92</ele>
        <time>2014-03-19T15:14:06Z</time>
      </trkpt>
      <trkpt lat="45.52843" lon="6.00285">
        <ele>428.4</ele>
        <time>2014-03-19T15:14:07Z</time>
      </trkpt>
      <trkpt lat="45.52841" lon="6.00281">
        <ele>428.4</ele>
        <time>2014-03-19T15:14:08Z</time>
      </trkpt>
      <trkpt lat="45.52839" lon="6.00277">
        <ele>428.89</ele>
        <time>2014-03-19T15:14:09Z</time>
      </trkpt>
      <trkpt lat="45.52837" lon="6.00273">
        <ele>429.37</ele>
        <time>2014-03-19T15:14:10Z</time>
      </trkpt>
      <trkpt lat="45.52835" lon="6.00269">
        <ele>428.89</ele>
        <time>2014-03-19T15:14:11Z</time>
      </trkpt>
      <trkpt lat="45.5282" lon="6.00233">
        <ele>432.73</ele>
        <time>2014-03-19T15:14:21Z</time>
      </trkpt>
      <trkpt lat="45.52814" lon="6.0022">
        <ele>433.21</ele>
        <time>2014-03-19T15:14:26Z</time>
      </trkpt>
      <trkpt lat="45.52811" lon="6.00219">
        <ele>432.73</ele>
        <time>2014-03-19T15:14:27Z</time>
      </trkpt>
      <trkpt lat="45.52809" lon="6.0022">
        <ele>432.73</ele>
        <time>2014-03-19T15:14:28Z</time>
      </trkpt>
      <trkpt lat="45.52806" lon="6.00221">
        <ele>432.25</ele>
        <time>2014-03-19T15:14:29Z</time>
      </trkpt>
      <trkpt lat="45.52803" lon="6.00223">
        <ele>432.25</ele>
        <time>2014-03-19T15:14:30Z</time>
      </trkpt>
      <trkpt lat="45.52746" lon="6.00247">
        <ele>432.25</ele>
        <time>2014-03-19T15:14:45Z</time>
      </trkpt>
      <trkpt lat="45.5272" lon="6.00251">
        <ele>433.21</ele>
        <time>2014-03-19T15:14:52Z</time>
      </trkpt>
      <trkpt lat="45.52653" lon="6.00256">
        <ele>435.13</ele>
        <time>2014-03-19T15:15:09Z</time>
      </trkpt>
      <trkpt lat="45.52612" lon="6.0026">
        <ele>437.54</ele>
        <time>2014-03-19T15:15:23Z</time>
      </trkpt>
      <trkpt lat="45.52603" lon="6.00266">
        <ele>436.58</ele>
        <time>2014-03-19T15:15:27Z</time>
      </trkpt>
      <trkpt lat="45.52568" lon="6.00284">
        <ele>433.21</ele>
        <time>2014-03-19T15:15:36Z</time>
      </trkpt>
      <trkpt lat="45.52539" lon="6.00297">
        <ele>429.37</ele>
        <time>2014-03-19T15:15:42Z</time>
      </trkpt>
      <trkpt lat="45.52528" lon="6.00301">
        <ele>427.92</ele>
        <time>2014-03-19T15:15:44Z</time>
      </trkpt>
      <trkpt lat="45.52511" lon="6.00309">
        <ele>424.56</ele>
        <time>2014-03-19T15:15:47Z</time>
      </trkpt>
      <trkpt lat="45.52497" lon="6.00315">
        <ele>421.68</ele>
        <time>2014-03-19T15:15:50Z</time>
      </trkpt>
      <trkpt lat="45.52493" lon="6.00315">
        <ele>421.19</ele>
        <time>2014-03-19T15:15:51Z</time>
      </trkpt>
      <trkpt lat="45.5249" lon="6.00313">
        <ele>421.19</ele>
        <time>2014-03-19T15:15:52Z</time>
      </trkpt>
      <trkpt lat="45.52488" lon="6.0031">
        <ele>420.71</ele>
        <time>2014-03-19T15:15:53Z</time>
      </trkpt>
      <trkpt lat="45.52486" lon="6.00306">
        <ele>420.71</ele>
        <time>2014-03-19T15:15:54Z</time>
      </trkpt>
      <trkpt lat="45.52478" lon="6.00275">
        <ele>420.23</ele>
        <time>2014-03-19T15:16:03Z</time>
      </trkpt>
      <trkpt lat="45.52473" lon="6.00237">
        <ele>419.27</ele>
        <time>2014-03-19T15:16:10Z</time>
      </trkpt>
      <trkpt lat="45.5247" lon="6.00158">
        <ele>417.83</ele>
        <time>2014-03-19T15:16:22Z</time>
      </trkpt>
      <trkpt lat="45.52461" lon="6.0012">
        <ele>416.87</ele>
        <time>2014-03-19T15:16:30Z</time>
      </trkpt>
      <trkpt lat="45.5246" lon="6.00115">
        <ele>416.87</ele>
        <time>2014-03-19T15:16:31Z</time>
      </trkpt>
      <trkpt lat="45.52456" lon="6.00102">
        <ele>415.91</ele>
        <time>2014-03-19T15:16:33Z</time>
      </trkpt>
      <trkpt lat="45.52454" lon="6.00095">
        <ele>415.43</ele>
        <time>2014-03-19T15:16:34Z</time>
      </trkpt>
      <trkpt lat="45.52452" lon="6.00088">
        <ele>414.47</ele>
        <time>2014-03-19T15:16:35Z</time>
      </trkpt>
      <trkpt lat="45.5245" lon="6.00081">
        <ele>414.47</ele>
        <time>2014-03-19T15:16:36Z</time>
      </trkpt>
      <trkpt lat="45.52449" lon="6.00074">
        <ele>413.02</ele>
        <time>2014-03-19T15:16:37Z</time>
      </trkpt>
      <trkpt lat="45.52448" lon="6.00067">
        <ele>412.54</ele>
        <time>2014-03-19T15:16:38Z</time>
      </trkpt>
      <trkpt lat="45.52447" lon="6.00061">
        <ele>412.06</ele>
        <time>2014-03-19T15:16:39Z</time>
      </trkpt>
      <trkpt lat="45.52447" lon="6.00055">
        <ele>412.06</ele>
        <time>2014-03-19T15:16:40Z</time>
      </trkpt>
      <trkpt lat="45.52446" lon="6.00048">
        <ele>410.62</ele>
        <time>2014-03-19T15:16:41Z</time>
      </trkpt>
      <trkpt lat="45.52444" lon="6.00018">
        <ele>408.7</ele>
        <time>2014-03-19T15:16:45Z</time>
      </trkpt>
      <trkpt lat="45.52444" lon="6.00012">
        <ele>407.74</ele>
        <time>2014-03-19T15:16:46Z</time>
      </trkpt>
      <trkpt lat="45.52445" lon="6.00005">
        <ele>407.26</ele>
        <time>2014-03-19T15:16:47Z</time>
      </trkpt>
      <trkpt lat="45.52448" lon="5.99992">
        <ele>405.81</ele>
        <time>2014-03-19T15:16:49Z</time>
      </trkpt>
      <trkpt lat="45.52449" lon="5.99988">
        <ele>404.85</ele>
        <time>2014-03-19T15:16:50Z</time>
      </trkpt>
      <trkpt lat="45.5245" lon="5.99984">
        <ele>404.85</ele>
        <time>2014-03-19T15:16:51Z</time>
      </trkpt>
      <trkpt lat="45.5245" lon="5.99981">
        <ele>404.85</ele>
        <time>2014-03-19T15:16:52Z</time>
      </trkpt>
      <trkpt lat="45.52448" lon="5.99979">
        <ele>404.37</ele>
        <time>2014-03-19T15:16:53Z</time>
      </trkpt>
      <trkpt lat="45.52446" lon="5.99979">
        <ele>403.89</ele>
        <time>2014-03-19T15:16:54Z</time>
      </trkpt>
      <trkpt lat="45.52443" lon="5.99981">
        <ele>402.93</ele>
        <time>2014-03-19T15:16:55Z</time>
      </trkpt>
      <trkpt lat="45.5244" lon="5.99984">
        <ele>402.45</ele>
        <time>2014-03-19T15:16:56Z</time>
      </trkpt>
      <trkpt lat="45.52436" lon="5.99988">
        <ele>402.45</ele>
        <time>2014-03-19T15:16:57Z</time>
      </trkpt>
      <trkpt lat="45.52434" lon="5.99993">
        <ele>401.49</ele>
        <time>2014-03-19T15:16:58Z</time>
      </trkpt>
      <trkpt lat="45.52431" lon="5.99997">
        <ele>401.49</ele>
        <time>2014-03-19T15:16:59Z</time>
      </trkpt>
      <trkpt lat="45.52425" lon="6.00004">
        <ele>400.53</ele>
        <time>2014-03-19T15:17:01Z</time>
      </trkpt>
      <trkpt lat="45.52419" lon="5.99989">
        <ele>397.16</ele>
        <time>2014-03-19T15:17:07Z</time>
      </trkpt>
      <trkpt lat="45.52421" lon="5.99983">
        <ele>397.16</ele>
        <time>2014-03-19T15:17:08Z</time>
      </trkpt>
      <trkpt lat="45.52424" lon="5.99977">
        <ele>396.2</ele>
        <time>2014-03-19T15:17:09Z</time>
      </trkpt>
      <trkpt lat="45.52428" lon="5.99972">
        <ele>395.24</ele>
        <time>2014-03-19T15:17:10Z</time>
      </trkpt>
      <trkpt lat="45.52432" lon="5.99968">
        <ele>394.76</ele>
        <time>2014-03-19T15:17:11Z</time>
      </trkpt>
      <trkpt lat="45.52435" lon="5.99966">
        <ele>394.76</ele>
        <time>2014-03-19T15:17:12Z</time>
      </trkpt>
      <trkpt lat="45.52436" lon="5.99963">
        <ele>394.28</ele>
        <time>2014-03-19T15:17:13Z</time>
      </trkpt>
      <trkpt lat="45.52433" lon="5.99956">
        <ele>392.84</ele>
        <time>2014-03-19T15:17:16Z</time>
      </trkpt>
      <trkpt lat="45.52425" lon="5.99957">
        <ele>391.87</ele>
        <time>2014-03-19T15:17:18Z</time>
      </trkpt>
      <trkpt lat="45.5242" lon="5.99956">
        <ele>391.39</ele>
        <time>2014-03-19T15:17:19Z</time>
      </trkpt>
      <trkpt lat="45.52416" lon="5.99955">
        <ele>390.43</ele>
        <time>2014-03-19T15:17:20Z</time>
      </trkpt>
      <trkpt lat="45.52411" lon="5.99954">
        <ele>389.95</ele>
        <time>2014-03-19T15:17:21Z</time>
      </trkpt>
      <trkpt lat="45.52406" lon="5.99954">
        <ele>388.99</ele>
        <time>2014-03-19T15:17:22Z</time>
      </trkpt>
      <trkpt lat="45.52403" lon="5.99956">
        <ele>388.99</ele>
        <time>2014-03-19T15:17:23Z</time>
      </trkpt>
      <trkpt lat="45.52399" lon="5.99958">
        <ele>388.03</ele>
        <time>2014-03-19T15:17:24Z</time>
      </trkpt>
      <trkpt lat="45.52396" lon="5.99961">
        <ele>387.55</ele>
        <time>2014-03-19T15:17:25Z</time>
      </trkpt>
      <trkpt lat="45.52394" lon="5.99962">
        <ele>387.55</ele>
        <time>2014-03-19T15:17:26Z</time>
      </trkpt>
      <trkpt lat="45.52391" lon="5.99962">
        <ele>387.07</ele>
        <time>2014-03-19T15:17:27Z</time>
      </trkpt>
      <trkpt lat="45.52391" lon="5.99958">
        <ele>386.59</ele>
        <time>2014-03-19T15:17:28Z</time>
      </trkpt>
      <trkpt lat="45.52391" lon="5.99954">
        <ele>386.59</ele>
        <time>2014-03-19T15:17:29Z</time>
      </trkpt>
      <trkpt lat="45.52393" lon="5.99949">
        <ele>385.63</ele>
        <time>2014-03-19T15:17:30Z</time>
      </trkpt>
      <trkpt lat="45.52395" lon="5.99944">
        <ele>385.15</ele>
        <time>2014-03-19T15:17:31Z</time>
      </trkpt>
      <trkpt lat="45.52398" lon="5.9994">
        <ele>384.66</ele>
        <time>2014-03-19T15:17:32Z</time>
      </trkpt>
      <trkpt lat="45.52401" lon="5.99935">
        <ele>384.18</ele>
        <time>2014-03-19T15:17:33Z</time>
      </trkpt>
      <trkpt lat="45.52409" lon="5.99925">
        <ele>382.74</ele>
        <time>2014-03-19T15:17:35Z</time>
      </trkpt>
      <trkpt lat="45.52413" lon="5.99921">
        <ele>381.78</ele>
        <time>2014-03-19T15:17:36Z</time>
      </trkpt>
      <trkpt lat="45.52417" lon="5.99919">
        <ele>381.78</ele>
        <time>2014-03-19T15:17:37Z</time>
      </trkpt>
      <trkpt lat="45.5242" lon="5.99917">
        <ele>381.3</ele>
        <time>2014-03-19T15:17:38Z</time>
      </trkpt>
      <trkpt lat="45.52422" lon="5.99915">
        <ele>380.34</ele>
        <time>2014-03-19T15:17:39Z</time>
      </trkpt>
      <trkpt lat="45.52423" lon="5.99913">
        <ele>379.86</ele>
        <time>2014-03-19T15:17:40Z</time>
      </trkpt>
      <trkpt lat="45.52424" lon="5.9991">
        <ele>379.38</ele>
        <time>2014-03-19T15:17:41Z</time>
      </trkpt>
      <trkpt lat="45.52422" lon="5.99907">
        <ele>378.42</ele>
        <time>2014-03-19T15:17:42Z</time>
      </trkpt>
      <trkpt lat="45.52414" lon="5.99905">
        <ele>377.45</ele>
        <time>2014-03-19T15:17:44Z</time>
      </trkpt>
      <trkpt lat="45.52408" lon="5.99904">
        <ele>376.97</ele>
        <time>2014-03-19T15:17:45Z</time>
      </trkpt>
      <trkpt lat="45.52403" lon="5.99904">
        <ele>376.49</ele>
        <time>2014-03-19T15:17:46Z</time>
      </trkpt>
      <trkpt lat="45.52398" lon="5.99904">
        <ele>375.53</ele>
        <time>2014-03-19T15:17:47Z</time>
      </trkpt>
      <trkpt lat="45.52393" lon="5.99906">
        <ele>375.05</ele>
        <time>2014-03-19T15:17:48Z</time>
      </trkpt>
      <trkpt lat="45.52389" lon="5.99909">
        <ele>374.57</ele>
        <time>2014-03-19T15:17:49Z</time>
      </trkpt>
      <trkpt lat="45.52386" lon="5.99913">
        <ele>373.61</ele>
        <time>2014-03-19T15:17:50Z</time>
      </trkpt>
      <trkpt lat="45.52383" lon="5.99915">
        <ele>373.13</ele>
        <time>2014-03-19T15:17:51Z</time>
      </trkpt>
      <trkpt lat="45.52381" lon="5.99915">
        <ele>372.65</ele>
        <time>2014-03-19T15:17:52Z</time>
      </trkpt>
      <trkpt lat="45.52384" lon="5.99901">
        <ele>370.73</ele>
        <time>2014-03-19T15:17:56Z</time>
      </trkpt>
      <trkpt lat="45.52387" lon="5.99896">
        <ele>370.24</ele>
        <time>2014-03-19T15:17:57Z</time>
      </trkpt>
      <trkpt lat="45.52398" lon="5.9988">
        <ele>369.28</ele>
        <time>2014-03-19T15:18:00Z</time>
      </trkpt>
      <trkpt lat="45.52415" lon="5.99859">
        <ele>365.92</ele>
        <time>2014-03-19T15:18:04Z</time>
      </trkpt>
      <trkpt lat="45.52419" lon="5.9985">
        <ele>364.96</ele>
        <time>2014-03-19T15:18:06Z</time>
      </trkpt>
      <trkpt lat="45.52418" lon="5.99845">
        <ele>364</ele>
        <time>2014-03-19T15:18:07Z</time>
      </trkpt>
      <trkpt lat="45.52412" lon="5.99842">
        <ele>363.52</ele>
        <time>2014-03-19T15:18:09Z</time>
      </trkpt>
      <trkpt lat="45.52409" lon="5.99843">
        <ele>363.04</ele>
        <time>2014-03-19T15:18:10Z</time>
      </trkpt>
      <trkpt lat="45.52405" lon="5.99845">
        <ele>362.07</ele>
        <time>2014-03-19T15:18:11Z</time>
      </trkpt>
      <trkpt lat="45.52401" lon="5.99848">
        <ele>362.07</ele>
        <time>2014-03-19T15:18:12Z</time>
      </trkpt>
      <trkpt lat="45.52396" lon="5.99851">
        <ele>361.59</ele>
        <time>2014-03-19T15:18:13Z</time>
      </trkpt>
      <trkpt lat="45.52392" lon="5.99853">
        <ele>360.63</ele>
        <time>2014-03-19T15:18:14Z</time>
      </trkpt>
      <trkpt lat="45.52388" lon="5.99852">
        <ele>360.15</ele>
        <time>2014-03-19T15:18:15Z</time>
      </trkpt>
      <trkpt lat="45.52379" lon="5.99836">
        <ele>358.71</ele>
        <time>2014-03-19T15:18:19Z</time>
      </trkpt>
      <trkpt lat="45.52382" lon="5.99831">
        <ele>357.75</ele>
        <time>2014-03-19T15:18:20Z</time>
      </trkpt>
      <trkpt lat="45.52385" lon="5.99826">
        <ele>357.27</ele>
        <time>2014-03-19T15:18:21Z</time>
      </trkpt>
      <trkpt lat="45.5239" lon="5.99821">
        <ele>357.27</ele>
        <time>2014-03-19T15:18:22Z</time>
      </trkpt>
      <trkpt lat="45.52399" lon="5.99811">
        <ele>356.79</ele>
        <time>2014-03-19T15:18:24Z</time>
      </trkpt>
      <trkpt lat="45.52402" lon="5.99805">
        <ele>355.34</ele>
        <time>2014-03-19T15:18:25Z</time>
      </trkpt>
      <trkpt lat="45.52402" lon="5.99799">
        <ele>354.86</ele>
        <time>2014-03-19T15:18:26Z</time>
      </trkpt>
      <trkpt lat="45.52388" lon="5.99792">
        <ele>352.94</ele>
        <time>2014-03-19T15:18:29Z</time>
      </trkpt>
      <trkpt lat="45.52382" lon="5.99794">
        <ele>351.98</ele>
        <time>2014-03-19T15:18:30Z</time>
      </trkpt>
      <trkpt lat="45.52376" lon="5.99797">
        <ele>351.02</ele>
        <time>2014-03-19T15:18:31Z</time>
      </trkpt>
      <trkpt lat="45.52371" lon="5.99801">
        <ele>351.02</ele>
        <time>2014-03-19T15:18:32Z</time>
      </trkpt>
      <trkpt lat="45.52366" lon="5.99805">
        <ele>350.06</ele>
        <time>2014-03-19T15:18:33Z</time>
      </trkpt>
      <trkpt lat="45.52362" lon="5.99811">
        <ele>349.58</ele>
        <time>2014-03-19T15:18:34Z</time>
      </trkpt>
      <trkpt lat="45.52358" lon="5.99817">
        <ele>350.06</ele>
        <time>2014-03-19T15:18:35Z</time>
      </trkpt>
      <trkpt lat="45.52355" lon="5.99823">
        <ele>350.06</ele>
        <time>2014-03-19T15:18:36Z</time>
      </trkpt>
      <trkpt lat="45.52338" lon="5.99857">
        <ele>352.94</ele>
        <time>2014-03-19T15:18:45Z</time>
      </trkpt>
      <trkpt lat="45.52305" lon="5.99929">
        <ele>354.86</ele>
        <time>2014-03-19T15:19:02Z</time>
      </trkpt>
      <trkpt lat="45.52274" lon="5.99987">
        <ele>356.31</ele>
        <time>2014-03-19T15:19:16Z</time>
      </trkpt>
      <trkpt lat="45.5225" lon="6.0005">
        <ele>356.79</ele>
        <time>2014-03-19T15:19:29Z</time>
      </trkpt>
      <trkpt lat="45.52247" lon="6.00056">
        <ele>356.79</ele>
        <time>2014-03-19T15:19:30Z</time>
      </trkpt>
      <trkpt lat="45.52191" lon="6.00137">
        <ele>358.23</ele>
        <time>2014-03-19T15:19:47Z</time>
      </trkpt>
      <trkpt lat="45.52168" lon="6.00169">
        <ele>358.71</ele>
        <time>2014-03-19T15:19:54Z</time>
      </trkpt>
      <trkpt lat="45.52128" lon="6.00253">
        <ele>359.67</ele>
        <time>2014-03-19T15:20:11Z</time>
      </trkpt>
      <trkpt lat="45.52105" lon="6.00316">
        <ele>360.63</ele>
        <time>2014-03-19T15:20:22Z</time>
      </trkpt>
      <trkpt lat="45.52104" lon="6.00321">
        <ele>360.63</ele>
        <time>2014-03-19T15:20:23Z</time>
      </trkpt>
      <trkpt lat="45.52104" lon="6.00327">
        <ele>360.63</ele>
        <time>2014-03-19T15:20:24Z</time>
      </trkpt>
      <trkpt lat="45.52104" lon="6.00332">
        <ele>361.11</ele>
        <time>2014-03-19T15:20:25Z</time>
      </trkpt>
      <trkpt lat="45.52105" lon="6.00336">
        <ele>361.59</ele>
        <time>2014-03-19T15:20:26Z</time>
      </trkpt>
      <trkpt lat="45.52107" lon="6.00341">
        <ele>361.59</ele>
        <time>2014-03-19T15:20:27Z</time>
      </trkpt>
      <trkpt lat="45.52109" lon="6.00345">
        <ele>361.11</ele>
        <time>2014-03-19T15:20:28Z</time>
      </trkpt>
      <trkpt lat="45.52125" lon="6.00393">
        <ele>364</ele>
        <time>2014-03-19T15:20:41Z</time>
      </trkpt>
      <trkpt lat="45.52109" lon="6.00428">
        <ele>364.48</ele>
        <time>2014-03-19T15:20:52Z</time>
      </trkpt>
      <trkpt lat="45.52104" lon="6.00427">
        <ele>363.52</ele>
        <time>2014-03-19T15:20:54Z</time>
      </trkpt>
      <trkpt lat="45.52101" lon="6.00424">
        <ele>363.52</ele>
        <time>2014-03-19T15:20:55Z</time>
      </trkpt>
      <trkpt lat="45.52096" lon="6.00419">
        <ele>362.07</ele>
        <time>2014-03-19T15:20:57Z</time>
      </trkpt>
      <trkpt lat="45.5208" lon="6.00403">
        <ele>360.15</ele>
        <time>2014-03-19T15:21:01Z</time>
      </trkpt>
      <trkpt lat="45.52068" lon="6.00388">
        <ele>357.27</ele>
        <time>2014-03-19T15:21:04Z</time>
      </trkpt>
      <trkpt lat="45.52066" lon="6.00383">
        <ele>356.31</ele>
        <time>2014-03-19T15:21:05Z</time>
      </trkpt>
      <trkpt lat="45.52065" lon="6.00376">
        <ele>355.34</ele>
        <time>2014-03-19T15:21:06Z</time>
      </trkpt>
      <trkpt lat="45.52066" lon="6.00369">
        <ele>354.86</ele>
        <time>2014-03-19T15:21:07Z</time>
      </trkpt>
      <trkpt lat="45.52066" lon="6.00361">
        <ele>353.9</ele>
        <time>2014-03-19T15:21:08Z</time>
      </trkpt>
      <trkpt lat="45.52068" lon="6.00343">
        <ele>352.94</ele>
        <time>2014-03-19T15:21:10Z</time>
      </trkpt>
      <trkpt lat="45.5207" lon="6.00315">
        <ele>351.5</ele>
        <time>2014-03-19T15:21:13Z</time>
      </trkpt>
      <trkpt lat="45.52072" lon="6.00282">
        <ele>349.58</ele>
        <time>2014-03-19T15:21:17Z</time>
      </trkpt>
      <trkpt lat="45.52071" lon="6.00276">
        <ele>348.13</ele>
        <time>2014-03-19T15:21:19Z</time>
      </trkpt>
      <trkpt lat="45.52068" lon="6.00276">
        <ele>348.13</ele>
        <time>2014-03-19T15:21:20Z</time>
      </trkpt>
      <trkpt lat="45.52065" lon="6.00278">
        <ele>347.65</ele>
        <time>2014-03-19T15:21:21Z</time>
      </trkpt>
      <trkpt lat="45.52063" lon="6.00282">
        <ele>347.17</ele>
        <time>2014-03-19T15:21:22Z</time>
      </trkpt>
      <trkpt lat="45.5206" lon="6.00286">
        <ele>346.21</ele>
        <time>2014-03-19T15:21:23Z</time>
      </trkpt>
      <trkpt lat="45.52057" lon="6.0029">
        <ele>345.73</ele>
        <time>2014-03-19T15:21:24Z</time>
      </trkpt>
      <trkpt lat="45.52054" lon="6.00295">
        <ele>345.73</ele>
        <time>2014-03-19T15:21:25Z</time>
      </trkpt>
      <trkpt lat="45.5205" lon="6.003">
        <ele>345.25</ele>
        <time>2014-03-19T15:21:26Z</time>
      </trkpt>
      <trkpt lat="45.52041" lon="6.00313">
        <ele>344.77</ele>
        <time>2014-03-19T15:21:29Z</time>
      </trkpt>
      <trkpt lat="45.52032" lon="6.00328">
        <ele>343.33</ele>
        <time>2014-03-19T15:21:32Z</time>
      </trkpt>
      <trkpt lat="45.52018" lon="6.00347">
        <ele>339.96</ele>
        <time>2014-03-19T15:21:38Z</time>
      </trkpt>
      <trkpt lat="45.52" lon="6.0036">
        <ele>336.12</ele>
        <time>2014-03-19T15:21:43Z</time>
      </trkpt>
      <trkpt lat="45.51983" lon="6.00373">
        <ele>332.75</ele>
        <time>2014-03-19T15:21:48Z</time>
      </trkpt>
      <trkpt lat="45.51968" lon="6.00382">
        <ele>329.39</ele>
        <time>2014-03-19T15:21:52Z</time>
      </trkpt>
      <trkpt lat="45.5196" lon="6.00382">
        <ele>328.43</ele>
        <time>2014-03-19T15:21:54Z</time>
      </trkpt>
      <trkpt lat="45.51957" lon="6.0038">
        <ele>327.95</ele>
        <time>2014-03-19T15:21:55Z</time>
      </trkpt>
      <trkpt lat="45.51955" lon="6.00376">
        <ele>326.99</ele>
        <time>2014-03-19T15:21:56Z</time>
      </trkpt>
      <trkpt lat="45.51955" lon="6.00371">
        <ele>326.02</ele>
        <time>2014-03-19T15:21:57Z</time>
      </trkpt>
      <trkpt lat="45.51957" lon="6.00366">
        <ele>325.54</ele>
        <time>2014-03-19T15:21:58Z</time>
      </trkpt>
      <trkpt lat="45.51959" lon="6.00361">
        <ele>324.1</ele>
        <time>2014-03-19T15:21:59Z</time>
      </trkpt>
      <trkpt lat="45.51961" lon="6.00356">
        <ele>324.1</ele>
        <time>2014-03-19T15:22:00Z</time>
      </trkpt>
      <trkpt lat="45.51991" lon="6.00298">
        <ele>324.58</ele>
        <time>2014-03-19T15:22:14Z</time>
      </trkpt>
      <trkpt lat="45.52003" lon="6.0024">
        <ele>324.58</ele>
        <time>2014-03-19T15:22:27Z</time>
      </trkpt>
      <trkpt lat="45.52002" lon="6.00219">
        <ele>321.22</ele>
        <time>2014-03-19T15:22:33Z</time>
      </trkpt>
      <trkpt lat="45.51984" lon="6.00204">
        <ele>318.33</ele>
        <time>2014-03-19T15:22:38Z</time>
      </trkpt>
      <trkpt lat="45.51979" lon="6.00203">
        <ele>316.89</ele>
        <time>2014-03-19T15:22:40Z</time>
      </trkpt>
      <trkpt lat="45.51946" lon="6.00252">
        <ele>315.93</ele>
        <time>2014-03-19T15:22:50Z</time>
      </trkpt>
      <trkpt lat="45.5194" lon="6.00263">
        <ele>315.93</ele>
        <time>2014-03-19T15:22:52Z</time>
      </trkpt>
      <trkpt lat="45.51937" lon="6.00267">
        <ele>314.97</ele>
        <time>2014-03-19T15:22:53Z</time>
      </trkpt>
      <trkpt lat="45.51933" lon="6.00271">
        <ele>315.93</ele>
        <time>2014-03-19T15:22:54Z</time>
      </trkpt>
      <trkpt lat="45.51912" lon="6.0023">
        <ele>314.01</ele>
        <time>2014-03-19T15:23:06Z</time>
      </trkpt>
      <trkpt lat="45.51909" lon="6.00207">
        <ele>314.01</ele>
        <time>2014-03-19T15:23:09Z</time>
      </trkpt>
      <trkpt lat="45.51907" lon="6.00199">
        <ele>313.53</ele>
        <time>2014-03-19T15:23:10Z</time>
      </trkpt>
      <trkpt lat="45.51901" lon="6.0018">
        <ele>313.53</ele>
        <time>2014-03-19T15:23:13Z</time>
      </trkpt>
      <trkpt lat="45.51858" lon="6.00106">
        <ele>312.09</ele>
        <time>2014-03-19T15:23:28Z</time>
      </trkpt>
      <trkpt lat="45.51855" lon="6.00101">
        <ele>311.6</ele>
        <time>2014-03-19T15:23:39Z</time>
      </trkpt>
      <trkpt lat="45.51855" lon="6.00099">
        <ele>311.6</ele>
        <time>2014-03-19T15:23:49Z</time>
      </trkpt>
      <trkpt lat="45.51854" lon="6.00097">
        <ele>311.6</ele>
        <time>2014-03-19T15:23:50Z</time>
      </trkpt>
      <trkpt lat="45.51822" lon="6.0008">
        <ele>311.12</ele>
        <time>2014-03-19T15:24:00Z</time>
      </trkpt>
      <trkpt lat="45.51774" lon="6.0006">
        <ele>311.12</ele>
        <time>2014-03-19T15:24:13Z</time>
      </trkpt>
      <trkpt lat="45.51767" lon="6.00047">
        <ele>310.16</ele>
        <time>2014-03-19T15:24:15Z</time>
      </trkpt>
      <trkpt lat="45.51727" lon="5.99979">
        <ele>310.16</ele>
        <time>2014-03-19T15:24:27Z</time>
      </trkpt>
      <trkpt lat="45.51725" lon="5.99974">
        <ele>310.16</ele>
        <time>2014-03-19T15:24:28Z</time>
      </trkpt>
      <trkpt lat="45.51724" lon="5.99968">
        <ele>310.16</ele>
        <time>2014-03-19T15:24:29Z</time>
      </trkpt>
      <trkpt lat="45.51724" lon="5.99962">
        <ele>310.64</ele>
        <time>2014-03-19T15:24:30Z</time>
      </trkpt>
      <trkpt lat="45.51725" lon="5.99956">
        <ele>310.16</ele>
        <time>2014-03-19T15:24:31Z</time>
      </trkpt>
      <trkpt lat="45.51726" lon="5.9995">
        <ele>310.64</ele>
        <time>2014-03-19T15:24:32Z</time>
      </trkpt>
      <trkpt lat="45.51728" lon="5.99945">
        <ele>310.16</ele>
        <time>2014-03-19T15:24:33Z</time>
      </trkpt>
      <trkpt lat="45.51737" lon="5.99896">
        <ele>310.64</ele>
        <time>2014-03-19T15:24:42Z</time>
      </trkpt>
      <trkpt lat="45.51739" lon="5.99893">
        <ele>310.16</ele>
        <time>2014-03-19T15:24:43Z</time>
      </trkpt>
      <trkpt lat="45.51741" lon="5.99889">
        <ele>310.16</ele>
        <time>2014-03-19T15:24:44Z</time>
      </trkpt>
      <trkpt lat="45.51787" lon="5.99821">
        <ele>310.16</ele>
        <time>2014-03-19T15:25:00Z</time>
      </trkpt>
      <trkpt lat="45.51819" lon="5.99776">
        <ele>310.64</ele>
        <time>2014-03-19T15:25:11Z</time>
      </trkpt>
      <trkpt lat="45.51868" lon="5.99707">
        <ele>310.16</ele>
        <time>2014-03-19T15:25:28Z</time>
      </trkpt>
      <trkpt lat="45.51877" lon="5.99674">
        <ele>310.64</ele>
        <time>2014-03-19T15:25:38Z</time>
      </trkpt>
      <trkpt lat="45.51875" lon="5.99671">
        <ele>310.64</ele>
        <time>2014-03-19T15:25:39Z</time>
      </trkpt>
      <trkpt lat="45.51873" lon="5.99668">
        <ele>310.64</ele>
        <time>2014-03-19T15:25:40Z</time>
      </trkpt>
      <trkpt lat="45.5187" lon="5.99664">
        <ele>310.64</ele>
        <time>2014-03-19T15:25:41Z</time>
      </trkpt>
      <trkpt lat="45.51868" lon="5.99661">
        <ele>310.64</ele>
        <time>2014-03-19T15:25:42Z</time>
      </trkpt>
      <trkpt lat="45.51836" lon="5.99612">
        <ele>311.12</ele>
        <time>2014-03-19T15:25:54Z</time>
      </trkpt>
      <trkpt lat="45.5182" lon="5.9957">
        <ele>310.64</ele>
        <time>2014-03-19T15:26:02Z</time>
      </trkpt>
      <trkpt lat="45.5183" lon="5.99522">
        <ele>310.64</ele>
        <time>2014-03-19T15:26:12Z</time>
      </trkpt>
      <trkpt lat="45.51858" lon="5.99466">
        <ele>311.12</ele>
        <time>2014-03-19T15:26:25Z</time>
      </trkpt>
      <trkpt lat="45.51865" lon="5.99458">
        <ele>311.12</ele>
        <time>2014-03-19T15:26:27Z</time>
      </trkpt>
      <trkpt lat="45.51876" lon="5.9944">
        <ele>311.12</ele>
        <time>2014-03-19T15:26:31Z</time>
      </trkpt>
      <trkpt lat="45.51922" lon="5.99365">
        <ele>311.12</ele>
        <time>2014-03-19T15:26:47Z</time>
      </trkpt>
      <trkpt lat="45.51967" lon="5.99302">
        <ele>311.12</ele>
        <time>2014-03-19T15:27:02Z</time>
      </trkpt>
      <trkpt lat="45.51979" lon="5.99266">
        <ele>312.09</ele>
        <time>2014-03-19T15:27:13Z</time>
      </trkpt>
      <trkpt lat="45.51941" lon="5.9922">
        <ele>312.57</ele>
        <time>2014-03-19T15:27:24Z</time>
      </trkpt>
      <trkpt lat="45.51932" lon="5.99207">
        <ele>313.53</ele>
        <time>2014-03-19T15:27:27Z</time>
      </trkpt>
      <trkpt lat="45.51886" lon="5.99145">
        <ele>314.49</ele>
        <time>2014-03-19T15:27:44Z</time>
      </trkpt>
      <trkpt lat="45.51844" lon="5.99108">
        <ele>315.93</ele>
        <time>2014-03-19T15:27:58Z</time>
      </trkpt>
      <trkpt lat="45.51799" lon="5.99083">
        <ele>318.33</ele>
        <time>2014-03-19T15:28:15Z</time>
      </trkpt>
      <trkpt lat="45.51787" lon="5.99078">
        <ele>319.3</ele>
        <time>2014-03-19T15:28:19Z</time>
      </trkpt>
      <trkpt lat="45.51756" lon="5.99056">
        <ele>321.7</ele>
        <time>2014-03-19T15:28:33Z</time>
      </trkpt>
      <trkpt lat="45.5171" lon="5.99006">
        <ele>324.58</ele>
        <time>2014-03-19T15:28:50Z</time>
      </trkpt>
      <trkpt lat="45.51664" lon="5.98948">
        <ele>325.06</ele>
        <time>2014-03-19T15:29:09Z</time>
      </trkpt>
      <trkpt lat="45.51639" lon="5.98889">
        <ele>327.47</ele>
        <time>2014-03-19T15:29:26Z</time>
      </trkpt>
      <trkpt lat="45.51632" lon="5.98827">
        <ele>329.39</ele>
        <time>2014-03-19T15:29:43Z</time>
      </trkpt>
      <trkpt lat="45.5164" lon="5.98765">
        <ele>331.31</ele>
        <time>2014-03-19T15:30:00Z</time>
      </trkpt>
      <trkpt lat="45.51656" lon="5.98721">
        <ele>333.23</ele>
        <time>2014-03-19T15:30:15Z</time>
      </trkpt>
      <trkpt lat="45.51675" lon="5.98684">
        <ele>336.12</ele>
        <time>2014-03-19T15:30:30Z</time>
      </trkpt>
      <trkpt lat="45.5168" lon="5.98644">
        <ele>338.52</ele>
        <time>2014-03-19T15:30:45Z</time>
      </trkpt>
      <trkpt lat="45.51686" lon="5.98634">
        <ele>339.48</ele>
        <time>2014-03-19T15:30:51Z</time>
      </trkpt>
      <trkpt lat="45.51687" lon="5.98633">
        <ele>339.96</ele>
        <time>2014-03-19T15:30:52Z</time>
      </trkpt>
      <trkpt lat="45.51688" lon="5.98632">
        <ele>340.44</ele>
        <time>2014-03-19T15:30:53Z</time>
      </trkpt>
      <trkpt lat="45.5169" lon="5.98631">
        <ele>340.92</ele>
        <time>2014-03-19T15:30:54Z</time>
      </trkpt>
      <trkpt lat="45.51691" lon="5.9863">
        <ele>340.44</ele>
        <time>2014-03-19T15:30:55Z</time>
      </trkpt>
      <trkpt lat="45.51693" lon="5.98629">
        <ele>340.44</ele>
        <time>2014-03-19T15:30:56Z</time>
      </trkpt>
      <trkpt lat="45.51694" lon="5.98627">
        <ele>341.41</ele>
        <time>2014-03-19T15:30:57Z</time>
      </trkpt>
      <trkpt lat="45.51696" lon="5.98625">
        <ele>340.92</ele>
        <time>2014-03-19T15:30:58Z</time>
      </trkpt>
      <trkpt lat="45.51696" lon="5.98623">
        <ele>341.41</ele>
        <time>2014-03-19T15:30:59Z</time>
      </trkpt>
      <trkpt lat="45.51697" lon="5.98621">
        <ele>341.89</ele>
        <time>2014-03-19T15:31:00Z</time>
      </trkpt>
      <trkpt lat="45.51694" lon="5.9862">
        <ele>341.89</ele>
        <time>2014-03-19T15:31:03Z</time>
      </trkpt>
      <trkpt lat="45.51693" lon="5.98621">
        <ele>341.89</ele>
        <time>2014-03-19T15:31:04Z</time>
      </trkpt>
      <trkpt lat="45.51691" lon="5.98622">
        <ele>341.89</ele>
        <time>2014-03-19T15:31:05Z</time>
      </trkpt>
      <trkpt lat="45.51689" lon="5.98623">
        <ele>342.85</ele>
        <time>2014-03-19T15:31:06Z</time>
      </trkpt>
      <trkpt lat="45.51687" lon="5.98624">
        <ele>342.85</ele>
        <time>2014-03-19T15:31:07Z</time>
      </trkpt>
      <trkpt lat="45.51685" lon="5.98626">
        <ele>342.85</ele>
        <time>2014-03-19T15:31:08Z</time>
      </trkpt>
      <trkpt lat="45.51683" lon="5.98626">
        <ele>343.33</ele>
        <time>2014-03-19T15:31:09Z</time>
      </trkpt>
      <trkpt lat="45.51682" lon="5.98627">
        <ele>343.33</ele>
        <time>2014-03-19T15:31:10Z</time>
      </trkpt>
      <trkpt lat="45.51653" lon="5.98641">
        <ele>345.25</ele>
        <time>2014-03-19T15:31:26Z</time>
      </trkpt>
      <trkpt lat="45.51626" lon="5.98653">
        <ele>347.17</ele>
        <time>2014-03-19T15:31:41Z</time>
      </trkpt>
      <trkpt lat="45.5161" lon="5.98657">
        <ele>348.13</ele>
        <time>2014-03-19T15:31:50Z</time>
      </trkpt>
      <trkpt lat="45.51609" lon="5.98655">
        <ele>348.13</ele>
        <time>2014-03-19T15:31:51Z</time>
      </trkpt>
      <trkpt lat="45.51608" lon="5.98653">
        <ele>348.62</ele>
        <time>2014-03-19T15:31:52Z</time>
      </trkpt>
      <trkpt lat="45.516" lon="5.98631">
        <ele>351.98</ele>
        <time>2014-03-19T15:32:05Z</time>
      </trkpt>
      <trkpt lat="45.51589" lon="5.98601">
        <ele>354.86</ele>
        <time>2014-03-19T15:32:21Z</time>
      </trkpt>
      <trkpt lat="45.5157" lon="5.98582">
        <ele>355.34</ele>
        <time>2014-03-19T15:32:35Z</time>
      </trkpt>
      <trkpt lat="45.51554" lon="5.98598">
        <ele>357.27</ele>
        <time>2014-03-19T15:32:45Z</time>
      </trkpt>
      <trkpt lat="45.51545" lon="5.98591">
        <ele>358.23</ele>
        <time>2014-03-19T15:32:50Z</time>
      </trkpt>
      <trkpt lat="45.51517" lon="5.98558">
        <ele>361.59</ele>
        <time>2014-03-19T15:33:09Z</time>
      </trkpt>
      <trkpt lat="45.51492" lon="5.98526">
        <ele>362.07</ele>
        <time>2014-03-19T15:33:24Z</time>
      </trkpt>
      <trkpt lat="45.51475" lon="5.98509">
        <ele>361.59</ele>
        <time>2014-03-19T15:33:36Z</time>
      </trkpt>
      <trkpt lat="45.51457" lon="5.98528">
        <ele>360.63</ele>
        <time>2014-03-19T15:33:45Z</time>
      </trkpt>
      <trkpt lat="45.5142" lon="5.98576">
        <ele>361.59</ele>
        <time>2014-03-19T15:34:02Z</time>
      </trkpt>
      <trkpt lat="45.51397" lon="5.98508">
        <ele>359.19</ele>
        <time>2014-03-19T15:34:14Z</time>
      </trkpt>
      <trkpt lat="45.51393" lon="5.98496">
        <ele>358.71</ele>
        <time>2014-03-19T15:34:16Z</time>
      </trkpt>
      <trkpt lat="45.51391" lon="5.98491">
        <ele>359.19</ele>
        <time>2014-03-19T15:34:17Z</time>
      </trkpt>
      <trkpt lat="45.51389" lon="5.98485">
        <ele>358.23</ele>
        <time>2014-03-19T15:34:18Z</time>
      </trkpt>
      <trkpt lat="45.51353" lon="5.98396">
        <ele>357.75</ele>
        <time>2014-03-19T15:34:33Z</time>
      </trkpt>
      <trkpt lat="45.5132" lon="5.98311">
        <ele>358.23</ele>
        <time>2014-03-19T15:34:48Z</time>
      </trkpt>
      <trkpt lat="45.51294" lon="5.98251">
        <ele>354.86</ele>
        <time>2014-03-19T15:34:58Z</time>
      </trkpt>
      <trkpt lat="45.51277" lon="5.98207">
        <ele>351.98</ele>
        <time>2014-03-19T15:35:04Z</time>
      </trkpt>
      <trkpt lat="45.51255" lon="5.98153">
        <ele>348.62</ele>
        <time>2014-03-19T15:35:10Z</time>
      </trkpt>
      <trkpt lat="45.51239" lon="5.98115">
        <ele>348.13</ele>
        <time>2014-03-19T15:35:14Z</time>
      </trkpt>
      <trkpt lat="45.51236" lon="5.98107">
        <ele>349.1</ele>
        <time>2014-03-19T15:35:15Z</time>
      </trkpt>
      <trkpt lat="45.5122" lon="5.98069">
        <ele>349.58</ele>
        <time>2014-03-19T15:35:23Z</time>
      </trkpt>
      <trkpt lat="45.5121" lon="5.98038">
        <ele>352.46</ele>
        <time>2014-03-19T15:35:29Z</time>
      </trkpt>
      <trkpt lat="45.51208" lon="5.98035">
        <ele>352.46</ele>
        <time>2014-03-19T15:35:30Z</time>
      </trkpt>
      <trkpt lat="45.51201" lon="5.98004">
        <ele>350.54</ele>
        <time>2014-03-19T15:35:38Z</time>
      </trkpt>
      <trkpt lat="45.51201" lon="5.97998">
        <ele>348.62</ele>
        <time>2014-03-19T15:35:39Z</time>
      </trkpt>
      <trkpt lat="45.51199" lon="5.97967">
        <ele>348.13</ele>
        <time>2014-03-19T15:35:49Z</time>
      </trkpt>
      <trkpt lat="45.51197" lon="5.97954">
        <ele>348.13</ele>
        <time>2014-03-19T15:35:57Z</time>
      </trkpt>
      <trkpt lat="45.51195" lon="5.97954">
        <ele>348.13</ele>
        <time>2014-03-19T15:35:58Z</time>
      </trkpt>
      <trkpt lat="45.51188" lon="5.97955">
        <ele>348.13</ele>
        <time>2014-03-19T15:36:02Z</time>
      </trkpt>
      <trkpt lat="45.51165" lon="5.97945">
        <ele>346.69</ele>
        <time>2014-03-19T15:36:10Z</time>
      </trkpt>
      <trkpt lat="45.51163" lon="5.97932">
        <ele>344.77</ele>
        <time>2014-03-19T15:36:13Z</time>
      </trkpt>
      <trkpt lat="45.51163" lon="5.97925">
        <ele>344.77</ele>
        <time>2014-03-19T15:36:14Z</time>
      </trkpt>
      <trkpt lat="45.51163" lon="5.97918">
        <ele>344.29</ele>
        <time>2014-03-19T15:36:15Z</time>
      </trkpt>
      <trkpt lat="45.51163" lon="5.97848">
        <ele>341.41</ele>
        <time>2014-03-19T15:36:23Z</time>
      </trkpt>
      <trkpt lat="45.51163" lon="5.97795">
        <ele>340.44</ele>
        <time>2014-03-19T15:36:29Z</time>
      </trkpt>
      <trkpt lat="45.51164" lon="5.97787">
        <ele>339.96</ele>
        <time>2014-03-19T15:36:30Z</time>
      </trkpt>
      <trkpt lat="45.51167" lon="5.97779">
        <ele>339.48</ele>
        <time>2014-03-19T15:36:31Z</time>
      </trkpt>
      <trkpt lat="45.5117" lon="5.97772">
        <ele>339.48</ele>
        <time>2014-03-19T15:36:32Z</time>
      </trkpt>
      <trkpt lat="45.51173" lon="5.97766">
        <ele>339.48</ele>
        <time>2014-03-19T15:36:33Z</time>
      </trkpt>
      <trkpt lat="45.51176" lon="5.97762">
        <ele>339.48</ele>
        <time>2014-03-19T15:36:34Z</time>
      </trkpt>
      <trkpt lat="45.5118" lon="5.97761">
        <ele>339.48</ele>
        <time>2014-03-19T15:36:35Z</time>
      </trkpt>
      <trkpt lat="45.51184" lon="5.97762">
        <ele>339.48</ele>
        <time>2014-03-19T15:36:36Z</time>
      </trkpt>
      <trkpt lat="45.51193" lon="5.97772">
        <ele>339.96</ele>
        <time>2014-03-19T15:36:37Z</time>
      </trkpt>
      <trkpt lat="45.51198" lon="5.97778">
        <ele>339.48</ele>
        <time>2014-03-19T15:36:38Z</time>
      </trkpt>
      <trkpt lat="45.51202" lon="5.97785">
        <ele>339.48</ele>
        <time>2014-03-19T15:36:39Z</time>
      </trkpt>
      <trkpt lat="45.5121" lon="5.97795">
        <ele>339.96</ele>
        <time>2014-03-19T15:36:41Z</time>
      </trkpt>
      <trkpt lat="45.51215" lon="5.97798">
        <ele>340.44</ele>
        <time>2014-03-19T15:36:42Z</time>
      </trkpt>
      <trkpt lat="45.5122" lon="5.97798">
        <ele>340.44</ele>
        <time>2014-03-19T15:36:43Z</time>
      </trkpt>
      <trkpt lat="45.51225" lon="5.97796">
        <ele>340.44</ele>
        <time>2014-03-19T15:36:44Z</time>
      </trkpt>
      <trkpt lat="45.5123" lon="5.97793">
        <ele>340.44</ele>
        <time>2014-03-19T15:36:45Z</time>
      </trkpt>
      <trkpt lat="45.51234" lon="5.97789">
        <ele>339.96</ele>
        <time>2014-03-19T15:36:46Z</time>
      </trkpt>
      <trkpt lat="45.51239" lon="5.97784">
        <ele>340.44</ele>
        <time>2014-03-19T15:36:47Z</time>
      </trkpt>
      <trkpt lat="45.5126" lon="5.97765">
        <ele>340.44</ele>
        <time>2014-03-19T15:36:52Z</time>
      </trkpt>
      <trkpt lat="45.5127" lon="5.97759">
        <ele>339.96</ele>
        <time>2014-03-19T15:36:54Z</time>
      </trkpt>
      <trkpt lat="45.51275" lon="5.97757">
        <ele>339.48</ele>
        <time>2014-03-19T15:36:55Z</time>
      </trkpt>
      <trkpt lat="45.51281" lon="5.97758">
        <ele>339.48</ele>
        <time>2014-03-19T15:36:56Z</time>
      </trkpt>
      <trkpt lat="45.51286" lon="5.97761">
        <ele>339.48</ele>
        <time>2014-03-19T15:36:57Z</time>
      </trkpt>
      <trkpt lat="45.5129" lon="5.97765">
        <ele>339.48</ele>
        <time>2014-03-19T15:36:58Z</time>
      </trkpt>
      <trkpt lat="45.51294" lon="5.9777">
        <ele>340.44</ele>
        <time>2014-03-19T15:36:59Z</time>
      </trkpt>
      <trkpt lat="45.51335" lon="5.97823">
        <ele>339</ele>
        <time>2014-03-19T15:37:10Z</time>
      </trkpt>
      <trkpt lat="45.51339" lon="5.97827">
        <ele>339</ele>
        <time>2014-03-19T15:37:11Z</time>
      </trkpt>
      <trkpt lat="45.51371" lon="5.97853">
        <ele>338.52</ele>
        <time>2014-03-19T15:37:18Z</time>
      </trkpt>
      <trkpt lat="45.51375" lon="5.97856">
        <ele>338.52</ele>
        <time>2014-03-19T15:37:19Z</time>
      </trkpt>
      <trkpt lat="45.5138" lon="5.97857">
        <ele>338.52</ele>
        <time>2014-03-19T15:37:20Z</time>
      </trkpt>
      <trkpt lat="45.51384" lon="5.97857">
        <ele>338.52</ele>
        <time>2014-03-19T15:37:21Z</time>
      </trkpt>
      <trkpt lat="45.51389" lon="5.97857">
        <ele>339</ele>
        <time>2014-03-19T15:37:22Z</time>
      </trkpt>
      <trkpt lat="45.51394" lon="5.97856">
        <ele>339</ele>
        <time>2014-03-19T15:37:23Z</time>
      </trkpt>
      <trkpt lat="45.51412" lon="5.97851">
        <ele>338.52</ele>
        <time>2014-03-19T15:37:27Z</time>
      </trkpt>
      <trkpt lat="45.51436" lon="5.97846">
        <ele>338.52</ele>
        <time>2014-03-19T15:37:32Z</time>
      </trkpt>
      <trkpt lat="45.51441" lon="5.97845">
        <ele>338.52</ele>
        <time>2014-03-19T15:37:33Z</time>
      </trkpt>
      <trkpt lat="45.51524" lon="5.9781">
        <ele>338.04</ele>
        <time>2014-03-19T15:37:50Z</time>
      </trkpt>
      <trkpt lat="45.51552" lon="5.97798">
        <ele>336.6</ele>
        <time>2014-03-19T15:37:56Z</time>
      </trkpt>
      <trkpt lat="45.51643" lon="5.97757">
        <ele>335.16</ele>
        <time>2014-03-19T15:38:14Z</time>
      </trkpt>
      <trkpt lat="45.51704" lon="5.97732">
        <ele>331.79</ele>
        <time>2014-03-19T15:38:25Z</time>
      </trkpt>
      <trkpt lat="45.51713" lon="5.97726">
        <ele>332.27</ele>
        <time>2014-03-19T15:38:27Z</time>
      </trkpt>
      <trkpt lat="45.51718" lon="5.97725">
        <ele>331.79</ele>
        <time>2014-03-19T15:38:28Z</time>
      </trkpt>
      <trkpt lat="45.51722" lon="5.97724">
        <ele>331.79</ele>
        <time>2014-03-19T15:38:29Z</time>
      </trkpt>
      <trkpt lat="45.51726" lon="5.97722">
        <ele>331.31</ele>
        <time>2014-03-19T15:38:30Z</time>
      </trkpt>
      <trkpt lat="45.5173" lon="5.97719">
        <ele>331.79</ele>
        <time>2014-03-19T15:38:31Z</time>
      </trkpt>
      <trkpt lat="45.51733" lon="5.97714">
        <ele>331.31</ele>
        <time>2014-03-19T15:38:32Z</time>
      </trkpt>
      <trkpt lat="45.51736" lon="5.97708">
        <ele>330.83</ele>
        <time>2014-03-19T15:38:33Z</time>
      </trkpt>
      <trkpt lat="45.5174" lon="5.97702">
        <ele>331.31</ele>
        <time>2014-03-19T15:38:34Z</time>
      </trkpt>
      <trkpt lat="45.51743" lon="5.97696">
        <ele>331.31</ele>
        <time>2014-03-19T15:38:35Z</time>
      </trkpt>
      <trkpt lat="45.51778" lon="5.9764">
        <ele>329.39</ele>
        <time>2014-03-19T15:38:44Z</time>
      </trkpt>
      <trkpt lat="45.51789" lon="5.97622">
        <ele>330.35</ele>
        <time>2014-03-19T15:38:47Z</time>
      </trkpt>
      <trkpt lat="45.51796" lon="5.9761">
        <ele>328.91</ele>
        <time>2014-03-19T15:38:49Z</time>
      </trkpt>
      <trkpt lat="45.51834" lon="5.97557">
        <ele>328.43</ele>
        <time>2014-03-19T15:38:59Z</time>
      </trkpt>
      <trkpt lat="45.51842" lon="5.97551">
        <ele>328.43</ele>
        <time>2014-03-19T15:39:01Z</time>
      </trkpt>
      <trkpt lat="45.51847" lon="5.97551">
        <ele>327.95</ele>
        <time>2014-03-19T15:39:02Z</time>
      </trkpt>
      <trkpt lat="45.51857" lon="5.97551">
        <ele>328.43</ele>
        <time>2014-03-19T15:39:04Z</time>
      </trkpt>
      <trkpt lat="45.51861" lon="5.9755">
        <ele>328.43</ele>
        <time>2014-03-19T15:39:05Z</time>
      </trkpt>
      <trkpt lat="45.51865" lon="5.97548">
        <ele>328.91</ele>
        <time>2014-03-19T15:39:06Z</time>
      </trkpt>
      <trkpt lat="45.5187" lon="5.97544">
        <ele>328.43</ele>
        <time>2014-03-19T15:39:07Z</time>
      </trkpt>
      <trkpt lat="45.51873" lon="5.9754">
        <ele>328.91</ele>
        <time>2014-03-19T15:39:08Z</time>
      </trkpt>
      <trkpt lat="45.51873" lon="5.97534">
        <ele>328.43</ele>
        <time>2014-03-19T15:39:09Z</time>
      </trkpt>
      <trkpt lat="45.51874" lon="5.97528">
        <ele>328.43</ele>
        <time>2014-03-19T15:39:10Z</time>
      </trkpt>
      <trkpt lat="45.51874" lon="5.97522">
        <ele>328.91</ele>
        <time>2014-03-19T15:39:11Z</time>
      </trkpt>
      <trkpt lat="45.51879" lon="5.97443">
        <ele>329.39</ele>
        <time>2014-03-19T15:39:25Z</time>
      </trkpt>
      <trkpt lat="45.51883" lon="5.97439">
        <ele>329.39</ele>
        <time>2014-03-19T15:39:26Z</time>
      </trkpt>
      <trkpt lat="45.51936" lon="5.97394">
        <ele>329.39</ele>
        <time>2014-03-19T15:39:42Z</time>
      </trkpt>
      <trkpt lat="45.51976" lon="5.97359">
        <ele>330.83</ele>
        <time>2014-03-19T15:39:55Z</time>
      </trkpt>
      <trkpt lat="45.51979" lon="5.97348">
        <ele>330.83</ele>
        <time>2014-03-19T15:40:00Z</time>
      </trkpt>
      <trkpt lat="45.51944" lon="5.97321">
        <ele>332.75</ele>
        <time>2014-03-19T15:40:13Z</time>
      </trkpt>
      <trkpt lat="45.51896" lon="5.97281">
        <ele>335.16</ele>
        <time>2014-03-19T15:40:30Z</time>
      </trkpt>
      <trkpt lat="45.51869" lon="5.97238">
        <ele>338.04</ele>
        <time>2014-03-19T15:40:47Z</time>
      </trkpt>
      <trkpt lat="45.51863" lon="5.97227">
        <ele>338.04</ele>
        <time>2014-03-19T15:40:56Z</time>
      </trkpt>
      <trkpt lat="45.51861" lon="5.97226">
        <ele>337.56</ele>
        <time>2014-03-19T15:41:04Z</time>
      </trkpt>
      <trkpt lat="45.51851" lon="5.97215">
        <ele>338.52</ele>
        <time>2014-03-19T15:41:11Z</time>
      </trkpt>
      <trkpt lat="45.51839" lon="5.97157">
        <ele>339.48</ele>
        <time>2014-03-19T15:41:24Z</time>
      </trkpt>
      <trkpt lat="45.5183" lon="5.97141">
        <ele>338.52</ele>
        <time>2014-03-19T15:41:27Z</time>
      </trkpt>
      <trkpt lat="45.51826" lon="5.9713">
        <ele>338.52</ele>
        <time>2014-03-19T15:41:29Z</time>
      </trkpt>
      <trkpt lat="45.51823" lon="5.97119">
        <ele>338.52</ele>
        <time>2014-03-19T15:41:31Z</time>
      </trkpt>
      <trkpt lat="45.51822" lon="5.97113">
        <ele>338.52</ele>
        <time>2014-03-19T15:41:32Z</time>
      </trkpt>
      <trkpt lat="45.51819" lon="5.97076">
        <ele>338.04</ele>
        <time>2014-03-19T15:41:38Z</time>
      </trkpt>
      <trkpt lat="45.51799" lon="5.97003">
        <ele>334.68</ele>
        <time>2014-03-19T15:41:51Z</time>
      </trkpt>
      <trkpt lat="45.51797" lon="5.96983">
        <ele>332.75</ele>
        <time>2014-03-19T15:41:54Z</time>
      </trkpt>
      <trkpt lat="45.51797" lon="5.96975">
        <ele>332.75</ele>
        <time>2014-03-19T15:41:55Z</time>
      </trkpt>
      <trkpt lat="45.51795" lon="5.96967">
        <ele>332.75</ele>
        <time>2014-03-19T15:41:56Z</time>
      </trkpt>
      <trkpt lat="45.51793" lon="5.96959">
        <ele>332.75</ele>
        <time>2014-03-19T15:41:57Z</time>
      </trkpt>
      <trkpt lat="45.51786" lon="5.96939">
        <ele>333.23</ele>
        <time>2014-03-19T15:42:00Z</time>
      </trkpt>
      <trkpt lat="45.51783" lon="5.96932">
        <ele>333.23</ele>
        <time>2014-03-19T15:42:01Z</time>
      </trkpt>
      <trkpt lat="45.51782" lon="5.96925">
        <ele>331.79</ele>
        <time>2014-03-19T15:42:02Z</time>
      </trkpt>
      <trkpt lat="45.51779" lon="5.96917">
        <ele>332.27</ele>
        <time>2014-03-19T15:42:03Z</time>
      </trkpt>
      <trkpt lat="45.51777" lon="5.9691">
        <ele>332.75</ele>
        <time>2014-03-19T15:42:04Z</time>
      </trkpt>
      <trkpt lat="45.51774" lon="5.96903">
        <ele>331.79</ele>
        <time>2014-03-19T15:42:05Z</time>
      </trkpt>
      <trkpt lat="45.51773" lon="5.96896">
        <ele>331.79</ele>
        <time>2014-03-19T15:42:06Z</time>
      </trkpt>
      <trkpt lat="45.51771" lon="5.96889">
        <ele>331.79</ele>
        <time>2014-03-19T15:42:07Z</time>
      </trkpt>
      <trkpt lat="45.51765" lon="5.96863">
        <ele>331.79</ele>
        <time>2014-03-19T15:42:11Z</time>
      </trkpt>
      <trkpt lat="45.51762" lon="5.96857">
        <ele>331.79</ele>
        <time>2014-03-19T15:42:12Z</time>
      </trkpt>
      <trkpt lat="45.51759" lon="5.96852">
        <ele>331.79</ele>
        <time>2014-03-19T15:42:13Z</time>
      </trkpt>
      <trkpt lat="45.51756" lon="5.96848">
        <ele>331.31</ele>
        <time>2014-03-19T15:42:14Z</time>
      </trkpt>
      <trkpt lat="45.51751" lon="5.96846">
        <ele>331.31</ele>
        <time>2014-03-19T15:42:15Z</time>
      </trkpt>
      <trkpt lat="45.51747" lon="5.96847">
        <ele>331.79</ele>
        <time>2014-03-19T15:42:16Z</time>
      </trkpt>
      <trkpt lat="45.51743" lon="5.96849">
        <ele>331.79</ele>
        <time>2014-03-19T15:42:17Z</time>
      </trkpt>
      <trkpt lat="45.51738" lon="5.96851">
        <ele>331.31</ele>
        <time>2014-03-19T15:42:18Z</time>
      </trkpt>
      <trkpt lat="45.51725" lon="5.96857">
        <ele>331.31</ele>
        <time>2014-03-19T15:42:21Z</time>
      </trkpt>
      <trkpt lat="45.51711" lon="5.96864">
        <ele>331.31</ele>
        <time>2014-03-19T15:42:24Z</time>
      </trkpt>
      <trkpt lat="45.51702" lon="5.96866">
        <ele>331.31</ele>
        <time>2014-03-19T15:42:26Z</time>
      </trkpt>
      <trkpt lat="45.51697" lon="5.96867">
        <ele>331.31</ele>
        <time>2014-03-19T15:42:27Z</time>
      </trkpt>
      <trkpt lat="45.51693" lon="5.9687">
        <ele>331.31</ele>
        <time>2014-03-19T15:42:28Z</time>
      </trkpt>
      <trkpt lat="45.51688" lon="5.96872">
        <ele>330.83</ele>
        <time>2014-03-19T15:42:29Z</time>
      </trkpt>
      <trkpt lat="45.51683" lon="5.96873">
        <ele>330.83</ele>
        <time>2014-03-19T15:42:30Z</time>
      </trkpt>
      <trkpt lat="45.51679" lon="5.96874">
        <ele>331.31</ele>
        <time>2014-03-19T15:42:31Z</time>
      </trkpt>
      <trkpt lat="45.51674" lon="5.96876">
        <ele>331.31</ele>
        <time>2014-03-19T15:42:32Z</time>
      </trkpt>
      <trkpt lat="45.51664" lon="5.96878">
        <ele>330.83</ele>
        <time>2014-03-19T15:42:34Z</time>
      </trkpt>
      <trkpt lat="45.5166" lon="5.96877">
        <ele>330.83</ele>
        <time>2014-03-19T15:42:35Z</time>
      </trkpt>
      <trkpt lat="45.51656" lon="5.96876">
        <ele>330.83</ele>
        <time>2014-03-19T15:42:36Z</time>
      </trkpt>
      <trkpt lat="45.51653" lon="5.96872">
        <ele>330.35</ele>
        <time>2014-03-19T15:42:37Z</time>
      </trkpt>
      <trkpt lat="45.5165" lon="5.96868">
        <ele>330.35</ele>
        <time>2014-03-19T15:42:38Z</time>
      </trkpt>
      <trkpt lat="45.51648" lon="5.96863">
        <ele>331.31</ele>
        <time>2014-03-19T15:42:39Z</time>
      </trkpt>
      <trkpt lat="45.51645" lon="5.96859">
        <ele>330.83</ele>
        <time>2014-03-19T15:42:40Z</time>
      </trkpt>
      <trkpt lat="45.5164" lon="5.96856">
        <ele>330.35</ele>
        <time>2014-03-19T15:42:41Z</time>
      </trkpt>
      <trkpt lat="45.51636" lon="5.96855">
        <ele>330.35</ele>
        <time>2014-03-19T15:42:42Z</time>
      </trkpt>
      <trkpt lat="45.51631" lon="5.96854">
        <ele>330.35</ele>
        <time>2014-03-19T15:42:43Z</time>
      </trkpt>
      <trkpt lat="45.51627" lon="5.96854">
        <ele>330.83</ele>
        <time>2014-03-19T15:42:44Z</time>
      </trkpt>
      <trkpt lat="45.51623" lon="5.96851">
        <ele>330.35</ele>
        <time>2014-03-19T15:42:45Z</time>
      </trkpt>
      <trkpt lat="45.51619" lon="5.96847">
        <ele>330.83</ele>
        <time>2014-03-19T15:42:46Z</time>
      </trkpt>
      <trkpt lat="45.51617" lon="5.9684">
        <ele>330.35</ele>
        <time>2014-03-19T15:42:47Z</time>
      </trkpt>
      <trkpt lat="45.51615" lon="5.96833">
        <ele>329.87</ele>
        <time>2014-03-19T15:42:48Z</time>
      </trkpt>
      <trkpt lat="45.51613" lon="5.96826">
        <ele>329.87</ele>
        <time>2014-03-19T15:42:49Z</time>
      </trkpt>
      <trkpt lat="45.51609" lon="5.96819">
        <ele>329.87</ele>
        <time>2014-03-19T15:42:50Z</time>
      </trkpt>
      <trkpt lat="45.51607" lon="5.96812">
        <ele>329.87</ele>
        <time>2014-03-19T15:42:51Z</time>
      </trkpt>
      <trkpt lat="45.51605" lon="5.96805">
        <ele>329.87</ele>
        <time>2014-03-19T15:42:52Z</time>
      </trkpt>
      <trkpt lat="45.51605" lon="5.96798">
        <ele>329.87</ele>
        <time>2014-03-19T15:42:53Z</time>
      </trkpt>
      <trkpt lat="45.51605" lon="5.96791">
        <ele>329.87</ele>
        <time>2014-03-19T15:42:54Z</time>
      </trkpt>
      <trkpt lat="45.51606" lon="5.96784">
        <ele>329.39</ele>
        <time>2014-03-19T15:42:55Z</time>
      </trkpt>
      <trkpt lat="45.51605" lon="5.96777">
        <ele>329.39</ele>
        <time>2014-03-19T15:42:56Z</time>
      </trkpt>
      <trkpt lat="45.51605" lon="5.9677">
        <ele>329.87</ele>
        <time>2014-03-19T15:42:57Z</time>
      </trkpt>
      <trkpt lat="45.51603" lon="5.96749">
        <ele>329.39</ele>
        <time>2014-03-19T15:43:00Z</time>
      </trkpt>
      <trkpt lat="45.51601" lon="5.96735">
        <ele>328.91</ele>
        <time>2014-03-19T15:43:02Z</time>
      </trkpt>
      <trkpt lat="45.51599" lon="5.96728">
        <ele>329.39</ele>
        <time>2014-03-19T15:43:03Z</time>
      </trkpt>
      <trkpt lat="45.51598" lon="5.96722">
        <ele>329.39</ele>
        <time>2014-03-19T15:43:04Z</time>
      </trkpt>
      <trkpt lat="45.51596" lon="5.96716">
        <ele>329.39</ele>
        <time>2014-03-19T15:43:05Z</time>
      </trkpt>
      <trkpt lat="45.51594" lon="5.9671">
        <ele>329.87</ele>
        <time>2014-03-19T15:43:06Z</time>
      </trkpt>
      <trkpt lat="45.51583" lon="5.9668">
        <ele>329.39</ele>
        <time>2014-03-19T15:43:12Z</time>
      </trkpt>
      <trkpt lat="45.51583" lon="5.96674">
        <ele>329.87</ele>
        <time>2014-03-19T15:43:13Z</time>
      </trkpt>
      <trkpt lat="45.51584" lon="5.96668">
        <ele>328.91</ele>
        <time>2014-03-19T15:43:14Z</time>
      </trkpt>
      <trkpt lat="45.51587" lon="5.96662">
        <ele>329.39</ele>
        <time>2014-03-19T15:43:15Z</time>
      </trkpt>
      <trkpt lat="45.5159" lon="5.96657">
        <ele>328.43</ele>
        <time>2014-03-19T15:43:16Z</time>
      </trkpt>
      <trkpt lat="45.51593" lon="5.96652">
        <ele>328.91</ele>
        <time>2014-03-19T15:43:17Z</time>
      </trkpt>
      <trkpt lat="45.51598" lon="5.96647">
        <ele>328.91</ele>
        <time>2014-03-19T15:43:18Z</time>
      </trkpt>
      <trkpt lat="45.51602" lon="5.96643">
        <ele>328.43</ele>
        <time>2014-03-19T15:43:19Z</time>
      </trkpt>
      <trkpt lat="45.51606" lon="5.96641">
        <ele>328.43</ele>
        <time>2014-03-19T15:43:20Z</time>
      </trkpt>
      <trkpt lat="45.51611" lon="5.96639">
        <ele>328.91</ele>
        <time>2014-03-19T15:43:21Z</time>
      </trkpt>
      <trkpt lat="45.51616" lon="5.96637">
        <ele>328.43</ele>
        <time>2014-03-19T15:43:22Z</time>
      </trkpt>
      <trkpt lat="45.51621" lon="5.96636">
        <ele>328.43</ele>
        <time>2014-03-19T15:43:23Z</time>
      </trkpt>
      <trkpt lat="45.51706" lon="5.96614">
        <ele>328.91</ele>
        <time>2014-03-19T15:43:40Z</time>
      </trkpt>
      <trkpt lat="45.51772" lon="5.96593">
        <ele>327.95</ele>
        <time>2014-03-19T15:43:54Z</time>
      </trkpt>
      <trkpt lat="45.51776" lon="5.96589">
        <ele>327.47</ele>
        <time>2014-03-19T15:43:55Z</time>
      </trkpt>
      <trkpt lat="45.51778" lon="5.96584">
        <ele>327.47</ele>
        <time>2014-03-19T15:43:56Z</time>
      </trkpt>
      <trkpt lat="45.5178" lon="5.96579">
        <ele>327.47</ele>
        <time>2014-03-19T15:43:57Z</time>
      </trkpt>
      <trkpt lat="45.51781" lon="5.96573">
        <ele>327.47</ele>
        <time>2014-03-19T15:43:58Z</time>
      </trkpt>
      <trkpt lat="45.51782" lon="5.96567">
        <ele>326.99</ele>
        <time>2014-03-19T15:43:59Z</time>
      </trkpt>
      <trkpt lat="45.51781" lon="5.9656">
        <ele>326.99</ele>
        <time>2014-03-19T15:44:00Z</time>
      </trkpt>
      <trkpt lat="45.51779" lon="5.96525">
        <ele>326.99</ele>
        <time>2014-03-19T15:44:05Z</time>
      </trkpt>
      <trkpt lat="45.5178" lon="5.96518">
        <ele>326.5</ele>
        <time>2014-03-19T15:44:06Z</time>
      </trkpt>
      <trkpt lat="45.51781" lon="5.96511">
        <ele>326.5</ele>
        <time>2014-03-19T15:44:07Z</time>
      </trkpt>
      <trkpt lat="45.51783" lon="5.96506">
        <ele>326.5</ele>
        <time>2014-03-19T15:44:08Z</time>
      </trkpt>
      <trkpt lat="45.51787" lon="5.96503">
        <ele>326.5</ele>
        <time>2014-03-19T15:44:09Z</time>
      </trkpt>
      <trkpt lat="45.51791" lon="5.965">
        <ele>326.5</ele>
        <time>2014-03-19T15:44:10Z</time>
      </trkpt>
      <trkpt lat="45.51794" lon="5.96499">
        <ele>326.02</ele>
        <time>2014-03-19T15:44:11Z</time>
      </trkpt>
      <trkpt lat="45.51799" lon="5.96499">
        <ele>327.47</ele>
        <time>2014-03-19T15:44:12Z</time>
      </trkpt>
      <trkpt lat="45.51803" lon="5.96499">
        <ele>327.47</ele>
        <time>2014-03-19T15:44:13Z</time>
      </trkpt>
      <trkpt lat="45.51808" lon="5.965">
        <ele>327.47</ele>
        <time>2014-03-19T15:44:14Z</time>
      </trkpt>
      <trkpt lat="45.51812" lon="5.965">
        <ele>326.99</ele>
        <time>2014-03-19T15:44:15Z</time>
      </trkpt>
      <trkpt lat="45.51817" lon="5.96498">
        <ele>327.47</ele>
        <time>2014-03-19T15:44:16Z</time>
      </trkpt>
      <trkpt lat="45.51821" lon="5.96495">
        <ele>326.99</ele>
        <time>2014-03-19T15:44:17Z</time>
      </trkpt>
      <trkpt lat="45.51825" lon="5.96489">
        <ele>326.99</ele>
        <time>2014-03-19T15:44:18Z</time>
      </trkpt>
      <trkpt lat="45.51827" lon="5.96484">
        <ele>326.99</ele>
        <time>2014-03-19T15:44:19Z</time>
      </trkpt>
      <trkpt lat="45.51829" lon="5.96477">
        <ele>326.5</ele>
        <time>2014-03-19T15:44:20Z</time>
      </trkpt>
      <trkpt lat="45.5183" lon="5.9647">
        <ele>326.5</ele>
        <time>2014-03-19T15:44:21Z</time>
      </trkpt>
      <trkpt lat="45.51831" lon="5.96463">
        <ele>326.5</ele>
        <time>2014-03-19T15:44:22Z</time>
      </trkpt>
      <trkpt lat="45.51836" lon="5.9642">
        <ele>326.5</ele>
        <time>2014-03-19T15:44:28Z</time>
      </trkpt>
      <trkpt lat="45.51836" lon="5.96412">
        <ele>326.02</ele>
        <time>2014-03-19T15:44:29Z</time>
      </trkpt>
      <trkpt lat="45.51835" lon="5.96388">
        <ele>325.54</ele>
        <time>2014-03-19T15:44:32Z</time>
      </trkpt>
      <trkpt lat="45.51839" lon="5.96325">
        <ele>325.54</ele>
        <time>2014-03-19T15:44:40Z</time>
      </trkpt>
      <trkpt lat="45.51841" lon="5.96289">
        <ele>325.54</ele>
        <time>2014-03-19T15:44:45Z</time>
      </trkpt>
      <trkpt lat="45.51843" lon="5.96253">
        <ele>326.02</ele>
        <time>2014-03-19T15:44:50Z</time>
      </trkpt>
      <trkpt lat="45.51843" lon="5.96245">
        <ele>325.54</ele>
        <time>2014-03-19T15:44:51Z</time>
      </trkpt>
      <trkpt lat="45.51843" lon="5.96238">
        <ele>325.54</ele>
        <time>2014-03-19T15:44:52Z</time>
      </trkpt>
      <trkpt lat="45.51848" lon="5.9621">
        <ele>324.58</ele>
        <time>2014-03-19T15:44:56Z</time>
      </trkpt>
      <trkpt lat="45.5185" lon="5.96203">
        <ele>324.58</ele>
        <time>2014-03-19T15:44:57Z</time>
      </trkpt>
      <trkpt lat="45.51852" lon="5.96197">
        <ele>325.06</ele>
        <time>2014-03-19T15:44:58Z</time>
      </trkpt>
      <trkpt lat="45.51854" lon="5.9619">
        <ele>325.06</ele>
        <time>2014-03-19T15:44:59Z</time>
      </trkpt>
      <trkpt lat="45.51856" lon="5.96184">
        <ele>325.06</ele>
        <time>2014-03-19T15:45:00Z</time>
      </trkpt>
      <trkpt lat="45.51856" lon="5.96177">
        <ele>325.06</ele>
        <time>2014-03-19T15:45:01Z</time>
      </trkpt>
      <trkpt lat="45.51856" lon="5.9617">
        <ele>325.06</ele>
        <time>2014-03-19T15:45:02Z</time>
      </trkpt>
      <trkpt lat="45.51856" lon="5.96163">
        <ele>325.54</ele>
        <time>2014-03-19T15:45:03Z</time>
      </trkpt>
      <trkpt lat="45.51855" lon="5.96156">
        <ele>325.06</ele>
        <time>2014-03-19T15:45:04Z</time>
      </trkpt>
      <trkpt lat="45.51853" lon="5.9615">
        <ele>325.06</ele>
        <time>2014-03-19T15:45:05Z</time>
      </trkpt>
      <trkpt lat="45.51852" lon="5.96144">
        <ele>325.54</ele>
        <time>2014-03-19T15:45:06Z</time>
      </trkpt>
      <trkpt lat="45.51828" lon="5.96043">
        <ele>325.54</ele>
        <time>2014-03-19T15:45:22Z</time>
      </trkpt>
      <trkpt lat="45.51808" lon="5.95947">
        <ele>326.5</ele>
        <time>2014-03-19T15:45:39Z</time>
      </trkpt>
      <trkpt lat="45.51807" lon="5.95866">
        <ele>327.95</ele>
        <time>2014-03-19T15:45:54Z</time>
      </trkpt>
      <trkpt lat="45.51821" lon="5.95769">
        <ele>326.99</ele>
        <time>2014-03-19T15:46:13Z</time>
      </trkpt>
      <trkpt lat="45.51822" lon="5.95764">
        <ele>326.5</ele>
        <time>2014-03-19T15:46:15Z</time>
      </trkpt>
      <trkpt lat="45.51812" lon="5.95716">
        <ele>327.95</ele>
        <time>2014-03-19T15:46:26Z</time>
      </trkpt>
      <trkpt lat="45.51791" lon="5.9566">
        <ele>329.39</ele>
        <time>2014-03-19T15:46:41Z</time>
      </trkpt>
      <trkpt lat="45.51769" lon="5.95642">
        <ele>332.75</ele>
        <time>2014-03-19T15:46:54Z</time>
      </trkpt>
      <trkpt lat="45.51742" lon="5.95641">
        <ele>335.16</ele>
        <time>2014-03-19T15:47:08Z</time>
      </trkpt>
      <trkpt lat="45.51717" lon="5.95633">
        <ele>338.52</ele>
        <time>2014-03-19T15:47:22Z</time>
      </trkpt>
      <trkpt lat="45.51712" lon="5.95599">
        <ele>341.41</ele>
        <time>2014-03-19T15:47:35Z</time>
      </trkpt>
      <trkpt lat="45.51708" lon="5.95555">
        <ele>343.33</ele>
        <time>2014-03-19T15:47:51Z</time>
      </trkpt>
      <trkpt lat="45.51706" lon="5.95512">
        <ele>346.69</ele>
        <time>2014-03-19T15:48:07Z</time>
      </trkpt>
      <trkpt lat="45.51705" lon="5.95474">
        <ele>349.1</ele>
        <time>2014-03-19T15:48:22Z</time>
      </trkpt>
      <trkpt lat="45.51703" lon="5.95441">
        <ele>352.46</ele>
        <time>2014-03-19T15:48:36Z</time>
      </trkpt>
      <trkpt lat="45.51714" lon="5.95409">
        <ele>355.34</ele>
        <time>2014-03-19T15:48:50Z</time>
      </trkpt>
      <trkpt lat="45.51732" lon="5.95374">
        <ele>357.75</ele>
        <time>2014-03-19T15:49:06Z</time>
      </trkpt>
      <trkpt lat="45.51744" lon="5.95353">
        <ele>360.63</ele>
        <time>2014-03-19T15:49:17Z</time>
      </trkpt>
      <trkpt lat="45.51765" lon="5.95334">
        <ele>363.04</ele>
        <time>2014-03-19T15:49:31Z</time>
      </trkpt>
      <trkpt lat="45.51786" lon="5.95307">
        <ele>364.96</ele>
        <time>2014-03-19T15:49:45Z</time>
      </trkpt>
      <trkpt lat="45.5179" lon="5.95298">
        <ele>364.96</ele>
        <time>2014-03-19T15:49:49Z</time>
      </trkpt>
      <trkpt lat="45.51791" lon="5.95297">
        <ele>364.96</ele>
        <time>2014-03-19T15:49:50Z</time>
      </trkpt>
      <trkpt lat="45.51798" lon="5.95295">
        <ele>365.44</ele>
        <time>2014-03-19T15:50:02Z</time>
      </trkpt>
      <trkpt lat="45.51792" lon="5.95297">
        <ele>365.44</ele>
        <time>2014-03-19T15:50:05Z</time>
      </trkpt>
      <trkpt lat="45.51796" lon="5.95305">
        <ele>363.52</ele>
        <time>2014-03-19T15:50:09Z</time>
      </trkpt>
      <trkpt lat="45.518" lon="5.95306">
        <ele>363.52</ele>
        <time>2014-03-19T15:50:10Z</time>
      </trkpt>
      <trkpt lat="45.51804" lon="5.95305">
        <ele>363.04</ele>
        <time>2014-03-19T15:50:11Z</time>
      </trkpt>
      <trkpt lat="45.51809" lon="5.95303">
        <ele>363.04</ele>
        <time>2014-03-19T15:50:12Z</time>
      </trkpt>
      <trkpt lat="45.51814" lon="5.95299">
        <ele>361.59</ele>
        <time>2014-03-19T15:50:13Z</time>
      </trkpt>
      <trkpt lat="45.51817" lon="5.95296">
        <ele>362.07</ele>
        <time>2014-03-19T15:50:14Z</time>
      </trkpt>
      <trkpt lat="45.51821" lon="5.95292">
        <ele>361.59</ele>
        <time>2014-03-19T15:50:15Z</time>
      </trkpt>
      <trkpt lat="45.51824" lon="5.95288">
        <ele>362.55</ele>
        <time>2014-03-19T15:50:16Z</time>
      </trkpt>
      <trkpt lat="45.51827" lon="5.95285">
        <ele>363.04</ele>
        <time>2014-03-19T15:50:17Z</time>
      </trkpt>
      <trkpt lat="45.51861" lon="5.95247">
        <ele>364.96</ele>
        <time>2014-03-19T15:50:33Z</time>
      </trkpt>
      <trkpt lat="45.519" lon="5.95209">
        <ele>367.36</ele>
        <time>2014-03-19T15:50:49Z</time>
      </trkpt>
      <trkpt lat="45.51928" lon="5.95172">
        <ele>367.84</ele>
        <time>2014-03-19T15:51:01Z</time>
      </trkpt>
      <trkpt lat="45.51978" lon="5.95144">
        <ele>368.32</ele>
        <time>2014-03-19T15:51:17Z</time>
      </trkpt>
      <trkpt lat="45.52023" lon="5.95123">
        <ele>368.8</ele>
        <time>2014-03-19T15:51:30Z</time>
      </trkpt>
      <trkpt lat="45.52061" lon="5.95098">
        <ele>367.36</ele>
        <time>2014-03-19T15:51:41Z</time>
      </trkpt>
      <trkpt lat="45.52065" lon="5.95096">
        <ele>367.36</ele>
        <time>2014-03-19T15:51:42Z</time>
      </trkpt>
      <trkpt lat="45.52081" lon="5.95088">
        <ele>367.36</ele>
        <time>2014-03-19T15:51:46Z</time>
      </trkpt>
      <trkpt lat="45.52107" lon="5.95076">
        <ele>365.44</ele>
        <time>2014-03-19T15:51:52Z</time>
      </trkpt>
      <trkpt lat="45.52134" lon="5.9506">
        <ele>363.52</ele>
        <time>2014-03-19T15:51:58Z</time>
      </trkpt>
      <trkpt lat="45.52144" lon="5.9504">
        <ele>360.15</ele>
        <time>2014-03-19T15:52:03Z</time>
      </trkpt>
      <trkpt lat="45.52146" lon="5.95035">
        <ele>360.15</ele>
        <time>2014-03-19T15:52:04Z</time>
      </trkpt>
      <trkpt lat="45.52149" lon="5.95031">
        <ele>360.63</ele>
        <time>2014-03-19T15:52:05Z</time>
      </trkpt>
      <trkpt lat="45.52153" lon="5.9503">
        <ele>360.63</ele>
        <time>2014-03-19T15:52:06Z</time>
      </trkpt>
      <trkpt lat="45.52156" lon="5.95029">
        <ele>360.63</ele>
        <time>2014-03-19T15:52:07Z</time>
      </trkpt>
      <trkpt lat="45.5216" lon="5.95029">
        <ele>360.63</ele>
        <time>2014-03-19T15:52:08Z</time>
      </trkpt>
      <trkpt lat="45.52163" lon="5.9503">
        <ele>360.63</ele>
        <time>2014-03-19T15:52:09Z</time>
      </trkpt>
      <trkpt lat="45.52206" lon="5.95034">
        <ele>363.04</ele>
        <time>2014-03-19T15:52:22Z</time>
      </trkpt>
      <trkpt lat="45.52232" lon="5.9503">
        <ele>361.11</ele>
        <time>2014-03-19T15:52:28Z</time>
      </trkpt>
      <trkpt lat="45.52237" lon="5.95028">
        <ele>360.15</ele>
        <time>2014-03-19T15:52:29Z</time>
      </trkpt>
      <trkpt lat="45.52242" lon="5.95026">
        <ele>360.15</ele>
        <time>2014-03-19T15:52:30Z</time>
      </trkpt>
      <trkpt lat="45.52246" lon="5.95023">
        <ele>359.67</ele>
        <time>2014-03-19T15:52:31Z</time>
      </trkpt>
      <trkpt lat="45.5225" lon="5.9502">
        <ele>359.67</ele>
        <time>2014-03-19T15:52:32Z</time>
      </trkpt>
      <trkpt lat="45.52252" lon="5.95016">
        <ele>359.19</ele>
        <time>2014-03-19T15:52:33Z</time>
      </trkpt>
      <trkpt lat="45.52255" lon="5.95012">
        <ele>359.67</ele>
        <time>2014-03-19T15:52:34Z</time>
      </trkpt>
      <trkpt lat="45.52257" lon="5.95009">
        <ele>359.19</ele>
        <time>2014-03-19T15:52:35Z</time>
      </trkpt>
      <trkpt lat="45.52259" lon="5.95006">
        <ele>358.71</ele>
        <time>2014-03-19T15:52:36Z</time>
      </trkpt>
      <trkpt lat="45.5226" lon="5.95001">
        <ele>358.71</ele>
        <time>2014-03-19T15:52:37Z</time>
      </trkpt>
      <trkpt lat="45.52261" lon="5.94998">
        <ele>359.19</ele>
        <time>2014-03-19T15:52:38Z</time>
      </trkpt>
      <trkpt lat="45.52263" lon="5.94994">
        <ele>359.19</ele>
        <time>2014-03-19T15:52:39Z</time>
      </trkpt>
      <trkpt lat="45.52265" lon="5.9499">
        <ele>359.67</ele>
        <time>2014-03-19T15:52:40Z</time>
      </trkpt>
      <trkpt lat="45.52267" lon="5.94988">
        <ele>359.67</ele>
        <time>2014-03-19T15:52:41Z</time>
      </trkpt>
      <trkpt lat="45.52268" lon="5.94987">
        <ele>359.67</ele>
        <time>2014-03-19T15:52:42Z</time>
      </trkpt>
      <trkpt lat="45.5227" lon="5.94987">
        <ele>360.15</ele>
        <time>2014-03-19T15:52:43Z</time>
      </trkpt>
      <trkpt lat="45.52273" lon="5.94986">
        <ele>360.63</ele>
        <time>2014-03-19T15:52:44Z</time>
      </trkpt>
      <trkpt lat="45.52276" lon="5.94985">
        <ele>360.63</ele>
        <time>2014-03-19T15:52:45Z</time>
      </trkpt>
      <trkpt lat="45.52278" lon="5.94985">
        <ele>360.63</ele>
        <time>2014-03-19T15:52:46Z</time>
      </trkpt>
      <trkpt lat="45.5228" lon="5.94985">
        <ele>361.11</ele>
        <time>2014-03-19T15:52:47Z</time>
      </trkpt>
      <trkpt lat="45.52283" lon="5.94985">
        <ele>361.59</ele>
        <time>2014-03-19T15:52:48Z</time>
      </trkpt>
      <trkpt lat="45.52285" lon="5.94984">
        <ele>362.07</ele>
        <time>2014-03-19T15:52:49Z</time>
      </trkpt>
      <trkpt lat="45.52288" lon="5.94984">
        <ele>361.59</ele>
        <time>2014-03-19T15:52:50Z</time>
      </trkpt>
      <trkpt lat="45.52291" lon="5.94984">
        <ele>362.07</ele>
        <time>2014-03-19T15:52:51Z</time>
      </trkpt>
      <trkpt lat="45.52294" lon="5.94984">
        <ele>362.07</ele>
        <time>2014-03-19T15:52:52Z</time>
      </trkpt>
      <trkpt lat="45.52297" lon="5.94985">
        <ele>362.55</ele>
        <time>2014-03-19T15:52:53Z</time>
      </trkpt>
      <trkpt lat="45.52346" lon="5.94976">
        <ele>361.59</ele>
        <time>2014-03-19T15:53:07Z</time>
      </trkpt>
      <trkpt lat="45.52371" lon="5.94966">
        <ele>361.11</ele>
        <time>2014-03-19T15:53:16Z</time>
      </trkpt>
      <trkpt lat="45.52375" lon="5.94966">
        <ele>360.63</ele>
        <time>2014-03-19T15:53:17Z</time>
      </trkpt>
      <trkpt lat="45.52379" lon="5.94965">
        <ele>360.15</ele>
        <time>2014-03-19T15:53:18Z</time>
      </trkpt>
      <trkpt lat="45.52388" lon="5.94963">
        <ele>360.15</ele>
        <time>2014-03-19T15:53:20Z</time>
      </trkpt>
      <trkpt lat="45.52393" lon="5.94963">
        <ele>359.67</ele>
        <time>2014-03-19T15:53:21Z</time>
      </trkpt>
      <trkpt lat="45.52438" lon="5.94968">
        <ele>357.27</ele>
        <time>2014-03-19T15:53:30Z</time>
      </trkpt>
      <trkpt lat="45.52445" lon="5.94967">
        <ele>356.79</ele>
        <time>2014-03-19T15:53:31Z</time>
      </trkpt>
      <trkpt lat="45.52457" lon="5.94962">
        <ele>355.83</ele>
        <time>2014-03-19T15:53:33Z</time>
      </trkpt>
      <trkpt lat="45.52482" lon="5.94947">
        <ele>354.86</ele>
        <time>2014-03-19T15:53:37Z</time>
      </trkpt>
      <trkpt lat="45.52487" lon="5.94943">
        <ele>354.86</ele>
        <time>2014-03-19T15:53:38Z</time>
      </trkpt>
      <trkpt lat="45.52499" lon="5.94929">
        <ele>355.34</ele>
        <time>2014-03-19T15:53:41Z</time>
      </trkpt>
      <trkpt lat="45.52504" lon="5.94926">
        <ele>355.34</ele>
        <time>2014-03-19T15:53:42Z</time>
      </trkpt>
      <trkpt lat="45.52508" lon="5.94923">
        <ele>355.34</ele>
        <time>2014-03-19T15:53:43Z</time>
      </trkpt>
      <trkpt lat="45.52512" lon="5.94921">
        <ele>355.34</ele>
        <time>2014-03-19T15:53:44Z</time>
      </trkpt>
      <trkpt lat="45.52516" lon="5.94919">
        <ele>356.31</ele>
        <time>2014-03-19T15:53:45Z</time>
      </trkpt>
      <trkpt lat="45.52519" lon="5.94917">
        <ele>355.83</ele>
        <time>2014-03-19T15:53:46Z</time>
      </trkpt>
      <trkpt lat="45.52522" lon="5.94915">
        <ele>356.31</ele>
        <time>2014-03-19T15:53:47Z</time>
      </trkpt>
      <trkpt lat="45.52554" lon="5.94911">
        <ele>359.67</ele>
        <time>2014-03-19T15:54:00Z</time>
      </trkpt>
      <trkpt lat="45.52594" lon="5.94899">
        <ele>361.11</ele>
        <time>2014-03-19T15:54:14Z</time>
      </trkpt>
      <trkpt lat="45.52625" lon="5.94887">
        <ele>361.11</ele>
        <time>2014-03-19T15:54:25Z</time>
      </trkpt>
      <trkpt lat="45.52651" lon="5.94872">
        <ele>362.07</ele>
        <time>2014-03-19T15:54:35Z</time>
      </trkpt>
      <trkpt lat="45.52696" lon="5.94862">
        <ele>363.04</ele>
        <time>2014-03-19T15:54:49Z</time>
      </trkpt>
      <trkpt lat="45.52742" lon="5.94854">
        <ele>364.96</ele>
        <time>2014-03-19T15:55:04Z</time>
      </trkpt>
      <trkpt lat="45.52783" lon="5.94846">
        <ele>366.88</ele>
        <time>2014-03-19T15:55:19Z</time>
      </trkpt>
      <trkpt lat="45.52807" lon="5.94839">
        <ele>370.24</ele>
        <time>2014-03-19T15:55:31Z</time>
      </trkpt>
      <trkpt lat="45.52835" lon="5.94834">
        <ele>373.13</ele>
        <time>2014-03-19T15:55:45Z</time>
      </trkpt>
      <trkpt lat="45.52866" lon="5.94845">
        <ele>376.49</ele>
        <time>2014-03-19T15:56:01Z</time>
      </trkpt>
      <trkpt lat="45.52876" lon="5.94848">
        <ele>376.49</ele>
        <time>2014-03-19T15:56:13Z</time>
      </trkpt>
      <trkpt lat="45.52875" lon="5.94847">
        <ele>376.01</ele>
        <time>2014-03-19T15:56:53Z</time>
      </trkpt>
      <trkpt lat="45.52876" lon="5.94847">
        <ele>376.01</ele>
        <time>2014-03-19T15:57:42Z</time>
      </trkpt>
      <trkpt lat="45.52878" lon="5.94847">
        <ele>376.01</ele>
        <time>2014-03-19T15:57:58Z</time>
      </trkpt>
      <trkpt lat="45.52917" lon="5.94862">
        <ele>376.49</ele>
        <time>2014-03-19T15:58:12Z</time>
      </trkpt>
      <trkpt lat="45.52972" lon="5.94863">
        <ele>375.05</ele>
        <time>2014-03-19T15:58:27Z</time>
      </trkpt>
      <trkpt lat="45.53036" lon="5.94845">
        <ele>375.05</ele>
        <time>2014-03-19T15:58:43Z</time>
      </trkpt>
      <trkpt lat="45.53093" lon="5.94841">
        <ele>376.01</ele>
        <time>2014-03-19T15:58:59Z</time>
      </trkpt>
      <trkpt lat="45.53133" lon="5.94845">
        <ele>379.38</ele>
        <time>2014-03-19T15:59:14Z</time>
      </trkpt>
      <trkpt lat="45.53167" lon="5.94841">
        <ele>381.3</ele>
        <time>2014-03-19T15:59:28Z</time>
      </trkpt>
      <trkpt lat="45.53222" lon="5.94844">
        <ele>378.9</ele>
        <time>2014-03-19T15:59:42Z</time>
      </trkpt>
      <trkpt lat="45.533" lon="5.94849">
        <ele>376.97</ele>
        <time>2014-03-19T15:59:55Z</time>
      </trkpt>
      <trkpt lat="45.53304" lon="5.94848">
        <ele>376.97</ele>
        <time>2014-03-19T15:59:56Z</time>
      </trkpt>
      <trkpt lat="45.53342" lon="5.94833">
        <ele>378.42</ele>
        <time>2014-03-19T16:00:07Z</time>
      </trkpt>
      <trkpt lat="45.53378" lon="5.94818">
        <ele>381.3</ele>
        <time>2014-03-19T16:00:21Z</time>
      </trkpt>
      <trkpt lat="45.53409" lon="5.94806">
        <ele>384.18</ele>
        <time>2014-03-19T16:00:34Z</time>
      </trkpt>
      <trkpt lat="45.5345" lon="5.94786">
        <ele>387.07</ele>
        <time>2014-03-19T16:00:50Z</time>
      </trkpt>
      <trkpt lat="45.53487" lon="5.94765">
        <ele>387.55</ele>
        <time>2014-03-19T16:01:05Z</time>
      </trkpt>
      <trkpt lat="45.53512" lon="5.94742">
        <ele>388.99</ele>
        <time>2014-03-19T16:01:19Z</time>
      </trkpt>
      <trkpt lat="45.53512" lon="5.94739">
        <ele>388.51</ele>
        <time>2014-03-19T16:01:20Z</time>
      </trkpt>
      <trkpt lat="45.53513" lon="5.94706">
        <ele>391.39</ele>
        <time>2014-03-19T16:01:32Z</time>
      </trkpt>
      <trkpt lat="45.53535" lon="5.94681">
        <ele>393.8</ele>
        <time>2014-03-19T16:01:47Z</time>
      </trkpt>
      <trkpt lat="45.53541" lon="5.94667">
        <ele>395.72</ele>
        <time>2014-03-19T16:01:53Z</time>
      </trkpt>
      <trkpt lat="45.53528" lon="5.94644">
        <ele>397.16</ele>
        <time>2014-03-19T16:02:06Z</time>
      </trkpt>
      <trkpt lat="45.53497" lon="5.94643">
        <ele>399.57</ele>
        <time>2014-03-19T16:02:21Z</time>
      </trkpt>
      <trkpt lat="45.53466" lon="5.94625">
        <ele>402.45</ele>
        <time>2014-03-19T16:02:38Z</time>
      </trkpt>
      <trkpt lat="45.53439" lon="5.94623">
        <ele>404.85</ele>
        <time>2014-03-19T16:02:53Z</time>
      </trkpt>
      <trkpt lat="45.5341" lon="5.94638">
        <ele>408.22</ele>
        <time>2014-03-19T16:03:10Z</time>
      </trkpt>
      <trkpt lat="45.53383" lon="5.94644">
        <ele>410.62</ele>
        <time>2014-03-19T16:03:25Z</time>
      </trkpt>
      <trkpt lat="45.53355" lon="5.94645">
        <ele>413.5</ele>
        <time>2014-03-19T16:03:40Z</time>
      </trkpt>
      <trkpt lat="45.53328" lon="5.94646">
        <ele>416.39</ele>
        <time>2014-03-19T16:03:56Z</time>
      </trkpt>
      <trkpt lat="45.53299" lon="5.9465">
        <ele>419.27</ele>
        <time>2014-03-19T16:04:12Z</time>
      </trkpt>
      <trkpt lat="45.53291" lon="5.94628">
        <ele>421.19</ele>
        <time>2014-03-19T16:04:24Z</time>
      </trkpt>
      <trkpt lat="45.5331" lon="5.94617">
        <ele>423.12</ele>
        <time>2014-03-19T16:04:36Z</time>
      </trkpt>
      <trkpt lat="45.53337" lon="5.94597">
        <ele>426</ele>
        <time>2014-03-19T16:04:52Z</time>
      </trkpt>
      <trkpt lat="45.53362" lon="5.94573">
        <ele>428.89</ele>
        <time>2014-03-19T16:05:08Z</time>
      </trkpt>
      <trkpt lat="45.53387" lon="5.94538">
        <ele>430.81</ele>
        <time>2014-03-19T16:05:26Z</time>
      </trkpt>
      <trkpt lat="45.53411" lon="5.94514">
        <ele>434.17</ele>
        <time>2014-03-19T16:05:42Z</time>
      </trkpt>
      <trkpt lat="45.53422" lon="5.94473">
        <ele>436.58</ele>
        <time>2014-03-19T16:05:59Z</time>
      </trkpt>
      <trkpt lat="45.53447" lon="5.94465">
        <ele>439.46</ele>
        <time>2014-03-19T16:06:13Z</time>
      </trkpt>
      <trkpt lat="45.53471" lon="5.94448">
        <ele>441.86</ele>
        <time>2014-03-19T16:06:28Z</time>
      </trkpt>
      <trkpt lat="45.53458" lon="5.94424">
        <ele>443.79</ele>
        <time>2014-03-19T16:06:40Z</time>
      </trkpt>
      <trkpt lat="45.53425" lon="5.9443">
        <ele>446.19</ele>
        <time>2014-03-19T16:06:56Z</time>
      </trkpt>
      <trkpt lat="45.53393" lon="5.94439">
        <ele>449.55</ele>
        <time>2014-03-19T16:07:11Z</time>
      </trkpt>
      <trkpt lat="45.5335" lon="5.94447">
        <ele>451</ele>
        <time>2014-03-19T16:07:30Z</time>
      </trkpt>
      <trkpt lat="45.53317" lon="5.94439">
        <ele>451.96</ele>
        <time>2014-03-19T16:07:43Z</time>
      </trkpt>
      <trkpt lat="45.53285" lon="5.94466">
        <ele>453.4</ele>
        <time>2014-03-19T16:07:56Z</time>
      </trkpt>
      <trkpt lat="45.53247" lon="5.94485">
        <ele>455.32</ele>
        <time>2014-03-19T16:08:12Z</time>
      </trkpt>
      <trkpt lat="45.53257" lon="5.94454">
        <ele>458.21</ele>
        <time>2014-03-19T16:08:25Z</time>
      </trkpt>
      <trkpt lat="45.53283" lon="5.94423">
        <ele>459.65</ele>
        <time>2014-03-19T16:08:38Z</time>
      </trkpt>
      <trkpt lat="45.5331" lon="5.94403">
        <ele>462.53</ele>
        <time>2014-03-19T16:08:53Z</time>
      </trkpt>
      <trkpt lat="45.53339" lon="5.94394">
        <ele>465.42</ele>
        <time>2014-03-19T16:09:10Z</time>
      </trkpt>
      <trkpt lat="45.53356" lon="5.9436">
        <ele>468.3</ele>
        <time>2014-03-19T16:09:26Z</time>
      </trkpt>
      <trkpt lat="45.53363" lon="5.94325">
        <ele>469.74</ele>
        <time>2014-03-19T16:09:40Z</time>
      </trkpt>
      <trkpt lat="45.53373" lon="5.94294">
        <ele>473.11</ele>
        <time>2014-03-19T16:09:54Z</time>
      </trkpt>
      <trkpt lat="45.53375" lon="5.9429">
        <ele>473.11</ele>
        <time>2014-03-19T16:09:56Z</time>
      </trkpt>
      <trkpt lat="45.53376" lon="5.94288">
        <ele>473.11</ele>
        <time>2014-03-19T16:09:57Z</time>
      </trkpt>
      <trkpt lat="45.53376" lon="5.94287">
        <ele>473.11</ele>
        <time>2014-03-19T16:09:58Z</time>
      </trkpt>
      <trkpt lat="45.53397" lon="5.94264">
        <ele>475.51</ele>
        <time>2014-03-19T16:10:14Z</time>
      </trkpt>
      <trkpt lat="45.53418" lon="5.94236">
        <ele>478.87</ele>
        <time>2014-03-19T16:10:30Z</time>
      </trkpt>
      <trkpt lat="45.53428" lon="5.94204">
        <ele>480.8</ele>
        <time>2014-03-19T16:10:44Z</time>
      </trkpt>
      <trkpt lat="45.53443" lon="5.94174">
        <ele>484.16</ele>
        <time>2014-03-19T16:11:00Z</time>
      </trkpt>
      <trkpt lat="45.53469" lon="5.94161">
        <ele>486.56</ele>
        <time>2014-03-19T16:11:17Z</time>
      </trkpt>
      <trkpt lat="45.5349" lon="5.94154">
        <ele>489.93</ele>
        <time>2014-03-19T16:11:30Z</time>
      </trkpt>
      <trkpt lat="45.53517" lon="5.94152">
        <ele>492.81</ele>
        <time>2014-03-19T16:11:47Z</time>
      </trkpt>
      <trkpt lat="45.53544" lon="5.94151">
        <ele>495.22</ele>
        <time>2014-03-19T16:12:03Z</time>
      </trkpt>
      <trkpt lat="45.53566" lon="5.94128">
        <ele>498.58</ele>
        <time>2014-03-19T16:12:19Z</time>
      </trkpt>
      <trkpt lat="45.53572" lon="5.941">
        <ele>500.5</ele>
        <time>2014-03-19T16:12:31Z</time>
      </trkpt>
      <trkpt lat="45.53572" lon="5.94098">
        <ele>500.98</ele>
        <time>2014-03-19T16:12:32Z</time>
      </trkpt>
      <trkpt lat="45.53573" lon="5.94096">
        <ele>501.46</ele>
        <time>2014-03-19T16:12:33Z</time>
      </trkpt>
      <trkpt lat="45.53588" lon="5.9408">
        <ele>503.39</ele>
        <time>2014-03-19T16:12:45Z</time>
      </trkpt>
      <trkpt lat="45.53611" lon="5.94069">
        <ele>506.27</ele>
        <time>2014-03-19T16:13:00Z</time>
      </trkpt>
      <trkpt lat="45.53637" lon="5.94057">
        <ele>509.16</ele>
        <time>2014-03-19T16:13:16Z</time>
      </trkpt>
      <trkpt lat="45.53666" lon="5.94044">
        <ele>512.04</ele>
        <time>2014-03-19T16:13:34Z</time>
      </trkpt>
      <trkpt lat="45.53665" lon="5.94018">
        <ele>513.96</ele>
        <time>2014-03-19T16:13:47Z</time>
      </trkpt>
      <trkpt lat="45.53635" lon="5.94016">
        <ele>516.85</ele>
        <time>2014-03-19T16:14:03Z</time>
      </trkpt>
      <trkpt lat="45.53607" lon="5.94004">
        <ele>519.25</ele>
        <time>2014-03-19T16:14:20Z</time>
      </trkpt>
      <trkpt lat="45.53588" lon="5.93997">
        <ele>521.65</ele>
        <time>2014-03-19T16:14:32Z</time>
      </trkpt>
      <trkpt lat="45.5356" lon="5.93994">
        <ele>524.54</ele>
        <time>2014-03-19T16:14:48Z</time>
      </trkpt>
      <trkpt lat="45.53531" lon="5.93979">
        <ele>527.42</ele>
        <time>2014-03-19T16:15:06Z</time>
      </trkpt>
      <trkpt lat="45.53506" lon="5.93973">
        <ele>530.79</ele>
        <time>2014-03-19T16:15:21Z</time>
      </trkpt>
      <trkpt lat="45.53481" lon="5.93975">
        <ele>532.71</ele>
        <time>2014-03-19T16:15:36Z</time>
      </trkpt>
      <trkpt lat="45.53481" lon="5.93973">
        <ele>533.67</ele>
        <time>2014-03-19T16:15:37Z</time>
      </trkpt>
      <trkpt lat="45.53481" lon="5.93971">
        <ele>533.19</ele>
        <time>2014-03-19T16:15:38Z</time>
      </trkpt>
      <trkpt lat="45.53481" lon="5.93969">
        <ele>533.67</ele>
        <time>2014-03-19T16:15:39Z</time>
      </trkpt>
      <trkpt lat="45.53481" lon="5.93966">
        <ele>533.67</ele>
        <time>2014-03-19T16:15:40Z</time>
      </trkpt>
      <trkpt lat="45.53482" lon="5.93965">
        <ele>534.15</ele>
        <time>2014-03-19T16:15:41Z</time>
      </trkpt>
      <trkpt lat="45.53484" lon="5.93964">
        <ele>533.67</ele>
        <time>2014-03-19T16:15:42Z</time>
      </trkpt>
      <trkpt lat="45.53485" lon="5.93963">
        <ele>534.15</ele>
        <time>2014-03-19T16:15:43Z</time>
      </trkpt>
      <trkpt lat="45.53499" lon="5.9395">
        <ele>536.55</ele>
        <time>2014-03-19T16:15:57Z</time>
      </trkpt>
      <trkpt lat="45.53499" lon="5.9395">
        <ele>536.55</ele>
        <time>2014-03-19T16:16:18Z</time>
      </trkpt>
      <trkpt lat="45.53501" lon="5.93948">
        <ele>537.03</ele>
        <time>2014-03-19T16:16:52Z</time>
      </trkpt>
      <trkpt lat="45.53511" lon="5.93924">
        <ele>539.44</ele>
        <time>2014-03-19T16:17:06Z</time>
      </trkpt>
      <trkpt lat="45.53526" lon="5.93906">
        <ele>542.8</ele>
        <time>2014-03-19T16:17:20Z</time>
      </trkpt>
      <trkpt lat="45.53542" lon="5.93892">
        <ele>544.72</ele>
        <time>2014-03-19T16:17:35Z</time>
      </trkpt>
      <trkpt lat="45.53557" lon="5.93879">
        <ele>547.61</ele>
        <time>2014-03-19T16:17:50Z</time>
      </trkpt>
      <trkpt lat="45.53571" lon="5.93867">
        <ele>550.01</ele>
        <time>2014-03-19T16:18:04Z</time>
      </trkpt>
      <trkpt lat="45.53581" lon="5.93863">
        <ele>552.41</ele>
        <time>2014-03-19T16:18:13Z</time>
      </trkpt>
      <trkpt lat="45.53591" lon="5.93854">
        <ele>554.82</ele>
        <time>2014-03-19T16:18:23Z</time>
      </trkpt>
      <trkpt lat="45.53602" lon="5.93847">
        <ele>556.74</ele>
        <time>2014-03-19T16:18:35Z</time>
      </trkpt>
      <trkpt lat="45.536" lon="5.9384">
        <ele>557.7</ele>
        <time>2014-03-19T16:18:39Z</time>
      </trkpt>
      <trkpt lat="45.53582" lon="5.93829">
        <ele>560.59</ele>
        <time>2014-03-19T16:18:52Z</time>
      </trkpt>
      <trkpt lat="45.53571" lon="5.93824">
        <ele>562.03</ele>
        <time>2014-03-19T16:19:01Z</time>
      </trkpt>
      <trkpt lat="45.53555" lon="5.93814">
        <ele>564.91</ele>
        <time>2014-03-19T16:19:17Z</time>
      </trkpt>
      <trkpt lat="45.53551" lon="5.93812">
        <ele>565.39</ele>
        <time>2014-03-19T16:19:32Z</time>
      </trkpt>
      <trkpt lat="45.53545" lon="5.93808">
        <ele>567.32</ele>
        <time>2014-03-19T16:19:47Z</time>
      </trkpt>
      <trkpt lat="45.53542" lon="5.93799">
        <ele>569.72</ele>
        <time>2014-03-19T16:20:03Z</time>
      </trkpt>
      <trkpt lat="45.53544" lon="5.93791">
        <ele>571.16</ele>
        <time>2014-03-19T16:20:16Z</time>
      </trkpt>
      <trkpt lat="45.53547" lon="5.9378">
        <ele>573.56</ele>
        <time>2014-03-19T16:20:30Z</time>
      </trkpt>
      <trkpt lat="45.53555" lon="5.93772">
        <ele>575.49</ele>
        <time>2014-03-19T16:20:46Z</time>
      </trkpt>
      <trkpt lat="45.53556" lon="5.93773">
        <ele>575.97</ele>
        <time>2014-03-19T16:21:14Z</time>
      </trkpt>
      <trkpt lat="45.53556" lon="5.93772">
        <ele>576.93</ele>
        <time>2014-03-19T16:21:23Z</time>
      </trkpt>
      <trkpt lat="45.53557" lon="5.9377">
        <ele>576.93</ele>
        <time>2014-03-19T16:21:25Z</time>
      </trkpt>
      <trkpt lat="45.5357" lon="5.93755">
        <ele>579.33</ele>
        <time>2014-03-19T16:21:37Z</time>
      </trkpt>
      <trkpt lat="45.53577" lon="5.93752">
        <ele>581.25</ele>
        <time>2014-03-19T16:21:43Z</time>
      </trkpt>
      <trkpt lat="45.53584" lon="5.93741">
        <ele>583.18</ele>
        <time>2014-03-19T16:21:52Z</time>
      </trkpt>
      <trkpt lat="45.5359" lon="5.93734">
        <ele>584.14</ele>
        <time>2014-03-19T16:21:59Z</time>
      </trkpt>
      <trkpt lat="45.53602" lon="5.93723">
        <ele>587.5</ele>
        <time>2014-03-19T16:22:11Z</time>
      </trkpt>
      <trkpt lat="45.53603" lon="5.9372">
        <ele>587.5</ele>
        <time>2014-03-19T16:22:13Z</time>
      </trkpt>
      <trkpt lat="45.5361" lon="5.93712">
        <ele>589.91</ele>
        <time>2014-03-19T16:22:20Z</time>
      </trkpt>
      <trkpt lat="45.53613" lon="5.9371">
        <ele>590.39</ele>
        <time>2014-03-19T16:22:24Z</time>
      </trkpt>
      <trkpt lat="45.53624" lon="5.93699">
        <ele>593.27</ele>
        <time>2014-03-19T16:22:38Z</time>
      </trkpt>
      <trkpt lat="45.53635" lon="5.93687">
        <ele>595.67</ele>
        <time>2014-03-19T16:22:52Z</time>
      </trkpt>
      <trkpt lat="45.53639" lon="5.93684">
        <ele>596.64</ele>
        <time>2014-03-19T16:22:56Z</time>
      </trkpt>
      <trkpt lat="45.53644" lon="5.93675">
        <ele>598.56</ele>
        <time>2014-03-19T16:23:02Z</time>
      </trkpt>
      <trkpt lat="45.53656" lon="5.93661">
        <ele>601.92</ele>
        <time>2014-03-19T16:23:17Z</time>
      </trkpt>
      <trkpt lat="45.53658" lon="5.93659">
        <ele>602.4</ele>
        <time>2014-03-19T16:23:19Z</time>
      </trkpt>
      <trkpt lat="45.53663" lon="5.93652">
        <ele>604.33</ele>
        <time>2014-03-19T16:23:26Z</time>
      </trkpt>
      <trkpt lat="45.53669" lon="5.93646">
        <ele>605.29</ele>
        <time>2014-03-19T16:23:32Z</time>
      </trkpt>
      <trkpt lat="45.53673" lon="5.93639">
        <ele>606.25</ele>
        <time>2014-03-19T16:23:38Z</time>
      </trkpt>
      <trkpt lat="45.53682" lon="5.9362">
        <ele>610.09</ele>
        <time>2014-03-19T16:23:51Z</time>
      </trkpt>
      <trkpt lat="45.53683" lon="5.93617">
        <ele>610.09</ele>
        <time>2014-03-19T16:23:53Z</time>
      </trkpt>
      <trkpt lat="45.5369" lon="5.93603">
        <ele>612.98</ele>
        <time>2014-03-19T16:24:05Z</time>
      </trkpt>
      <trkpt lat="45.53695" lon="5.93595">
        <ele>614.42</ele>
        <time>2014-03-19T16:24:12Z</time>
      </trkpt>
      <trkpt lat="45.53698" lon="5.93591">
        <ele>615.38</ele>
        <time>2014-03-19T16:24:15Z</time>
      </trkpt>
      <trkpt lat="45.537" lon="5.93584">
        <ele>617.3</ele>
        <time>2014-03-19T16:24:20Z</time>
      </trkpt>
      <trkpt lat="45.537" lon="5.93571">
        <ele>618.75</ele>
        <time>2014-03-19T16:24:28Z</time>
      </trkpt>
      <trkpt lat="45.537" lon="5.93566">
        <ele>619.23</ele>
        <time>2014-03-19T16:24:31Z</time>
      </trkpt>
      <trkpt lat="45.53695" lon="5.93548">
        <ele>620.67</ele>
        <time>2014-03-19T16:24:44Z</time>
      </trkpt>
      <trkpt lat="45.53698" lon="5.93539">
        <ele>622.59</ele>
        <time>2014-03-19T16:24:49Z</time>
      </trkpt>
      <trkpt lat="45.53714" lon="5.9354">
        <ele>624.51</ele>
        <time>2014-03-19T16:25:05Z</time>
      </trkpt>
      <trkpt lat="45.53721" lon="5.93548">
        <ele>626.44</ele>
        <time>2014-03-19T16:25:20Z</time>
      </trkpt>
      <trkpt lat="45.53722" lon="5.93554">
        <ele>627.88</ele>
        <time>2014-03-19T16:25:37Z</time>
      </trkpt>
      <trkpt lat="45.53723" lon="5.9356">
        <ele>629.32</ele>
        <time>2014-03-19T16:25:52Z</time>
      </trkpt>
      <trkpt lat="45.53729" lon="5.9356">
        <ele>630.76</ele>
        <time>2014-03-19T16:26:05Z</time>
      </trkpt>
      <trkpt lat="45.53738" lon="5.93557">
        <ele>632.68</ele>
        <time>2014-03-19T16:26:20Z</time>
      </trkpt>
      <trkpt lat="45.53738" lon="5.93558">
        <ele>632.68</ele>
        <time>2014-03-19T16:26:44Z</time>
      </trkpt>
      <trkpt lat="45.53743" lon="5.93562">
        <ele>631.72</ele>
        <time>2014-03-19T16:27:06Z</time>
      </trkpt>
      <trkpt lat="45.53749" lon="5.93564">
        <ele>629.8</ele>
        <time>2014-03-19T16:27:09Z</time>
      </trkpt>
      <trkpt lat="45.53756" lon="5.9357">
        <ele>626.92</ele>
        <time>2014-03-19T16:27:14Z</time>
      </trkpt>
      <trkpt lat="45.53762" lon="5.93578">
        <ele>623.07</ele>
        <time>2014-03-19T16:27:19Z</time>
      </trkpt>
      <trkpt lat="45.53763" lon="5.93578">
        <ele>622.11</ele>
        <time>2014-03-19T16:27:20Z</time>
      </trkpt>
      <trkpt lat="45.53781" lon="5.93602">
        <ele>622.59</ele>
        <time>2014-03-19T16:27:28Z</time>
      </trkpt>
      <trkpt lat="45.53783" lon="5.93633">
        <ele>625.96</ele>
        <time>2014-03-19T16:27:44Z</time>
      </trkpt>
      <trkpt lat="45.53786" lon="5.93637">
        <ele>626.92</ele>
        <time>2014-03-19T16:27:48Z</time>
      </trkpt>
      <trkpt lat="45.53793" lon="5.93635">
        <ele>629.32</ele>
        <time>2014-03-19T16:28:01Z</time>
      </trkpt>
      <trkpt lat="45.53795" lon="5.93627">
        <ele>632.68</ele>
        <time>2014-03-19T16:28:15Z</time>
      </trkpt>
      <trkpt lat="45.53803" lon="5.93626">
        <ele>632.68</ele>
        <time>2014-03-19T16:28:29Z</time>
      </trkpt>
      <trkpt lat="45.53806" lon="5.93628">
        <ele>631.72</ele>
        <time>2014-03-19T16:28:32Z</time>
      </trkpt>
      <trkpt lat="45.53824" lon="5.93637">
        <ele>628.36</ele>
        <time>2014-03-19T16:28:41Z</time>
      </trkpt>
      <trkpt lat="45.53843" lon="5.93666">
        <ele>627.4</ele>
        <time>2014-03-19T16:28:54Z</time>
      </trkpt>
      <trkpt lat="45.53854" lon="5.93682">
        <ele>629.32</ele>
        <time>2014-03-19T16:29:08Z</time>
      </trkpt>
      <trkpt lat="45.5386" lon="5.93692">
        <ele>632.2</ele>
        <time>2014-03-19T16:29:22Z</time>
      </trkpt>
      <trkpt lat="45.53864" lon="5.937">
        <ele>635.57</ele>
        <time>2014-03-19T16:29:36Z</time>
      </trkpt>
      <trkpt lat="45.53865" lon="5.93706">
        <ele>637.49</ele>
        <time>2014-03-19T16:29:51Z</time>
      </trkpt>
      <trkpt lat="45.53868" lon="5.93712">
        <ele>639.89</ele>
        <time>2014-03-19T16:30:04Z</time>
      </trkpt>
      <trkpt lat="45.53871" lon="5.93718">
        <ele>640.38</ele>
        <time>2014-03-19T16:30:16Z</time>
      </trkpt>
      <trkpt lat="45.53901" lon="5.93716">
        <ele>639.89</ele>
        <time>2014-03-19T16:30:29Z</time>
      </trkpt>
      <trkpt lat="45.53909" lon="5.93717">
        <ele>639.89</ele>
        <time>2014-03-19T16:30:34Z</time>
      </trkpt>
      <trkpt lat="45.53922" lon="5.93724">
        <ele>638.45</ele>
        <time>2014-03-19T16:30:41Z</time>
      </trkpt>
      <trkpt lat="45.53928" lon="5.93723">
        <ele>638.45</ele>
        <time>2014-03-19T16:30:45Z</time>
      </trkpt>
      <trkpt lat="45.53931" lon="5.93729">
        <ele>637.97</ele>
        <time>2014-03-19T16:31:00Z</time>
      </trkpt>
      <trkpt lat="45.53932" lon="5.93744">
        <ele>638.93</ele>
        <time>2014-03-19T16:31:07Z</time>
      </trkpt>
      <trkpt lat="45.53941" lon="5.93762">
        <ele>640.86</ele>
        <time>2014-03-19T16:31:23Z</time>
      </trkpt>
      <trkpt lat="45.53948" lon="5.93775">
        <ele>638.93</ele>
        <time>2014-03-19T16:31:28Z</time>
      </trkpt>
      <trkpt lat="45.53957" lon="5.93782">
        <ele>637.01</ele>
        <time>2014-03-19T16:31:33Z</time>
      </trkpt>
      <trkpt lat="45.53986" lon="5.93802">
        <ele>635.09</ele>
        <time>2014-03-19T16:31:43Z</time>
      </trkpt>
      <trkpt lat="45.53999" lon="5.9382">
        <ele>632.2</ele>
        <time>2014-03-19T16:31:50Z</time>
      </trkpt>
      <trkpt lat="45.54017" lon="5.93835">
        <ele>628.84</ele>
        <time>2014-03-19T16:31:58Z</time>
      </trkpt>
      <trkpt lat="45.54023" lon="5.93848">
        <ele>626.44</ele>
        <time>2014-03-19T16:32:03Z</time>
      </trkpt>
      <trkpt lat="45.54029" lon="5.93855">
        <ele>624.99</ele>
        <time>2014-03-19T16:32:06Z</time>
      </trkpt>
      <trkpt lat="45.54037" lon="5.93857">
        <ele>623.07</ele>
        <time>2014-03-19T16:32:10Z</time>
      </trkpt>
      <trkpt lat="45.54053" lon="5.9387">
        <ele>619.23</ele>
        <time>2014-03-19T16:32:18Z</time>
      </trkpt>
      <trkpt lat="45.54052" lon="5.93875">
        <ele>618.75</ele>
        <time>2014-03-19T16:32:20Z</time>
      </trkpt>
      <trkpt lat="45.5405" lon="5.93891">
        <ele>616.82</ele>
        <time>2014-03-19T16:32:25Z</time>
      </trkpt>
      <trkpt lat="45.54047" lon="5.93897">
        <ele>615.38</ele>
        <time>2014-03-19T16:32:29Z</time>
      </trkpt>
      <trkpt lat="45.54049" lon="5.93904">
        <ele>613.46</ele>
        <time>2014-03-19T16:32:33Z</time>
      </trkpt>
      <trkpt lat="45.54057" lon="5.93918">
        <ele>611.06</ele>
        <time>2014-03-19T16:32:41Z</time>
      </trkpt>
      <trkpt lat="45.5407" lon="5.93925">
        <ele>607.21</ele>
        <time>2014-03-19T16:32:52Z</time>
      </trkpt>
      <trkpt lat="45.54079" lon="5.93927">
        <ele>603.36</ele>
        <time>2014-03-19T16:33:01Z</time>
      </trkpt>
      <trkpt lat="45.54083" lon="5.9393">
        <ele>600</ele>
        <time>2014-03-19T16:33:09Z</time>
      </trkpt>
      <trkpt lat="45.54085" lon="5.9393">
        <ele>599.52</ele>
        <time>2014-03-19T16:33:11Z</time>
      </trkpt>
      <trkpt lat="45.54092" lon="5.93935">
        <ele>596.64</ele>
        <time>2014-03-19T16:33:16Z</time>
      </trkpt>
      <trkpt lat="45.54104" lon="5.93952">
        <ele>592.31</ele>
        <time>2014-03-19T16:33:22Z</time>
      </trkpt>
      <trkpt lat="45.54121" lon="5.93961">
        <ele>589.43</ele>
        <time>2014-03-19T16:33:28Z</time>
      </trkpt>
      <trkpt lat="45.54128" lon="5.93961">
        <ele>589.43</ele>
        <time>2014-03-19T16:33:29Z</time>
      </trkpt>
      <trkpt lat="45.54142" lon="5.93963">
        <ele>587.02</ele>
        <time>2014-03-19T16:33:33Z</time>
      </trkpt>
      <trkpt lat="45.5417" lon="5.93972">
        <ele>585.58</ele>
        <time>2014-03-19T16:33:43Z</time>
      </trkpt>
      <trkpt lat="45.54183" lon="5.93988">
        <ele>582.22</ele>
        <time>2014-03-19T16:33:54Z</time>
      </trkpt>
      <trkpt lat="45.5419" lon="5.93994">
        <ele>578.85</ele>
        <time>2014-03-19T16:34:00Z</time>
      </trkpt>
      <trkpt lat="45.54192" lon="5.93993">
        <ele>578.37</ele>
        <time>2014-03-19T16:34:02Z</time>
      </trkpt>
      <trkpt lat="45.54198" lon="5.93993">
        <ele>575.01</ele>
        <time>2014-03-19T16:34:09Z</time>
      </trkpt>
      <trkpt lat="45.54205" lon="5.93996">
        <ele>571.64</ele>
        <time>2014-03-19T16:34:13Z</time>
      </trkpt>
      <trkpt lat="45.54206" lon="5.93997">
        <ele>571.64</ele>
        <time>2014-03-19T16:34:14Z</time>
      </trkpt>
      <trkpt lat="45.54237" lon="5.94017">
        <ele>571.16</ele>
        <time>2014-03-19T16:34:25Z</time>
      </trkpt>
      <trkpt lat="45.54255" lon="5.94037">
        <ele>567.8</ele>
        <time>2014-03-19T16:34:33Z</time>
      </trkpt>
      <trkpt lat="45.54268" lon="5.94047">
        <ele>563.95</ele>
        <time>2014-03-19T16:34:39Z</time>
      </trkpt>
      <trkpt lat="45.54283" lon="5.94055">
        <ele>560.11</ele>
        <time>2014-03-19T16:34:46Z</time>
      </trkpt>
      <trkpt lat="45.54304" lon="5.94065">
        <ele>557.22</ele>
        <time>2014-03-19T16:34:52Z</time>
      </trkpt>
      <trkpt lat="45.54315" lon="5.94075">
        <ele>554.34</ele>
        <time>2014-03-19T16:34:57Z</time>
      </trkpt>
      <trkpt lat="45.54318" lon="5.9408">
        <ele>552.9</ele>
        <time>2014-03-19T16:35:00Z</time>
      </trkpt>
      <trkpt lat="45.54322" lon="5.94092">
        <ele>549.53</ele>
        <time>2014-03-19T16:35:06Z</time>
      </trkpt>
      <trkpt lat="45.54327" lon="5.94118">
        <ele>545.69</ele>
        <time>2014-03-19T16:35:13Z</time>
      </trkpt>
      <trkpt lat="45.54352" lon="5.94137">
        <ele>542.32</ele>
        <time>2014-03-19T16:35:22Z</time>
      </trkpt>
      <trkpt lat="45.54353" lon="5.9414">
        <ele>541.84</ele>
        <time>2014-03-19T16:35:23Z</time>
      </trkpt>
      <trkpt lat="45.5436" lon="5.94131">
        <ele>539.44</ele>
        <time>2014-03-19T16:35:28Z</time>
      </trkpt>
      <trkpt lat="45.54368" lon="5.94123">
        <ele>536.07</ele>
        <time>2014-03-19T16:35:33Z</time>
      </trkpt>
      <trkpt lat="45.54371" lon="5.94124">
        <ele>534.15</ele>
        <time>2014-03-19T16:35:36Z</time>
      </trkpt>
      <trkpt lat="45.54383" lon="5.94131">
        <ele>532.23</ele>
        <time>2014-03-19T16:35:41Z</time>
      </trkpt>
      <trkpt lat="45.54404" lon="5.94139">
        <ele>528.86</ele>
        <time>2014-03-19T16:35:47Z</time>
      </trkpt>
      <trkpt lat="45.54408" lon="5.9414">
        <ele>527.9</ele>
        <time>2014-03-19T16:35:48Z</time>
      </trkpt>
      <trkpt lat="45.54426" lon="5.9415">
        <ele>524.54</ele>
        <time>2014-03-19T16:35:52Z</time>
      </trkpt>
      <trkpt lat="45.54428" lon="5.94151">
        <ele>524.06</ele>
        <time>2014-03-19T16:35:53Z</time>
      </trkpt>
      <trkpt lat="45.54439" lon="5.94157">
        <ele>523.09</ele>
        <time>2014-03-19T16:35:55Z</time>
      </trkpt>
      <trkpt lat="45.54443" lon="5.94182">
        <ele>520.69</ele>
        <time>2014-03-19T16:36:03Z</time>
      </trkpt>
      <trkpt lat="45.54443" lon="5.94196">
        <ele>517.81</ele>
        <time>2014-03-19T16:36:07Z</time>
      </trkpt>
      <trkpt lat="45.54475" lon="5.94244">
        <ele>514.92</ele>
        <time>2014-03-19T16:36:20Z</time>
      </trkpt>
      <trkpt lat="45.54503" lon="5.94243">
        <ele>512.04</ele>
        <time>2014-03-19T16:36:26Z</time>
      </trkpt>
      <trkpt lat="45.5452" lon="5.94243">
        <ele>509.64</ele>
        <time>2014-03-19T16:36:30Z</time>
      </trkpt>
      <trkpt lat="45.5453" lon="5.94243">
        <ele>506.75</ele>
        <time>2014-03-19T16:36:34Z</time>
      </trkpt>
      <trkpt lat="45.54554" lon="5.94256">
        <ele>502.91</ele>
        <time>2014-03-19T16:36:41Z</time>
      </trkpt>
      <trkpt lat="45.54557" lon="5.94256">
        <ele>501.95</ele>
        <time>2014-03-19T16:36:42Z</time>
      </trkpt>
      <trkpt lat="45.54573" lon="5.94264">
        <ele>500.5</ele>
        <time>2014-03-19T16:36:46Z</time>
      </trkpt>
      <trkpt lat="45.54574" lon="5.94264">
        <ele>499.54</ele>
        <time>2014-03-19T16:36:47Z</time>
      </trkpt>
      <trkpt lat="45.54573" lon="5.94265">
        <ele>496.18</ele>
        <time>2014-03-19T16:36:50Z</time>
      </trkpt>
      <trkpt lat="45.54562" lon="5.94281">
        <ele>493.29</ele>
        <time>2014-03-19T16:36:56Z</time>
      </trkpt>
      <trkpt lat="45.54564" lon="5.94304">
        <ele>489.93</ele>
        <time>2014-03-19T16:37:02Z</time>
      </trkpt>
      <trkpt lat="45.54568" lon="5.94308">
        <ele>488.97</ele>
        <time>2014-03-19T16:37:04Z</time>
      </trkpt>
      <trkpt lat="45.54575" lon="5.94311">
        <ele>486.08</ele>
        <time>2014-03-19T16:37:08Z</time>
      </trkpt>
      <trkpt lat="45.54584" lon="5.94311">
        <ele>483.2</ele>
        <time>2014-03-19T16:37:13Z</time>
      </trkpt>
      <trkpt lat="45.5459" lon="5.94308">
        <ele>482.72</ele>
        <time>2014-03-19T16:37:14Z</time>
      </trkpt>
      <trkpt lat="45.54595" lon="5.94311">
        <ele>480.8</ele>
        <time>2014-03-19T16:37:16Z</time>
      </trkpt>
      <trkpt lat="45.54611" lon="5.94316">
        <ele>477.43</ele>
        <time>2014-03-19T16:37:21Z</time>
      </trkpt>
      <trkpt lat="45.54633" lon="5.94343">
        <ele>472.63</ele>
        <time>2014-03-19T16:37:29Z</time>
      </trkpt>
      <trkpt lat="45.54638" lon="5.94351">
        <ele>471.66</ele>
        <time>2014-03-19T16:37:31Z</time>
      </trkpt>
      <trkpt lat="45.54651" lon="5.94364">
        <ele>468.3</ele>
        <time>2014-03-19T16:37:36Z</time>
      </trkpt>
      <trkpt lat="45.54659" lon="5.94372">
        <ele>464.93</ele>
        <time>2014-03-19T16:37:40Z</time>
      </trkpt>
      <trkpt lat="45.54663" lon="5.94386">
        <ele>464.93</ele>
        <time>2014-03-19T16:37:43Z</time>
      </trkpt>
      <trkpt lat="45.54665" lon="5.94401">
        <ele>463.97</ele>
        <time>2014-03-19T16:37:46Z</time>
      </trkpt>
      <trkpt lat="45.54673" lon="5.94403">
        <ele>460.61</ele>
        <time>2014-03-19T16:37:52Z</time>
      </trkpt>
      <trkpt lat="45.54682" lon="5.94419">
        <ele>456.28</ele>
        <time>2014-03-19T16:37:57Z</time>
      </trkpt>
      <trkpt lat="45.54703" lon="5.94457">
        <ele>452.92</ele>
        <time>2014-03-19T16:38:05Z</time>
      </trkpt>
      <trkpt lat="45.5471" lon="5.94478">
        <ele>449.55</ele>
        <time>2014-03-19T16:38:09Z</time>
      </trkpt>
      <trkpt lat="45.54721" lon="5.94486">
        <ele>446.19</ele>
        <time>2014-03-19T16:38:13Z</time>
      </trkpt>
      <trkpt lat="45.54723" lon="5.94487">
        <ele>445.71</ele>
        <time>2014-03-19T16:38:14Z</time>
      </trkpt>
      <trkpt lat="45.54733" lon="5.94486">
        <ele>443.31</ele>
        <time>2014-03-19T16:38:19Z</time>
      </trkpt>
      <trkpt lat="45.54741" lon="5.94471">
        <ele>439.94</ele>
        <time>2014-03-19T16:38:25Z</time>
      </trkpt>
      <trkpt lat="45.54747" lon="5.94457">
        <ele>437.06</ele>
        <time>2014-03-19T16:38:29Z</time>
      </trkpt>
      <trkpt lat="45.54751" lon="5.94452">
        <ele>435.61</ele>
        <time>2014-03-19T16:38:31Z</time>
      </trkpt>
      <trkpt lat="45.54782" lon="5.94451">
        <ele>432.25</ele>
        <time>2014-03-19T16:38:38Z</time>
      </trkpt>
      <trkpt lat="45.54795" lon="5.94464">
        <ele>429.85</ele>
        <time>2014-03-19T16:38:41Z</time>
      </trkpt>
      <trkpt lat="45.54808" lon="5.94492">
        <ele>426</ele>
        <time>2014-03-19T16:38:45Z</time>
      </trkpt>
      <trkpt lat="45.54816" lon="5.94493">
        <ele>422.64</ele>
        <time>2014-03-19T16:38:49Z</time>
      </trkpt>
      <trkpt lat="45.5483" lon="5.94482">
        <ele>419.27</ele>
        <time>2014-03-19T16:38:53Z</time>
      </trkpt>
      <trkpt lat="45.54838" lon="5.94471">
        <ele>418.31</ele>
        <time>2014-03-19T16:38:55Z</time>
      </trkpt>
      <trkpt lat="45.54842" lon="5.94444">
        <ele>413.5</ele>
        <time>2014-03-19T16:38:58Z</time>
      </trkpt>
      <trkpt lat="45.54838" lon="5.94414">
        <ele>409.66</ele>
        <time>2014-03-19T16:39:01Z</time>
      </trkpt>
      <trkpt lat="45.54834" lon="5.94385">
        <ele>406.29</ele>
        <time>2014-03-19T16:39:04Z</time>
      </trkpt>
      <trkpt lat="45.54833" lon="5.94371">
        <ele>406.29</ele>
        <time>2014-03-19T16:39:05Z</time>
      </trkpt>
      <trkpt lat="45.5483" lon="5.94352">
        <ele>403.41</ele>
        <time>2014-03-19T16:39:07Z</time>
      </trkpt>
      <trkpt lat="45.54822" lon="5.94317">
        <ele>399.08</ele>
        <time>2014-03-19T16:39:10Z</time>
      </trkpt>
      <trkpt lat="45.54819" lon="5.94276">
        <ele>397.16</ele>
        <time>2014-03-19T16:39:13Z</time>
      </trkpt>
      <trkpt lat="45.54818" lon="5.94266">
        <ele>396.2</ele>
        <time>2014-03-19T16:39:14Z</time>
      </trkpt>
      <trkpt lat="45.54818" lon="5.94257">
        <ele>395.24</ele>
        <time>2014-03-19T16:39:15Z</time>
      </trkpt>
      <trkpt lat="45.54819" lon="5.94249">
        <ele>394.28</ele>
        <time>2014-03-19T16:39:16Z</time>
      </trkpt>
      <trkpt lat="45.5482" lon="5.9424">
        <ele>393.32</ele>
        <time>2014-03-19T16:39:17Z</time>
      </trkpt>
      <trkpt lat="45.54822" lon="5.94231">
        <ele>392.84</ele>
        <time>2014-03-19T16:39:18Z</time>
      </trkpt>
      <trkpt lat="45.54828" lon="5.94208">
        <ele>389.47</ele>
        <time>2014-03-19T16:39:21Z</time>
      </trkpt>
      <trkpt lat="45.54837" lon="5.94199">
        <ele>388.03</ele>
        <time>2014-03-19T16:39:24Z</time>
      </trkpt>
      <trkpt lat="45.54842" lon="5.94202">
        <ele>388.03</ele>
        <time>2014-03-19T16:39:25Z</time>
      </trkpt>
      <trkpt lat="45.54848" lon="5.94209">
        <ele>387.07</ele>
        <time>2014-03-19T16:39:26Z</time>
      </trkpt>
      <trkpt lat="45.54853" lon="5.94216">
        <ele>386.59</ele>
        <time>2014-03-19T16:39:27Z</time>
      </trkpt>
      <trkpt lat="45.5486" lon="5.94222">
        <ele>386.11</ele>
        <time>2014-03-19T16:39:28Z</time>
      </trkpt>
      <trkpt lat="45.54866" lon="5.94226">
        <ele>385.63</ele>
        <time>2014-03-19T16:39:29Z</time>
      </trkpt>
      <trkpt lat="45.54874" lon="5.94228">
        <ele>384.66</ele>
        <time>2014-03-19T16:39:30Z</time>
      </trkpt>
      <trkpt lat="45.54882" lon="5.94231">
        <ele>384.18</ele>
        <time>2014-03-19T16:39:31Z</time>
      </trkpt>
      <trkpt lat="45.54908" lon="5.9426">
        <ele>380.82</ele>
        <time>2014-03-19T16:39:34Z</time>
      </trkpt>
      <trkpt lat="45.54914" lon="5.94264">
        <ele>379.86</ele>
        <time>2014-03-19T16:39:35Z</time>
      </trkpt>
      <trkpt lat="45.54919" lon="5.94264">
        <ele>378.9</ele>
        <time>2014-03-19T16:39:36Z</time>
      </trkpt>
      <trkpt lat="45.54923" lon="5.94261">
        <ele>378.42</ele>
        <time>2014-03-19T16:39:37Z</time>
      </trkpt>
      <trkpt lat="45.54926" lon="5.94256">
        <ele>377.94</ele>
        <time>2014-03-19T16:39:38Z</time>
      </trkpt>
      <trkpt lat="45.54925" lon="5.94249">
        <ele>376.97</ele>
        <time>2014-03-19T16:39:39Z</time>
      </trkpt>
      <trkpt lat="45.54922" lon="5.94241">
        <ele>376.01</ele>
        <time>2014-03-19T16:39:40Z</time>
      </trkpt>
      <trkpt lat="45.54918" lon="5.94233">
        <ele>375.05</ele>
        <time>2014-03-19T16:39:41Z</time>
      </trkpt>
      <trkpt lat="45.54906" lon="5.94202">
        <ele>371.21</ele>
        <time>2014-03-19T16:39:44Z</time>
      </trkpt>
      <trkpt lat="45.54905" lon="5.9419">
        <ele>370.24</ele>
        <time>2014-03-19T16:39:45Z</time>
      </trkpt>
      <trkpt lat="45.54903" lon="5.94154">
        <ele>368.8</ele>
        <time>2014-03-19T16:39:48Z</time>
      </trkpt>
      <trkpt lat="45.54905" lon="5.94144">
        <ele>368.32</ele>
        <time>2014-03-19T16:39:49Z</time>
      </trkpt>
      <trkpt lat="45.54907" lon="5.94136">
        <ele>368.32</ele>
        <time>2014-03-19T16:39:50Z</time>
      </trkpt>
      <trkpt lat="45.5491" lon="5.9413">
        <ele>368.32</ele>
        <time>2014-03-19T16:39:51Z</time>
      </trkpt>
      <trkpt lat="45.54913" lon="5.94127">
        <ele>368.32</ele>
        <time>2014-03-19T16:39:52Z</time>
      </trkpt>
      <trkpt lat="45.54916" lon="5.94125">
        <ele>368.8</ele>
        <time>2014-03-19T16:39:53Z</time>
      </trkpt>
      <trkpt lat="45.54922" lon="5.94125">
        <ele>369.28</ele>
        <time>2014-03-19T16:40:02Z</time>
      </trkpt>
      <trkpt lat="45.54924" lon="5.94127">
        <ele>369.28</ele>
        <time>2014-03-19T16:40:26Z</time>
      </trkpt>
      <trkpt lat="45.54925" lon="5.94128">
        <ele>369.28</ele>
        <time>2014-03-19T16:40:27Z</time>
      </trkpt>
      <trkpt lat="45.54927" lon="5.94129">
        <ele>368.8</ele>
        <time>2014-03-19T16:40:28Z</time>
      </trkpt>
      <trkpt lat="45.54929" lon="5.94131">
        <ele>369.28</ele>
        <time>2014-03-19T16:40:29Z</time>
      </trkpt>
      <trkpt lat="45.54948" lon="5.94142">
        <ele>367.36</ele>
        <time>2014-03-19T16:40:35Z</time>
      </trkpt>
      <trkpt lat="45.54953" lon="5.94145">
        <ele>366.88</ele>
        <time>2014-03-19T16:40:36Z</time>
      </trkpt>
      <trkpt lat="45.54963" lon="5.94153">
        <ele>365.44</ele>
        <time>2014-03-19T16:40:38Z</time>
      </trkpt>
      <trkpt lat="45.54976" lon="5.94167">
        <ele>364.48</ele>
        <time>2014-03-19T16:40:41Z</time>
      </trkpt>
      <trkpt lat="45.54981" lon="5.94169">
        <ele>363.52</ele>
        <time>2014-03-19T16:40:42Z</time>
      </trkpt>
      <trkpt lat="45.54986" lon="5.94171">
        <ele>363.52</ele>
        <time>2014-03-19T16:40:43Z</time>
      </trkpt>
      <trkpt lat="45.54991" lon="5.94171">
        <ele>363.04</ele>
        <time>2014-03-19T16:40:44Z</time>
      </trkpt>
      <trkpt lat="45.54997" lon="5.9417">
        <ele>363.04</ele>
        <time>2014-03-19T16:40:45Z</time>
      </trkpt>
      <trkpt lat="45.55003" lon="5.94169">
        <ele>362.07</ele>
        <time>2014-03-19T16:40:46Z</time>
      </trkpt>
      <trkpt lat="45.55009" lon="5.94167">
        <ele>362.07</ele>
        <time>2014-03-19T16:40:47Z</time>
      </trkpt>
      <trkpt lat="45.55029" lon="5.94159">
        <ele>359.67</ele>
        <time>2014-03-19T16:40:50Z</time>
      </trkpt>
      <trkpt lat="45.55034" lon="5.94156">
        <ele>359.19</ele>
        <time>2014-03-19T16:40:51Z</time>
      </trkpt>
      <trkpt lat="45.55041" lon="5.94149">
        <ele>358.71</ele>
        <time>2014-03-19T16:40:52Z</time>
      </trkpt>
      <trkpt lat="45.55047" lon="5.94143">
        <ele>357.75</ele>
        <time>2014-03-19T16:40:53Z</time>
      </trkpt>
      <trkpt lat="45.55053" lon="5.94139">
        <ele>356.79</ele>
        <time>2014-03-19T16:40:54Z</time>
      </trkpt>
      <trkpt lat="45.55059" lon="5.94138">
        <ele>355.83</ele>
        <time>2014-03-19T16:40:55Z</time>
      </trkpt>
      <trkpt lat="45.55065" lon="5.9414">
        <ele>355.83</ele>
        <time>2014-03-19T16:40:56Z</time>
      </trkpt>
      <trkpt lat="45.55071" lon="5.94146">
        <ele>354.86</ele>
        <time>2014-03-19T16:40:57Z</time>
      </trkpt>
      <trkpt lat="45.55076" lon="5.94154">
        <ele>353.9</ele>
        <time>2014-03-19T16:40:58Z</time>
      </trkpt>
      <trkpt lat="45.55081" lon="5.94162">
        <ele>352.94</ele>
        <time>2014-03-19T16:40:59Z</time>
      </trkpt>
      <trkpt lat="45.55093" lon="5.94185">
        <ele>351.02</ele>
        <time>2014-03-19T16:41:02Z</time>
      </trkpt>
      <trkpt lat="45.55096" lon="5.9419">
        <ele>350.54</ele>
        <time>2014-03-19T16:41:03Z</time>
      </trkpt>
      <trkpt lat="45.55114" lon="5.94216">
        <ele>351.02</ele>
        <time>2014-03-19T16:41:11Z</time>
      </trkpt>
      <trkpt lat="45.55125" lon="5.94261">
        <ele>352.94</ele>
        <time>2014-03-19T16:41:25Z</time>
      </trkpt>
      <trkpt lat="45.5514" lon="5.94319">
        <ele>355.34</ele>
        <time>2014-03-19T16:41:43Z</time>
      </trkpt>
      <trkpt lat="45.55151" lon="5.94379">
        <ele>358.23</ele>
        <time>2014-03-19T16:42:01Z</time>
      </trkpt>
      <trkpt lat="45.55151" lon="5.94427">
        <ele>361.11</ele>
        <time>2014-03-19T16:42:15Z</time>
      </trkpt>
      <trkpt lat="45.55154" lon="5.94481">
        <ele>364.48</ele>
        <time>2014-03-19T16:42:31Z</time>
      </trkpt>
      <trkpt lat="45.55149" lon="5.94532">
        <ele>366.4</ele>
        <time>2014-03-19T16:42:46Z</time>
      </trkpt>
      <trkpt lat="45.55135" lon="5.94583">
        <ele>368.8</ele>
        <time>2014-03-19T16:43:02Z</time>
      </trkpt>
      <trkpt lat="45.5511" lon="5.94623">
        <ele>372.17</ele>
        <time>2014-03-19T16:43:18Z</time>
      </trkpt>
      <trkpt lat="45.55074" lon="5.94634">
        <ele>375.05</ele>
        <time>2014-03-19T16:43:34Z</time>
      </trkpt>
      <trkpt lat="45.55032" lon="5.94645">
        <ele>377.94</ele>
        <time>2014-03-19T16:43:52Z</time>
      </trkpt>
      <trkpt lat="45.55001" lon="5.94652">
        <ele>380.82</ele>
        <time>2014-03-19T16:44:05Z</time>
      </trkpt>
      <trkpt lat="45.54958" lon="5.94658">
        <ele>382.74</ele>
        <time>2014-03-19T16:44:24Z</time>
      </trkpt>
      <trkpt lat="45.54932" lon="5.94643">
        <ele>385.63</ele>
        <time>2014-03-19T16:44:36Z</time>
      </trkpt>
      <trkpt lat="45.54897" lon="5.94647">
        <ele>388.03</ele>
        <time>2014-03-19T16:44:50Z</time>
      </trkpt>
      <trkpt lat="45.54848" lon="5.94673">
        <ele>389.95</ele>
        <time>2014-03-19T16:45:08Z</time>
      </trkpt>
      <trkpt lat="45.54791" lon="5.947">
        <ele>393.32</ele>
        <time>2014-03-19T16:45:28Z</time>
      </trkpt>
      <trkpt lat="45.5473" lon="5.94714">
        <ele>393.8</ele>
        <time>2014-03-19T16:45:47Z</time>
      </trkpt>
      <trkpt lat="45.54652" lon="5.94726">
        <ele>390.91</ele>
        <time>2014-03-19T16:46:04Z</time>
      </trkpt>
      <trkpt lat="45.54563" lon="5.94734">
        <ele>388.99</ele>
        <time>2014-03-19T16:46:20Z</time>
      </trkpt>
      <trkpt lat="45.54493" lon="5.94724">
        <ele>388.99</ele>
        <time>2014-03-19T16:46:35Z</time>
      </trkpt>
      <trkpt lat="45.54482" lon="5.94724">
        <ele>388.99</ele>
        <time>2014-03-19T16:46:39Z</time>
      </trkpt>
      <trkpt lat="45.54482" lon="5.94724">
        <ele>390.91</ele>
        <time>2014-03-19T16:46:54Z</time>
      </trkpt>
      <trkpt lat="45.5448" lon="5.94724">
        <ele>388.51</ele>
        <time>2014-03-19T16:46:55Z</time>
      </trkpt>
      <trkpt lat="45.54479" lon="5.94724">
        <ele>388.99</ele>
        <time>2014-03-19T16:46:56Z</time>
      </trkpt>
      <trkpt lat="45.54476" lon="5.94724">
        <ele>388.51</ele>
        <time>2014-03-19T16:46:57Z</time>
      </trkpt>
      <trkpt lat="45.54473" lon="5.94725">
        <ele>388.51</ele>
        <time>2014-03-19T16:46:58Z</time>
      </trkpt>
      <trkpt lat="45.54453" lon="5.94727">
        <ele>388.51</ele>
        <time>2014-03-19T16:47:03Z</time>
      </trkpt>
      <trkpt lat="45.54449" lon="5.94728">
        <ele>388.03</ele>
        <time>2014-03-19T16:47:04Z</time>
      </trkpt>
      <trkpt lat="45.54421" lon="5.94732">
        <ele>388.03</ele>
        <time>2014-03-19T16:47:10Z</time>
      </trkpt>
      <trkpt lat="45.54416" lon="5.94733">
        <ele>387.55</ele>
        <time>2014-03-19T16:47:11Z</time>
      </trkpt>
      <trkpt lat="45.54361" lon="5.94739">
        <ele>391.39</ele>
        <time>2014-03-19T16:47:26Z</time>
      </trkpt>
      <trkpt lat="45.54296" lon="5.94746">
        <ele>393.32</ele>
        <time>2014-03-19T16:47:45Z</time>
      </trkpt>
      <trkpt lat="45.54221" lon="5.9476">
        <ele>395.24</ele>
        <time>2014-03-19T16:48:05Z</time>
      </trkpt>
      <trkpt lat="45.54165" lon="5.94765">
        <ele>398.12</ele>
        <time>2014-03-19T16:48:22Z</time>
      </trkpt>
      <trkpt lat="45.54134" lon="5.94764">
        <ele>397.16</ele>
        <time>2014-03-19T16:48:30Z</time>
      </trkpt>
      <trkpt lat="45.54113" lon="5.94763">
        <ele>396.2</ele>
        <time>2014-03-19T16:48:34Z</time>
      </trkpt>
      <trkpt lat="45.54109" lon="5.94764">
        <ele>395.72</ele>
        <time>2014-03-19T16:48:35Z</time>
      </trkpt>
      <trkpt lat="45.54106" lon="5.94768">
        <ele>395.72</ele>
        <time>2014-03-19T16:48:36Z</time>
      </trkpt>
      <trkpt lat="45.54104" lon="5.94774">
        <ele>395.24</ele>
        <time>2014-03-19T16:48:37Z</time>
      </trkpt>
      <trkpt lat="45.54102" lon="5.94781">
        <ele>395.24</ele>
        <time>2014-03-19T16:48:38Z</time>
      </trkpt>
      <trkpt lat="45.541" lon="5.94789">
        <ele>394.28</ele>
        <time>2014-03-19T16:48:39Z</time>
      </trkpt>
      <trkpt lat="45.54097" lon="5.94798">
        <ele>393.32</ele>
        <time>2014-03-19T16:48:40Z</time>
      </trkpt>
      <trkpt lat="45.54094" lon="5.94807">
        <ele>392.84</ele>
        <time>2014-03-19T16:48:41Z</time>
      </trkpt>
      <trkpt lat="45.54083" lon="5.94834">
        <ele>391.39</ele>
        <time>2014-03-19T16:48:44Z</time>
      </trkpt>
      <trkpt lat="45.54074" lon="5.94848">
        <ele>390.91</ele>
        <time>2014-03-19T16:48:46Z</time>
      </trkpt>
      <trkpt lat="45.5407" lon="5.94853">
        <ele>390.43</ele>
        <time>2014-03-19T16:48:47Z</time>
      </trkpt>
      <trkpt lat="45.54068" lon="5.94858">
        <ele>390.43</ele>
        <time>2014-03-19T16:48:48Z</time>
      </trkpt>
      <trkpt lat="45.54067" lon="5.94862">
        <ele>390.43</ele>
        <time>2014-03-19T16:48:49Z</time>
      </trkpt>
      <trkpt lat="45.54066" lon="5.94867">
        <ele>390.43</ele>
        <time>2014-03-19T16:48:50Z</time>
      </trkpt>
      <trkpt lat="45.54067" lon="5.9487">
        <ele>389.95</ele>
        <time>2014-03-19T16:48:51Z</time>
      </trkpt>
      <trkpt lat="45.54069" lon="5.94871">
        <ele>389.95</ele>
        <time>2014-03-19T16:48:52Z</time>
      </trkpt>
      <trkpt lat="45.54071" lon="5.94871">
        <ele>389.95</ele>
        <time>2014-03-19T16:48:53Z</time>
      </trkpt>
      <trkpt lat="45.54073" lon="5.94871">
        <ele>389.95</ele>
        <time>2014-03-19T16:48:54Z</time>
      </trkpt>
      <trkpt lat="45.54076" lon="5.94871">
        <ele>390.43</ele>
        <time>2014-03-19T16:48:55Z</time>
      </trkpt>
      <trkpt lat="45.54107" lon="5.94883">
        <ele>393.32</ele>
        <time>2014-03-19T16:49:06Z</time>
      </trkpt>
      <trkpt lat="45.54114" lon="5.94893">
        <ele>394.28</ele>
        <time>2014-03-19T16:49:11Z</time>
      </trkpt>
      <trkpt lat="45.54116" lon="5.94894">
        <ele>394.76</ele>
        <time>2014-03-19T16:49:12Z</time>
      </trkpt>
      <trkpt lat="45.54136" lon="5.94898">
        <ele>396.2</ele>
        <time>2014-03-19T16:49:23Z</time>
      </trkpt>
      <trkpt lat="45.54136" lon="5.949">
        <ele>396.2</ele>
        <time>2014-03-19T16:49:24Z</time>
      </trkpt>
      <trkpt lat="45.54137" lon="5.94901">
        <ele>396.2</ele>
        <time>2014-03-19T16:49:25Z</time>
      </trkpt>
      <trkpt lat="45.54141" lon="5.94905">
        <ele>397.16</ele>
        <time>2014-03-19T16:49:30Z</time>
      </trkpt>
      <trkpt lat="45.54142" lon="5.94904">
        <ele>397.16</ele>
        <time>2014-03-19T16:49:31Z</time>
      </trkpt>
      <trkpt lat="45.54144" lon="5.94903">
        <ele>397.16</ele>
        <time>2014-03-19T16:49:32Z</time>
      </trkpt>
      <trkpt lat="45.54145" lon="5.94903">
        <ele>396.68</ele>
        <time>2014-03-19T16:49:33Z</time>
      </trkpt>
      <trkpt lat="45.54147" lon="5.94903">
        <ele>396.68</ele>
        <time>2014-03-19T16:49:34Z</time>
      </trkpt>
      <trkpt lat="45.54168" lon="5.94904">
        <ele>398.12</ele>
        <time>2014-03-19T16:49:47Z</time>
      </trkpt>
      <trkpt lat="45.54169" lon="5.94905">
        <ele>398.6</ele>
        <time>2014-03-19T16:49:48Z</time>
      </trkpt>
      <trkpt lat="45.54192" lon="5.94926">
        <ele>399.08</ele>
        <time>2014-03-19T16:50:01Z</time>
      </trkpt>
      <trkpt lat="45.542" lon="5.94928">
        <ele>398.6</ele>
        <time>2014-03-19T16:50:06Z</time>
      </trkpt>
      <trkpt lat="45.54202" lon="5.94928">
        <ele>398.12</ele>
        <time>2014-03-19T16:50:07Z</time>
      </trkpt>
      <trkpt lat="45.54245" lon="5.94919">
        <ele>395.24</ele>
        <time>2014-03-19T16:50:21Z</time>
      </trkpt>
      <trkpt lat="45.5428" lon="5.94933">
        <ele>391.87</ele>
        <time>2014-03-19T16:50:31Z</time>
      </trkpt>
      <trkpt lat="45.54294" lon="5.9494">
        <ele>388.99</ele>
        <time>2014-03-19T16:50:35Z</time>
      </trkpt>
      <trkpt lat="45.54311" lon="5.94945">
        <ele>385.15</ele>
        <time>2014-03-19T16:50:41Z</time>
      </trkpt>
      <trkpt lat="45.5432" lon="5.94946">
        <ele>381.78</ele>
        <time>2014-03-19T16:50:45Z</time>
      </trkpt>
      <trkpt lat="45.54327" lon="5.94954">
        <ele>377.94</ele>
        <time>2014-03-19T16:50:48Z</time>
      </trkpt>
      <trkpt lat="45.54329" lon="5.94959">
        <ele>376.97</ele>
        <time>2014-03-19T16:50:50Z</time>
      </trkpt>
      <trkpt lat="45.54356" lon="5.94948">
        <ele>375.05</ele>
        <time>2014-03-19T16:51:05Z</time>
      </trkpt>
      <trkpt lat="45.54372" lon="5.94953">
        <ele>372.17</ele>
        <time>2014-03-19T16:51:10Z</time>
      </trkpt>
      <trkpt lat="45.54389" lon="5.94962">
        <ele>368.8</ele>
        <time>2014-03-19T16:51:14Z</time>
      </trkpt>
      <trkpt lat="45.54387" lon="5.94969">
        <ele>365.44</ele>
        <time>2014-03-19T16:51:16Z</time>
      </trkpt>
      <trkpt lat="45.54385" lon="5.94974">
        <ele>364</ele>
        <time>2014-03-19T16:51:18Z</time>
      </trkpt>
      <trkpt lat="45.54384" lon="5.94982">
        <ele>362.55</ele>
        <time>2014-03-19T16:51:19Z</time>
      </trkpt>
      <trkpt lat="45.54356" lon="5.95102">
        <ele>360.15</ele>
        <time>2014-03-19T16:51:34Z</time>
      </trkpt>
      <trkpt lat="45.54351" lon="5.95121">
        <ele>356.79</ele>
        <time>2014-03-19T16:51:38Z</time>
      </trkpt>
      <trkpt lat="45.54347" lon="5.9514">
        <ele>354.86</ele>
        <time>2014-03-19T16:51:47Z</time>
      </trkpt>
      <trkpt lat="45.54347" lon="5.95139">
        <ele>354.86</ele>
        <time>2014-03-19T16:51:49Z</time>
      </trkpt>
      <trkpt lat="45.54352" lon="5.95139">
        <ele>355.34</ele>
        <time>2014-03-19T16:52:04Z</time>
      </trkpt>
      <trkpt lat="45.54353" lon="5.95154">
        <ele>354.86</ele>
        <time>2014-03-19T16:52:11Z</time>
      </trkpt>
      <trkpt lat="45.54353" lon="5.95189">
        <ele>355.83</ele>
        <time>2014-03-19T16:52:25Z</time>
      </trkpt>
      <trkpt lat="45.54354" lon="5.95228">
        <ele>356.31</ele>
        <time>2014-03-19T16:52:38Z</time>
      </trkpt>
      <trkpt lat="45.54365" lon="5.95227">
        <ele>356.31</ele>
        <time>2014-03-19T16:52:43Z</time>
      </trkpt>
      <trkpt lat="45.54417" lon="5.95219">
        <ele>356.31</ele>
        <time>2014-03-19T16:52:57Z</time>
      </trkpt>
      <trkpt lat="45.54422" lon="5.95217">
        <ele>355.83</ele>
        <time>2014-03-19T16:52:58Z</time>
      </trkpt>
      <trkpt lat="45.5443" lon="5.95211">
        <ele>355.83</ele>
        <time>2014-03-19T16:53:00Z</time>
      </trkpt>
      <trkpt lat="45.54446" lon="5.95202">
        <ele>355.83</ele>
        <time>2014-03-19T16:53:04Z</time>
      </trkpt>
      <trkpt lat="45.5445" lon="5.95199">
        <ele>356.31</ele>
        <time>2014-03-19T16:53:05Z</time>
      </trkpt>
      <trkpt lat="45.54471" lon="5.9518">
        <ele>355.34</ele>
        <time>2014-03-19T16:53:10Z</time>
      </trkpt>
      <trkpt lat="45.54475" lon="5.95177">
        <ele>355.34</ele>
        <time>2014-03-19T16:53:11Z</time>
      </trkpt>
      <trkpt lat="45.54517" lon="5.95159">
        <ele>353.9</ele>
        <time>2014-03-19T16:53:20Z</time>
      </trkpt>
      <trkpt lat="45.54522" lon="5.95159">
        <ele>353.9</ele>
        <time>2014-03-19T16:53:21Z</time>
      </trkpt>
      <trkpt lat="45.54527" lon="5.9516">
        <ele>353.9</ele>
        <time>2014-03-19T16:53:22Z</time>
      </trkpt>
      <trkpt lat="45.54547" lon="5.95196">
        <ele>354.86</ele>
        <time>2014-03-19T16:53:31Z</time>
      </trkpt>
      <trkpt lat="45.54557" lon="5.95244">
        <ele>358.23</ele>
        <time>2014-03-19T16:53:42Z</time>
      </trkpt>
      <trkpt lat="45.54559" lon="5.95244">
        <ele>358.23</ele>
        <time>2014-03-19T16:53:43Z</time>
      </trkpt>
      <trkpt lat="45.54561" lon="5.95243">
        <ele>357.75</ele>
        <time>2014-03-19T16:53:44Z</time>
      </trkpt>
      <trkpt lat="45.54564" lon="5.95241">
        <ele>358.71</ele>
        <time>2014-03-19T16:53:45Z</time>
      </trkpt>
      <trkpt lat="45.54567" lon="5.9524">
        <ele>358.23</ele>
        <time>2014-03-19T16:53:46Z</time>
      </trkpt>
      <trkpt lat="45.54569" lon="5.95239">
        <ele>358.23</ele>
        <time>2014-03-19T16:53:47Z</time>
      </trkpt>
      <trkpt lat="45.54615" lon="5.95222">
        <ele>359.19</ele>
        <time>2014-03-19T16:54:02Z</time>
      </trkpt>
      <trkpt lat="45.54619" lon="5.9522">
        <ele>358.71</ele>
        <time>2014-03-19T16:54:03Z</time>
      </trkpt>
      <trkpt lat="45.54623" lon="5.9522">
        <ele>358.71</ele>
        <time>2014-03-19T16:54:04Z</time>
      </trkpt>
      <trkpt lat="45.54628" lon="5.9522">
        <ele>358.71</ele>
        <time>2014-03-19T16:54:05Z</time>
      </trkpt>
      <trkpt lat="45.54632" lon="5.9522">
        <ele>358.23</ele>
        <time>2014-03-19T16:54:06Z</time>
      </trkpt>
      <trkpt lat="45.54636" lon="5.95221">
        <ele>358.71</ele>
        <time>2014-03-19T16:54:07Z</time>
      </trkpt>
      <trkpt lat="45.54676" lon="5.9524">
        <ele>360.15</ele>
        <time>2014-03-19T16:54:19Z</time>
      </trkpt>
      <trkpt lat="45.54693" lon="5.95246">
        <ele>359.19</ele>
        <time>2014-03-19T16:54:25Z</time>
      </trkpt>
      <trkpt lat="45.54702" lon="5.95246">
        <ele>357.27</ele>
        <time>2014-03-19T16:54:28Z</time>
      </trkpt>
      <trkpt lat="45.54717" lon="5.95216">
        <ele>353.9</ele>
        <time>2014-03-19T16:54:33Z</time>
      </trkpt>
      <trkpt lat="45.5474" lon="5.95191">
        <ele>351.02</ele>
        <time>2014-03-19T16:54:40Z</time>
      </trkpt>
      <trkpt lat="45.54763" lon="5.95193">
        <ele>351.02</ele>
        <time>2014-03-19T16:54:45Z</time>
      </trkpt>
      <trkpt lat="45.54776" lon="5.95185">
        <ele>351.02</ele>
        <time>2014-03-19T16:54:46Z</time>
      </trkpt>
      <trkpt lat="45.5481" lon="5.95174">
        <ele>351.5</ele>
        <time>2014-03-19T16:54:51Z</time>
      </trkpt>
      <trkpt lat="45.54834" lon="5.95166">
        <ele>349.58</ele>
        <time>2014-03-19T16:54:56Z</time>
      </trkpt>
      <trkpt lat="45.54839" lon="5.95166">
        <ele>349.58</ele>
        <time>2014-03-19T16:54:57Z</time>
      </trkpt>
      <trkpt lat="45.54843" lon="5.95166">
        <ele>349.58</ele>
        <time>2014-03-19T16:54:58Z</time>
      </trkpt>
      <trkpt lat="45.54846" lon="5.95163">
        <ele>349.58</ele>
        <time>2014-03-19T16:54:59Z</time>
      </trkpt>
      <trkpt lat="45.54848" lon="5.9516">
        <ele>349.1</ele>
        <time>2014-03-19T16:55:00Z</time>
      </trkpt>
      <trkpt lat="45.5485" lon="5.95157">
        <ele>349.1</ele>
        <time>2014-03-19T16:55:01Z</time>
      </trkpt>
      <trkpt lat="45.54852" lon="5.95155">
        <ele>349.58</ele>
        <time>2014-03-19T16:55:02Z</time>
      </trkpt>
      <trkpt lat="45.54854" lon="5.95153">
        <ele>348.62</ele>
        <time>2014-03-19T16:55:03Z</time>
      </trkpt>
      <trkpt lat="45.54857" lon="5.95151">
        <ele>348.62</ele>
        <time>2014-03-19T16:55:04Z</time>
      </trkpt>
      <trkpt lat="45.5486" lon="5.95149">
        <ele>348.13</ele>
        <time>2014-03-19T16:55:05Z</time>
      </trkpt>
      <trkpt lat="45.54871" lon="5.95142">
        <ele>346.69</ele>
        <time>2014-03-19T16:55:08Z</time>
      </trkpt>
      <trkpt lat="45.54889" lon="5.95126">
        <ele>343.33</ele>
        <time>2014-03-19T16:55:13Z</time>
      </trkpt>
      <trkpt lat="45.54903" lon="5.95121">
        <ele>339.96</ele>
        <time>2014-03-19T16:55:17Z</time>
      </trkpt>
      <trkpt lat="45.54923" lon="5.95126">
        <ele>339</ele>
        <time>2014-03-19T16:55:22Z</time>
      </trkpt>
      <trkpt lat="45.54927" lon="5.95126">
        <ele>338.52</ele>
        <time>2014-03-19T16:55:23Z</time>
      </trkpt>
      <trkpt lat="45.54933" lon="5.95125">
        <ele>337.08</ele>
        <time>2014-03-19T16:55:24Z</time>
      </trkpt>
      <trkpt lat="45.54938" lon="5.95124">
        <ele>335.16</ele>
        <time>2014-03-19T16:55:25Z</time>
      </trkpt>
      <trkpt lat="45.54943" lon="5.95124">
        <ele>335.16</ele>
        <time>2014-03-19T16:55:26Z</time>
      </trkpt>
      <trkpt lat="45.54948" lon="5.95124">
        <ele>334.2</ele>
        <time>2014-03-19T16:55:27Z</time>
      </trkpt>
      <trkpt lat="45.54952" lon="5.95125">
        <ele>333.71</ele>
        <time>2014-03-19T16:55:28Z</time>
      </trkpt>
      <trkpt lat="45.54957" lon="5.95126">
        <ele>333.23</ele>
        <time>2014-03-19T16:55:29Z</time>
      </trkpt>
      <trkpt lat="45.54967" lon="5.95132">
        <ele>331.79</ele>
        <time>2014-03-19T16:55:32Z</time>
      </trkpt>
      <trkpt lat="45.54968" lon="5.95135">
        <ele>331.31</ele>
        <time>2014-03-19T16:55:33Z</time>
      </trkpt>
      <trkpt lat="45.54973" lon="5.95139">
        <ele>329.39</ele>
        <time>2014-03-19T16:55:35Z</time>
      </trkpt>
      <trkpt lat="45.54992" lon="5.95154">
        <ele>326.02</ele>
        <time>2014-03-19T16:55:39Z</time>
      </trkpt>
      <trkpt lat="45.55012" lon="5.95174">
        <ele>324.58</ele>
        <time>2014-03-19T16:55:43Z</time>
      </trkpt>
      <trkpt lat="45.55022" lon="5.95189">
        <ele>323.14</ele>
        <time>2014-03-19T16:55:46Z</time>
      </trkpt>
      <trkpt lat="45.55039" lon="5.95214">
        <ele>321.7</ele>
        <time>2014-03-19T16:55:50Z</time>
      </trkpt>
      <trkpt lat="45.55051" lon="5.95231">
        <ele>319.78</ele>
        <time>2014-03-19T16:55:54Z</time>
      </trkpt>
      <trkpt lat="45.55055" lon="5.95231">
        <ele>319.3</ele>
        <time>2014-03-19T16:55:55Z</time>
      </trkpt>
      <trkpt lat="45.55058" lon="5.95232">
        <ele>319.3</ele>
        <time>2014-03-19T16:55:56Z</time>
      </trkpt>
      <trkpt lat="45.55062" lon="5.95233">
        <ele>319.3</ele>
        <time>2014-03-19T16:55:57Z</time>
      </trkpt>
      <trkpt lat="45.55065" lon="5.95234">
        <ele>319.3</ele>
        <time>2014-03-19T16:55:58Z</time>
      </trkpt>
      <trkpt lat="45.55079" lon="5.95237">
        <ele>318.33</ele>
        <time>2014-03-19T16:56:05Z</time>
      </trkpt>
      <trkpt lat="45.55082" lon="5.95238">
        <ele>318.33</ele>
        <time>2014-03-19T16:56:06Z</time>
      </trkpt>
      <trkpt lat="45.55084" lon="5.9524">
        <ele>317.85</ele>
        <time>2014-03-19T16:56:07Z</time>
      </trkpt>
      <trkpt lat="45.55099" lon="5.95267">
        <ele>314.97</ele>
        <time>2014-03-19T16:56:12Z</time>
      </trkpt>
      <trkpt lat="45.55122" lon="5.95303">
        <ele>312.57</ele>
        <time>2014-03-19T16:56:16Z</time>
      </trkpt>
      <trkpt lat="45.55133" lon="5.95323">
        <ele>311.12</ele>
        <time>2014-03-19T16:56:18Z</time>
      </trkpt>
      <trkpt lat="45.5514" lon="5.95331">
        <ele>310.16</ele>
        <time>2014-03-19T16:56:19Z</time>
      </trkpt>
      <trkpt lat="45.55153" lon="5.95344">
        <ele>309.68</ele>
        <time>2014-03-19T16:56:21Z</time>
      </trkpt>
      <trkpt lat="45.5516" lon="5.95347">
        <ele>308.72</ele>
        <time>2014-03-19T16:56:22Z</time>
      </trkpt>
      <trkpt lat="45.55167" lon="5.95348">
        <ele>307.28</ele>
        <time>2014-03-19T16:56:23Z</time>
      </trkpt>
      <trkpt lat="45.55194" lon="5.95347">
        <ele>305.36</ele>
        <time>2014-03-19T16:56:26Z</time>
      </trkpt>
      <trkpt lat="45.55203" lon="5.95349">
        <ele>304.88</ele>
        <time>2014-03-19T16:56:27Z</time>
      </trkpt>
      <trkpt lat="45.55212" lon="5.95352">
        <ele>304.39</ele>
        <time>2014-03-19T16:56:28Z</time>
      </trkpt>
      <trkpt lat="45.55221" lon="5.95357">
        <ele>303.91</ele>
        <time>2014-03-19T16:56:29Z</time>
      </trkpt>
      <trkpt lat="45.5523" lon="5.95362">
        <ele>303.91</ele>
        <time>2014-03-19T16:56:30Z</time>
      </trkpt>
      <trkpt lat="45.55248" lon="5.95371">
        <ele>302.47</ele>
        <time>2014-03-19T16:56:32Z</time>
      </trkpt>
      <trkpt lat="45.55293" lon="5.95391">
        <ele>299.59</ele>
        <time>2014-03-19T16:56:37Z</time>
      </trkpt>
      <trkpt lat="45.55301" lon="5.95392">
        <ele>299.59</ele>
        <time>2014-03-19T16:56:38Z</time>
      </trkpt>
      <trkpt lat="45.55308" lon="5.9539">
        <ele>298.63</ele>
        <time>2014-03-19T16:56:39Z</time>
      </trkpt>
      <trkpt lat="45.5532" lon="5.95387">
        <ele>297.67</ele>
        <time>2014-03-19T16:56:41Z</time>
      </trkpt>
      <trkpt lat="45.55325" lon="5.95387">
        <ele>297.18</ele>
        <time>2014-03-19T16:56:42Z</time>
      </trkpt>
      <trkpt lat="45.55328" lon="5.95389">
        <ele>297.18</ele>
        <time>2014-03-19T16:56:43Z</time>
      </trkpt>
      <trkpt lat="45.55331" lon="5.95391">
        <ele>297.18</ele>
        <time>2014-03-19T16:56:44Z</time>
      </trkpt>
      <trkpt lat="45.55333" lon="5.95394">
        <ele>297.18</ele>
        <time>2014-03-19T16:56:45Z</time>
      </trkpt>
      <trkpt lat="45.55335" lon="5.95396">
        <ele>297.18</ele>
        <time>2014-03-19T16:56:46Z</time>
      </trkpt>
      <trkpt lat="45.55338" lon="5.95399">
        <ele>297.18</ele>
        <time>2014-03-19T16:56:47Z</time>
      </trkpt>
      <trkpt lat="45.55346" lon="5.95403">
        <ele>297.18</ele>
        <time>2014-03-19T16:56:50Z</time>
      </trkpt>
      <trkpt lat="45.55349" lon="5.954">
        <ele>297.18</ele>
        <time>2014-03-19T16:56:51Z</time>
      </trkpt>
      <trkpt lat="45.55351" lon="5.95396">
        <ele>297.18</ele>
        <time>2014-03-19T16:56:52Z</time>
      </trkpt>
      <trkpt lat="45.55354" lon="5.95391">
        <ele>296.7</ele>
        <time>2014-03-19T16:56:53Z</time>
      </trkpt>
      <trkpt lat="45.55356" lon="5.95386">
        <ele>296.7</ele>
        <time>2014-03-19T16:56:54Z</time>
      </trkpt>
      <trkpt lat="45.55359" lon="5.95381">
        <ele>296.7</ele>
        <time>2014-03-19T16:56:55Z</time>
      </trkpt>
      <trkpt lat="45.55362" lon="5.95376">
        <ele>296.22</ele>
        <time>2014-03-19T16:56:56Z</time>
      </trkpt>
      <trkpt lat="45.55365" lon="5.95372">
        <ele>296.22</ele>
        <time>2014-03-19T16:56:57Z</time>
      </trkpt>
      <trkpt lat="45.55368" lon="5.95368">
        <ele>296.22</ele>
        <time>2014-03-19T16:56:58Z</time>
      </trkpt>
      <trkpt lat="45.55372" lon="5.95365">
        <ele>296.22</ele>
        <time>2014-03-19T16:56:59Z</time>
      </trkpt>
      <trkpt lat="45.55414" lon="5.95323">
        <ele>293.82</ele>
        <time>2014-03-19T16:57:09Z</time>
      </trkpt>
      <trkpt lat="45.55478" lon="5.9524">
        <ele>293.82</ele>
        <time>2014-03-19T16:57:25Z</time>
      </trkpt>
      <trkpt lat="45.55531" lon="5.95173">
        <ele>293.34</ele>
        <time>2014-03-19T16:57:40Z</time>
      </trkpt>
      <trkpt lat="45.55594" lon="5.95091">
        <ele>293.82</ele>
        <time>2014-03-19T16:57:58Z</time>
      </trkpt>
      <trkpt lat="45.55607" lon="5.95074">
        <ele>294.3</ele>
        <time>2014-03-19T16:58:02Z</time>
      </trkpt>
      <trkpt lat="45.55647" lon="5.95025">
        <ele>293.82</ele>
        <time>2014-03-19T16:58:13Z</time>
      </trkpt>
      <trkpt lat="45.5565" lon="5.9502">
        <ele>293.82</ele>
        <time>2014-03-19T16:58:14Z</time>
      </trkpt>
      <trkpt lat="45.55653" lon="5.95015">
        <ele>293.82</ele>
        <time>2014-03-19T16:58:15Z</time>
      </trkpt>
      <trkpt lat="45.55658" lon="5.95011">
        <ele>294.3</ele>
        <time>2014-03-19T16:58:16Z</time>
      </trkpt>
      <trkpt lat="45.55661" lon="5.95007">
        <ele>293.34</ele>
        <time>2014-03-19T16:58:17Z</time>
      </trkpt>
      <trkpt lat="45.55665" lon="5.95003">
        <ele>293.82</ele>
        <time>2014-03-19T16:58:18Z</time>
      </trkpt>
      <trkpt lat="45.55688" lon="5.94978">
        <ele>294.3</ele>
        <time>2014-03-19T16:58:24Z</time>
      </trkpt>
      <trkpt lat="45.55691" lon="5.94973">
        <ele>293.82</ele>
        <time>2014-03-19T16:58:25Z</time>
      </trkpt>
      <trkpt lat="45.55737" lon="5.94905">
        <ele>293.34</ele>
        <time>2014-03-19T16:58:38Z</time>
      </trkpt>
      <trkpt lat="45.55742" lon="5.94902">
        <ele>293.34</ele>
        <time>2014-03-19T16:58:39Z</time>
      </trkpt>
      <trkpt lat="45.55746" lon="5.94899">
        <ele>293.82</ele>
        <time>2014-03-19T16:58:40Z</time>
      </trkpt>
      <trkpt lat="45.55759" lon="5.94889">
        <ele>293.34</ele>
        <time>2014-03-19T16:58:43Z</time>
      </trkpt>
      <trkpt lat="45.55766" lon="5.94859">
        <ele>293.34</ele>
        <time>2014-03-19T16:58:51Z</time>
      </trkpt>
      <trkpt lat="45.55766" lon="5.94854">
        <ele>293.82</ele>
        <time>2014-03-19T16:58:52Z</time>
      </trkpt>
      <trkpt lat="45.55767" lon="5.9485">
        <ele>293.34</ele>
        <time>2014-03-19T16:58:53Z</time>
      </trkpt>
      <trkpt lat="45.5577" lon="5.94846">
        <ele>293.34</ele>
        <time>2014-03-19T16:58:54Z</time>
      </trkpt>
      <trkpt lat="45.55774" lon="5.94843">
        <ele>293.34</ele>
        <time>2014-03-19T16:58:55Z</time>
      </trkpt>
      <trkpt lat="45.55778" lon="5.94841">
        <ele>293.34</ele>
        <time>2014-03-19T16:58:56Z</time>
      </trkpt>
      <trkpt lat="45.55831" lon="5.94812">
        <ele>292.86</ele>
        <time>2014-03-19T16:59:10Z</time>
      </trkpt>
      <trkpt lat="45.55864" lon="5.94795">
        <ele>293.34</ele>
        <time>2014-03-19T16:59:18Z</time>
      </trkpt>
      <trkpt lat="45.55867" lon="5.94791">
        <ele>292.86</ele>
        <time>2014-03-19T16:59:19Z</time>
      </trkpt>
      <trkpt lat="45.5587" lon="5.94787">
        <ele>293.34</ele>
        <time>2014-03-19T16:59:20Z</time>
      </trkpt>
      <trkpt lat="45.55872" lon="5.94781">
        <ele>293.34</ele>
        <time>2014-03-19T16:59:21Z</time>
      </trkpt>
      <trkpt lat="45.55874" lon="5.94773">
        <ele>292.38</ele>
        <time>2014-03-19T16:59:22Z</time>
      </trkpt>
      <trkpt lat="45.55875" lon="5.94765">
        <ele>291.9</ele>
        <time>2014-03-19T16:59:23Z</time>
      </trkpt>
      <trkpt lat="45.55877" lon="5.94757">
        <ele>291.9</ele>
        <time>2014-03-19T16:59:24Z</time>
      </trkpt>
      <trkpt lat="45.55888" lon="5.94703">
        <ele>291.42</ele>
        <time>2014-03-19T16:59:31Z</time>
      </trkpt>
      <trkpt lat="45.55937" lon="5.94602">
        <ele>291.42</ele>
        <time>2014-03-19T16:59:47Z</time>
      </trkpt>
      <trkpt lat="45.55951" lon="5.94576">
        <ele>290.94</ele>
        <time>2014-03-19T16:59:51Z</time>
      </trkpt>
      <trkpt lat="45.55955" lon="5.94571">
        <ele>291.42</ele>
        <time>2014-03-19T16:59:52Z</time>
      </trkpt>
      <trkpt lat="45.5596" lon="5.94566">
        <ele>290.94</ele>
        <time>2014-03-19T16:59:53Z</time>
      </trkpt>
      <trkpt lat="45.55965" lon="5.94563">
        <ele>291.42</ele>
        <time>2014-03-19T16:59:54Z</time>
      </trkpt>
      <trkpt lat="45.5597" lon="5.9456">
        <ele>290.94</ele>
        <time>2014-03-19T16:59:55Z</time>
      </trkpt>
      <trkpt lat="45.55975" lon="5.94558">
        <ele>290.94</ele>
        <time>2014-03-19T16:59:56Z</time>
      </trkpt>
      <trkpt lat="45.56065" lon="5.94531">
        <ele>290.94</ele>
        <time>2014-03-19T17:00:13Z</time>
      </trkpt>
      <trkpt lat="45.5607" lon="5.94526">
        <ele>290.46</ele>
        <time>2014-03-19T17:00:14Z</time>
      </trkpt>
      <trkpt lat="45.56073" lon="5.94521">
        <ele>290.46</ele>
        <time>2014-03-19T17:00:15Z</time>
      </trkpt>
      <trkpt lat="45.56076" lon="5.94514">
        <ele>290.94</ele>
        <time>2014-03-19T17:00:16Z</time>
      </trkpt>
      <trkpt lat="45.56078" lon="5.94507">
        <ele>290.46</ele>
        <time>2014-03-19T17:00:17Z</time>
      </trkpt>
      <trkpt lat="45.56102" lon="5.94418">
        <ele>289.97</ele>
        <time>2014-03-19T17:00:30Z</time>
      </trkpt>
      <trkpt lat="45.56109" lon="5.94381">
        <ele>289.97</ele>
        <time>2014-03-19T17:00:35Z</time>
      </trkpt>
      <trkpt lat="45.56109" lon="5.94373">
        <ele>290.46</ele>
        <time>2014-03-19T17:00:36Z</time>
      </trkpt>
      <trkpt lat="45.56119" lon="5.94258">
        <ele>289.97</ele>
        <time>2014-03-19T17:00:51Z</time>
      </trkpt>
      <trkpt lat="45.56118" lon="5.94251">
        <ele>289.49</ele>
        <time>2014-03-19T17:00:52Z</time>
      </trkpt>
      <trkpt lat="45.56117" lon="5.94244">
        <ele>289.49</ele>
        <time>2014-03-19T17:00:53Z</time>
      </trkpt>
      <trkpt lat="45.56113" lon="5.94232">
        <ele>289.49</ele>
        <time>2014-03-19T17:00:55Z</time>
      </trkpt>
      <trkpt lat="45.56112" lon="5.94226">
        <ele>289.49</ele>
        <time>2014-03-19T17:00:56Z</time>
      </trkpt>
      <trkpt lat="45.56113" lon="5.94221">
        <ele>289.49</ele>
        <time>2014-03-19T17:00:57Z</time>
      </trkpt>
      <trkpt lat="45.56115" lon="5.94217">
        <ele>289.49</ele>
        <time>2014-03-19T17:00:58Z</time>
      </trkpt>
      <trkpt lat="45.56118" lon="5.94213">
        <ele>289.97</ele>
        <time>2014-03-19T17:00:59Z</time>
      </trkpt>
      <trkpt lat="45.5612" lon="5.94208">
        <ele>289.49</ele>
        <time>2014-03-19T17:01:00Z</time>
      </trkpt>
      <trkpt lat="45.56121" lon="5.94203">
        <ele>289.49</ele>
        <time>2014-03-19T17:01:01Z</time>
      </trkpt>
      <trkpt lat="45.56122" lon="5.94198">
        <ele>289.49</ele>
        <time>2014-03-19T17:01:02Z</time>
      </trkpt>
      <trkpt lat="45.56122" lon="5.94194">
        <ele>289.49</ele>
        <time>2014-03-19T17:01:03Z</time>
      </trkpt>
      <trkpt lat="45.56121" lon="5.94191">
        <ele>289.49</ele>
        <time>2014-03-19T17:01:04Z</time>
      </trkpt>
      <trkpt lat="45.5612" lon="5.94186">
        <ele>289.49</ele>
        <time>2014-03-19T17:01:05Z</time>
      </trkpt>
      <trkpt lat="45.5612" lon="5.94182">
        <ele>289.01</ele>
        <time>2014-03-19T17:01:06Z</time>
      </trkpt>
      <trkpt lat="45.5612" lon="5.94177">
        <ele>289.49</ele>
        <time>2014-03-19T17:01:07Z</time>
      </trkpt>
      <trkpt lat="45.56121" lon="5.94172">
        <ele>289.01</ele>
        <time>2014-03-19T17:01:08Z</time>
      </trkpt>
      <trkpt lat="45.56123" lon="5.94167">
        <ele>289.97</ele>
        <time>2014-03-19T17:01:09Z</time>
      </trkpt>
      <trkpt lat="45.56124" lon="5.94161">
        <ele>289.49</ele>
        <time>2014-03-19T17:01:10Z</time>
      </trkpt>
      <trkpt lat="45.56136" lon="5.94121">
        <ele>290.94</ele>
        <time>2014-03-19T17:01:20Z</time>
      </trkpt>
      <trkpt lat="45.56185" lon="5.94068">
        <ele>289.01</ele>
        <time>2014-03-19T17:01:32Z</time>
      </trkpt>
      <trkpt lat="45.56193" lon="5.94062">
        <ele>289.01</ele>
        <time>2014-03-19T17:01:34Z</time>
      </trkpt>
      <trkpt lat="45.56197" lon="5.9406">
        <ele>289.01</ele>
        <time>2014-03-19T17:01:35Z</time>
      </trkpt>
      <trkpt lat="45.56202" lon="5.94062">
        <ele>288.53</ele>
        <time>2014-03-19T17:01:36Z</time>
      </trkpt>
      <trkpt lat="45.56205" lon="5.94066">
        <ele>288.53</ele>
        <time>2014-03-19T17:01:37Z</time>
      </trkpt>
      <trkpt lat="45.56209" lon="5.94069">
        <ele>289.01</ele>
        <time>2014-03-19T17:01:38Z</time>
      </trkpt>
      <trkpt lat="45.56213" lon="5.94071">
        <ele>289.01</ele>
        <time>2014-03-19T17:01:39Z</time>
      </trkpt>
      <trkpt lat="45.56217" lon="5.94073">
        <ele>288.53</ele>
        <time>2014-03-19T17:01:40Z</time>
      </trkpt>
      <trkpt lat="45.56222" lon="5.94074">
        <ele>288.53</ele>
        <time>2014-03-19T17:01:41Z</time>
      </trkpt>
      <trkpt lat="45.56249" lon="5.94076">
        <ele>288.53</ele>
        <time>2014-03-19T17:01:47Z</time>
      </trkpt>
      <trkpt lat="45.56259" lon="5.94074">
        <ele>288.53</ele>
        <time>2014-03-19T17:01:49Z</time>
      </trkpt>
      <trkpt lat="45.56263" lon="5.94074">
        <ele>288.53</ele>
        <time>2014-03-19T17:01:50Z</time>
      </trkpt>
      <trkpt lat="45.56282" lon="5.94069">
        <ele>288.53</ele>
        <time>2014-03-19T17:01:54Z</time>
      </trkpt>
      <trkpt lat="45.56297" lon="5.94062">
        <ele>288.05</ele>
        <time>2014-03-19T17:01:57Z</time>
      </trkpt>
      <trkpt lat="45.56311" lon="5.94052">
        <ele>288.05</ele>
        <time>2014-03-19T17:02:00Z</time>
      </trkpt>
      <trkpt lat="45.56319" lon="5.94045">
        <ele>289.01</ele>
        <time>2014-03-19T17:02:02Z</time>
      </trkpt>
      <trkpt lat="45.56323" lon="5.9404">
        <ele>288.05</ele>
        <time>2014-03-19T17:02:03Z</time>
      </trkpt>
      <trkpt lat="45.56326" lon="5.94034">
        <ele>288.53</ele>
        <time>2014-03-19T17:02:04Z</time>
      </trkpt>
      <trkpt lat="45.56342" lon="5.94012">
        <ele>288.05</ele>
        <time>2014-03-19T17:02:08Z</time>
      </trkpt>
      <trkpt lat="45.56368" lon="5.93985">
        <ele>288.53</ele>
        <time>2014-03-19T17:02:14Z</time>
      </trkpt>
      <trkpt lat="45.56394" lon="5.93962">
        <ele>287.09</ele>
        <time>2014-03-19T17:02:20Z</time>
      </trkpt>
      <trkpt lat="45.56398" lon="5.93958">
        <ele>288.05</ele>
        <time>2014-03-19T17:02:21Z</time>
      </trkpt>
      <trkpt lat="45.56411" lon="5.93948">
        <ele>288.05</ele>
        <time>2014-03-19T17:02:25Z</time>
      </trkpt>
      <trkpt lat="45.56422" lon="5.93954">
        <ele>287.57</ele>
        <time>2014-03-19T17:02:30Z</time>
      </trkpt>
      <trkpt lat="45.56427" lon="5.93951">
        <ele>287.57</ele>
        <time>2014-03-19T17:02:34Z</time>
      </trkpt>
      <trkpt lat="45.56429" lon="5.93948">
        <ele>287.57</ele>
        <time>2014-03-19T17:02:36Z</time>
      </trkpt>
      <trkpt lat="45.56438" lon="5.93945">
        <ele>287.09</ele>
        <time>2014-03-19T17:02:40Z</time>
      </trkpt>
      <trkpt lat="45.56445" lon="5.93945">
        <ele>287.09</ele>
        <time>2014-03-19T17:02:50Z</time>
      </trkpt>
    </trkseg>
  </trk>
</gpx>